[[{"header":{"parameterUnit":"m.s-1","parameterCategory":1,"la1":30.6,"la2":28.766,"lo1":-90.7593,"lo2":-88.6598,"dx":0.0162,"dy":0.0183,"nx":116,"ny":114,"refTime":"2023-01-20T18:00:00:Z","depth":0,"parameterNumber":2,"parameterNumberName":"U-component_of_WINDS"},"data":[0.0,0.0,0.0,0.0,0.0,0.0,0.0,0.0,0.0,0.0,0.0,0.0,0.0,0.0,0.0,0.0,0.0,0.0,0.0,0.0,0.0,0.0,0.0,0.0,0.0,0.0,0.0,0.0,0.0,0.0,0.0,0.0,0.0,0.0,0.0,0.0,0.0,0.0,0.0,0.0,0.0,0.0,0.0,0.0,0.0,0.0,0.0,0.0,0.0,0.0,0.0,0.0,0.0,0.0,0.0,0.0,0.0,0.0,0.0,0.0,0.0,0.0,0.0,0.0,0.0,0.0,0.0,0.0,0.0,0.0,0.0,0.0,0.0,0.0,0.0,0.0,0.0,0.0,0.0,0.0,0.0,0.0,0.0,0.0,0.0,0.0,0.0,0.0,0.0,0.0,0.0,0.0,0.0,0.0,0.0,0.0,0.0,0.0,0.0,0.0,0.0,0.0,0.0,0.0,0.0,0.0,0.0,0.0,0.0,0.0,0.0,0.0,0.0,0.0,0.0,0.0,0.0,0.0,0.0,0.0,0.0,0.0,0.0,0.0,0.0,0.0,0.0,0.0,0.0,0.0,0.0,0.0,0.0,0.0,0.0,0.0,0.0,0.0,0.0,0.0,0.0,0.0,0.0,0.0,0.0,0.0,0.0,0.0,0.0,0.0,0.0,0.0,0.0,0.0,0.0,0.0,0.0,0.0,0.0,0.0,0.0,0.0,0.0,0.0,0.0,0.0,0.0,0.0,0.0,0.0,0.0,0.0,0.0,0.0,0.0,0.0,0.0,0.0,0.0,0.0,0.0,0.0,0.0,0.0,0.0,0.0,0.0,0.0,0.0,0.0,0.0,0.0,0.0,0.0,0.0,0.0,0.0,0.0,0.0,0.0,0.0,0.0,0.0,0.0,0.0,0.0,0.0,0.0,0.0,0.0,0.0,0.0,0.0,0.0,0.0,0.0,0.0,0.0,0.0,0.0,0.0,0.0,0.0,0.0,0.0,0.0,0.0,0.0,0.0,0.0,0.0,0.0,0.0,0.0,0.0,0.0,0.0,0.0,0.0,0.0,0.0,0.0,0.0,0.0,0.0,0.0,0.0,0.0,0.0,0.0,0.0,0.0,0.0,0.0,0.0,0.0,0.0,0.0,0.0,0.0,0.0,0.0,0.0,0.0,0.0,0.0,0.0,0.0,0.0,0.0,0.0,0.0,0.0,0.0,0.0,0.0,0.0,0.0,0.0,0.0,0.0,0.0,0.0,0.0,0.0,0.0,0.0,0.0,0.0,0.0,0.0,0.0,0.0,0.0,0.0,0.0,0.0,0.0,0.0,0.0,0.0,0.0,0.0,0.0,0.0,0.0,0.0,0.0,0.0,0.0,0.0,0.0,0.0,0.0,0.0,0.0,0.0,0.0,0.0,0.0,0.0,0.0,0.0,0.0,0.0,0.0,0.0,0.0,0.0,0.0,0.0,0.0,0.0,0.0,0.0,0.0,0.0,0.0,0.0,0.0,0.0,0.0,0.0,0.0,0.0,0.0,0.0,0.0,0.0,0.0,0.0,0.0,0.0,0.0,0.0,0.0,0.0,0.0,0.0,0.0,0.0,0.0,0.0,0.0,0.0,0.0,0.0,0.0,0.0,0.0,0.0,0.0,0.0,0.0,0.0,0.0,0.0,0.0,0.0,0.0,0.0,0.0,0.0,0.0,0.0,0.0,0.0,0.0,0.0,0.0,0.0,0.0,0.0,0.0,0.0,0.0,0.0,0.0,0.0,0.0,0.0,0.0,0.0,0.0,0.0,0.0,0.0,0.0,0.0,0.0,0.0,0.0,0.0,0.0,0.0,0.0,0.0,0.0,0.0,0.0,0.0,0.0,0.0,0.0,0.0,0.0,0.0,0.0,0.0,0.0,0.0,0.0,0.0,0.0,0.0,0.0,0.0,0.0,0.0,0.0,0.0,0.0,0.0,0.0,0.0,0.0,0.0,0.0,0.0,0.0,0.0,0.0,0.0,0.0,0.0,0.0,0.0,0.0,0.0,0.0,0.0,0.0,0.0,0.0,0.0,0.0,0.0,0.0,0.0,0.0,0.0,0.0,0.0,0.0,0.0,0.0,0.0,0.0,0.0,0.0,0.0,0.0,0.0,0.0,0.0,0.0,0.0,0.0,0.0,0.0,0.0,0.0,0.0,0.0,0.0,0.0,0.0,0.0,0.0,0.0,0.0,0.0,0.0,0.0,0.0,0.0,0.0,0.0,0.0,0.0,0.0,0.0,0.0,0.0,0.0,0.0,0.0,0.0,0.0,0.0,0.0,0.0,0.0,0.0,0.0,0.0,0.0,0.0,0.0,0.0,0.0,0.0,0.0,0.0,0.0,0.0,0.0,0.0,0.0,0.0,0.0,0.0,0.0,0.0,0.0,0.0,0.0,0.0,0.0,0.0,0.0,0.0,0.0,0.0,0.0,0.0,0.0,0.0,0.0,0.0,0.0,0.0,0.0,0.0,0.0,0.0,0.0,0.0,0.0,0.0,0.0,0.0,0.0,0.0,0.0,0.0,0.0,0.0,0.0,0.0,0.0,0.0,0.0,0.0,0.0,0.0,0.0,0.0,0.0,0.0,0.0,0.0,0.0,0.0,0.0,0.0,0.0,0.0,0.0,0.0,0.0,0.0,0.0,0.0,0.0,0.0,0.0,0.0,0.0,0.0,0.0,0.0,0.0,0.0,0.0,0.0,0.0,0.0,0.0,0.0,0.0,0.0,0.0,0.0,0.0,0.0,0.0,0.0,0.0,0.0,0.0,0.0,0.0,0.0,0.0,0.0,0.0,0.0,0.0,0.0,0.0,0.0,0.0,0.0,0.0,0.0,0.0,0.0,0.0,0.0,0.0,0.0,0.0,0.0,0.0,0.0,0.0,0.0,0.0,0.0,0.0,0.0,0.0,0.0,0.0,0.0,0.0,0.0,0.0,0.0,0.0,0.0,0.0,0.0,0.0,0.0,0.0,0.0,0.0,0.0,0.0,0.0,0.0,0.0,0.0,0.0,0.0,0.0,0.0,0.0,0.0,0.0,0.0,0.0,0.0,0.0,0.0,0.0,0.0,0.0,0.0,0.0,0.0,0.0,0.0,0.0,0.0,0.0,0.0,0.0,0.0,0.0,0.0,0.0,0.0,0.0,0.0,0.0,0.0,0.0,0.0,0.0,0.0,0.0,0.0,0.0,0.0,0.0,0.0,0.0,0.0,0.0,0.0,0.0,0.0,0.0,0.0,0.0,0.0,0.0,0.0,0.0,0.0,0.0,0.0,0.0,0.0,0.0,0.0,0.0,0.0,0.0,0.0,0.0,0.0,0.0,0.0,0.0,0.0,0.0,0.0,0.0,0.0,0.0,0.0,0.0,0.0,0.0,0.0,0.0,0.0,0.0,0.0,0.0,0.0,0.0,0.0,0.0,0.0,0.0,0.0,0.0,0.0,0.0,0.0,0.0,0.0,0.0,0.0,0.0,0.0,0.0,0.0,0.0,0.0,0.0,0.0,0.0,0.0,0.0,0.0,0.0,0.0,0.0,0.0,0.0,0.0,0.0,0.0,0.0,0.0,0.0,0.0,0.0,0.0,0.0,0.0,0.0,0.0,0.0,0.0,0.0,0.0,0.0,0.0,0.0,0.0,0.0,0.0,0.0,0.0,0.0,0.0,0.0,0.0,0.0,0.0,0.0,0.0,0.0,0.0,0.0,0.0,0.0,0.0,0.0,0.0,0.0,0.0,0.0,0.0,0.0,0.0,0.0,0.0,0.0,0.0,0.0,0.0,0.0,0.0,0.0,0.0,0.0,0.0,0.0,0.0,0.0,0.0,0.0,0.0,0.0,0.0,0.0,0.0,0.0,0.0,0.0,0.0,0.0,0.0,0.0,0.0,0.0,0.0,0.0,0.0,0.0,0.0,0.0,0.0,0.0,0.0,0.0,0.0,0.0,0.0,0.0,0.0,0.0,0.0,0.0,0.0,0.0,0.0,0.0,0.0,0.0,0.0,0.0,0.0,0.0,0.0,0.0,0.0,0.0,0.0,0.0,0.0,0.0,0.0,0.0,0.0,0.0,0.0,0.0,0.0,0.0,0.0,0.0,0.0,0.0,0.0,0.0,0.0,0.0,0.0,0.0,0.0,0.0,0.0,0.0,0.0,0.0,0.0,0.0,0.0,0.0,0.0,0.0,0.0,0.0,0.0,0.0,0.0,0.0,0.0,0.0,0.0,0.0,0.0,0.0,0.0,0.0,0.0,0.0,0.0,0.0,0.0,0.0,0.0,0.0,0.0,0.0,0.0,0.0,0.0,0.0,0.0,0.0,0.0,0.0,0.0,0.0,0.0,0.0,0.0,0.0,0.0,0.0,0.0,0.0,0.0,0.0,0.0,0.0,0.0,0.0,0.0,0.0,0.0,0.0,0.0,0.0,0.0,0.0,0.0,0.0,0.0,0.0,0.0,0.0,0.0,0.0,0.0,0.0,0.0,0.0,0.0,0.0,0.0,0.0,0.0,0.0,0.0,0.0,0.0,0.0,0.0,0.0,0.0,0.0,0.0,0.0,0.0,0.0,0.0,0.0,0.0,0.0,0.0,0.0,0.0,0.0,0.0,0.0,0.0,0.0,0.0,0.0,0.0,0.0,0.0,0.0,0.0,0.0,0.0,0.0,0.0,0.0,0.0,0.0,0.0,0.0,0.0,0.0,0.0,0.0,0.0,0.0,0.0,0.0,0.0,0.0,0.0,0.0,0.0,0.0,0.0,0.0,0.0,0.0,0.0,0.0,0.0,0.0,0.0,0.0,0.0,0.0,0.0,0.0,0.0,0.0,0.0,0.0,0.0,0.0,0.0,0.0,0.0,0.0,0.0,0.0,0.0,0.0,0.0,0.0,0.0,0.0,0.0,0.0,0.0,0.0,0.0,0.0,0.0,0.0,0.0,0.0,0.0,0.0,0.0,0.0,0.0,0.0,0.0,0.0,0.0,0.0,0.0,0.0,0.0,0.0,0.0,0.0,0.0,0.0,0.0,0.0,0.0,0.0,0.0,0.0,0.0,0.0,0.0,0.0,0.0,0.0,0.0,0.0,0.0,0.0,0.0,0.0,0.0,0.0,0.0,0.0,0.0,0.0,0.0,0.0,0.0,0.0,0.0,0.0,0.0,0.0,0.0,0.0,0.0,0.0,0.0,0.0,0.0,0.0,0.0,0.0,0.0,0.0,0.0,0.0,0.0,0.0,0.0,0.0,0.0,0.0,0.0,0.0,0.0,0.0,0.0,0.0,0.0,0.0,0.0,0.0,0.0,0.0,0.0,0.0,0.0,0.0,0.0,0.0,0.0,0.0,0.0,0.0,0.0,0.0,0.0,0.0,0.0,0.0,0.0,0.0,0.0,0.0,0.0,0.0,0.0,0.0,0.0,0.0,0.0,0.0,0.0,0.0,0.0,0.0,0.0,0.0,0.0,0.0,0.0,0.0,0.0,0.0,0.0,0.0,0.0,0.0,0.0,0.0,0.0,0.0,0.0,0.0,0.0,0.0,0.0,0.0,0.0,0.0,0.0,0.0,0.0,0.0,0.0,0.0,0.0,0.0,0.0,0.0,0.0,0.0,0.0,0.0,0.0,0.0,0.0,0.0,0.0,0.0,0.0,0.0,0.0,0.0,0.0,0.0,0.0,0.0,0.0,0.0,0.0,0.0,0.0,0.0,0.0,0.0,0.0,0.0,0.0,0.0,0.0,0.0,0.0,0.0,0.0,0.0,0.0,0.0,0.0,0.0,0.0,0.0,0.0,0.0,0.0,0.0,0.0,0.0,0.0,0.0,0.0,0.0,0.0,0.0,0.0,0.0,0.0,0.0,0.0,0.0,0.0,0.0,0.0,0.0,0.0,0.0,0.0,0.0,0.0,0.0,0.0,0.0,0.0,0.0,0.0,0.0,0.0,0.0,0.0,0.0,0.0,0.0,0.0,0.0,0.0,0.0,0.0,0.0,0.0,0.0,0.0,0.0,0.0,0.0,0.0,0.0,0.0,0.0,0.0,0.0,0.0,0.0,0.0,0.0,0.0,0.0,0.0,0.0,0.0,0.0,0.0,0.0,3.0414,0.0,0.0,0.0,0.0,0.0,0.0,0.0,0.0,0.0,0.0,0.0,0.0,0.0,0.0,0.0,0.0,0.0,0.0,0.0,0.0,0.0,0.0,0.0,0.0,0.0,0.0,0.0,0.0,0.0,0.0,0.0,0.0,0.0,0.0,0.0,0.0,0.0,0.0,0.0,2.3132,2.4335,2.5444,2.5935,2.6346,2.6673,0.0,0.0,0.0,0.0,0.0,0.0,0.0,0.0,0.0,0.0,0.0,0.0,0.0,0.0,0.0,0.0,0.0,0.0,0.0,0.0,0.0,0.0,0.0,0.0,0.0,0.0,0.0,0.0,0.0,0.0,0.0,0.0,0.0,0.0,0.0,0.0,0.0,0.0,0.0,0.0,0.0,0.0,0.0,0.0,0.0,0.0,0.0,0.0,0.0,0.0,0.0,0.0,0.0,0.0,0.0,0.0,0.0,0.0,0.0,0.0,0.0,0.0,0.0,0.0,0.0,0.0,0.0,0.0,0.0,0.0,0.0,3.0888,0.0,0.0,0.0,0.0,0.0,0.0,0.0,0.0,0.0,0.0,0.0,0.0,0.0,0.0,0.0,0.0,0.0,0.0,0.0,0.0,0.0,0.0,0.0,0.0,0.0,0.0,0.0,0.0,0.0,0.0,0.0,0.0,0.0,0.0,0.0,0.0,0.0,0.0,2.3444,2.4642,2.604,2.7636,2.7773,2.6639,2.6698,0.0,0.0,0.0,0.0,0.0,0.0,0.0,0.0,0.0,0.0,0.0,0.0,0.0,0.0,0.0,0.0,0.0,0.0,0.0,0.0,0.0,0.0,0.0,0.0,0.0,0.0,0.0,0.0,0.0,0.0,0.0,0.0,0.0,0.0,0.0,0.0,0.0,0.0,0.0,0.0,0.0,0.0,0.0,0.0,0.0,0.0,0.0,0.0,0.0,0.0,0.0,0.0,0.0,0.0,0.0,0.0,0.0,0.0,0.0,0.0,0.0,0.0,0.0,0.0,0.0,3.3913,3.4708,3.4847,3.4401,3.3344,3.2465,3.1788,0.0,0.0,0.0,0.0,0.0,0.0,0.0,0.0,0.0,0.0,0.0,0.0,0.0,0.0,0.0,0.0,0.0,0.0,0.0,0.0,0.0,0.0,0.0,0.0,0.0,0.0,0.0,0.0,0.0,0.0,0.0,0.0,0.0,0.0,2.2512,2.3292,2.3422,2.4988,2.5961,2.6329,2.6587,2.6629,2.6466,2.7029,0.0,0.0,0.0,0.0,0.0,0.0,0.0,0.0,0.0,0.0,0.0,0.0,0.0,0.0,0.0,0.0,0.0,0.0,0.0,0.0,0.0,0.0,0.0,0.0,0.0,0.0,0.0,0.0,0.0,0.0,0.0,0.0,0.0,0.0,0.0,0.0,0.0,0.0,0.0,0.0,0.0,0.0,0.0,2.9297,2.9337,0.0,0.0,0.0,0.0,0.0,0.0,0.0,0.0,0.0,0.0,0.0,0.0,0.0,0.0,3.3596,3.3993,3.4073,3.3909,3.47,3.522,3.5505,3.5922,3.6003,3.5832,3.5645,0.0,3.3098,3.2469,0.0,0.0,0.0,0.0,0.0,0.0,0.0,0.0,0.0,0.0,0.0,0.0,0.0,0.0,0.0,0.0,0.0,0.0,0.0,0.0,0.0,0.0,0.0,0.0,0.0,0.0,0.0,0.0,0.0,0.0,0.0,0.0,2.1409,2.2595,2.3703,2.4734,2.603,2.6705,2.6817,2.7187,2.7156,2.6817,2.7094,2.6832,2.6119,2.6141,0.0,0.0,0.0,0.0,0.0,0.0,0.0,0.0,0.0,0.0,0.0,0.0,0.0,0.0,0.0,0.0,0.0,0.0,0.0,0.0,0.0,0.0,0.0,0.0,0.0,0.0,0.0,0.0,0.0,0.0,0.0,0.0,0.0,0.0,0.0,0.0,0.0,0.0,0.0,2.9405,3.0015,3.1093,3.1253,3.1304,0.0,0.0,0.0,0.0,0.0,0.0,0.0,0.0,0.0,3.3422,3.4029,3.4829,3.5799,3.5764,3.6152,3.6967,3.7078,3.7591,3.8383,3.8259,3.801,3.7727,3.7693,3.6955,3.5632,3.4028,3.3346,3.3316,0.0,0.0,0.0,0.0,0.0,0.0,0.0,0.0,0.0,0.0,0.0,0.0,0.0,0.0,0.0,0.0,0.0,0.0,0.0,0.0,0.0,2.5112,0.0,0.0,0.0,0.0,0.0,0.0,0.0,2.152,2.1853,2.2945,2.4286,2.5832,2.6611,2.6985,2.7017,2.7596,2.7597,2.7132,2.7034,2.6707,2.6253,2.638,2.6534,0.0,0.0,0.0,0.0,0.0,0.0,0.0,0.0,0.0,0.0,0.0,0.0,0.0,0.0,0.0,0.0,0.0,0.0,0.0,0.0,0.0,0.0,0.0,0.0,0.0,0.0,0.0,0.0,0.0,0.0,0.0,0.0,0.0,0.0,0.0,0.0,0.0,0.0,3.0021,3.0693,3.2108,3.2128,3.2168,0.0,0.0,0.0,0.0,0.0,0.0,3.3195,3.4062,3.4759,3.5059,3.5703,3.6652,3.7952,3.7689,3.83,3.9883,3.9694,4.006,4.0915,4.0553,4.0067,3.948,3.9323,3.8815,3.797,3.585,3.4999,3.4978,3.4461,3.4576,0.0,3.5516,3.5637,3.5527,0.0,0.0,0.0,0.0,0.0,0.0,0.0,0.0,0.0,0.0,0.0,0.0,0.0,0.0,2.4799,2.6717,2.6313,2.5957,0.0,0.0,0.0,2.2153,2.2082,2.2198,2.2543,2.4154,2.5486,2.6454,2.6617,2.671,2.6726,2.7093,2.7219,2.717,2.6869,2.6858,2.7119,2.6725,2.6795,2.7065,0.0,0.0,0.0,0.0,0.0,0.0,0.0,0.0,0.0,0.0,0.0,0.0,0.0,0.0,0.0,0.0,0.0,0.0,0.0,0.0,0.0,0.0,0.0,0.0,0.0,0.0,0.0,0.0,0.0,0.0,0.0,0.0,0.0,0.0,0.0,0.0,0.0,0.0,0.0,3.1099,3.2339,0.0,0.0,0.0,0.0,3.3977,3.4355,3.4961,3.5781,3.5845,3.6484,3.766,3.7738,3.8419,3.9761,3.9735,4.0393,4.1681,4.2046,4.2247,4.2306,4.2185,4.1701,4.0884,4.0405,4.0,3.9488,3.7973,3.6965,3.6332,3.5542,3.536,3.5546,3.5246,3.5246,3.5417,0.0,0.0,0.0,0.0,0.0,0.0,0.0,0.0,0.0,0.0,0.0,0.0,0.0,2.473,2.6008,2.7504,2.7628,2.7224,2.6385,0.0,0.0,2.2493,2.2237,2.276,2.4232,2.5501,2.651,2.7275,2.754,2.7677,2.7677,2.7804,2.7818,2.7852,2.7725,2.8003,2.851,2.7869,2.7926,2.8359,2.8114,2.7449,0.0,0.0,0.0,0.0,0.0,0.0,0.0,0.0,0.0,0.0,0.0,0.0,0.0,0.0,0.0,0.0,0.0,0.0,0.0,0.0,0.0,0.0,0.0,0.0,0.0,0.0,0.0,0.0,0.0,0.0,0.0,0.0,0.0,0.0,0.0,0.0,0.0,3.3165,3.3308,0.0,0.0,3.4915,3.5379,3.6113,3.6797,3.7441,3.8027,3.8613,3.9084,3.9552,3.9863,4.0521,4.1514,4.1267,4.1757,4.3014,4.2919,4.2999,4.3235,4.2957,4.248,4.1906,4.1708,4.1231,4.0589,4.0323,3.9336,3.7945,3.7106,3.7127,3.7549,3.7228,3.7118,3.7112,0.0,0.0,0.0,0.0,0.0,0.0,0.0,0.0,0.0,0.0,0.0,2.2671,2.3962,2.5312,2.6533,2.7574,2.7759,2.7371,2.6259,0.0,0.0,2.3143,2.3258,2.3998,2.5493,2.6651,2.7487,2.809,2.85,2.8722,2.8738,2.8849,2.8897,2.8881,2.8786,2.887,2.9096,2.8976,2.9163,2.9482,2.9123,2.85,2.7683,0.0,0.0,0.0,0.0,0.0,0.0,0.0,0.0,0.0,0.0,0.0,0.0,0.0,0.0,0.0,0.0,0.0,0.0,0.0,0.0,0.0,0.0,0.0,0.0,0.0,0.0,0.0,0.0,0.0,0.0,0.0,0.0,0.0,0.0,0.0,3.3686,3.4643,3.4748,3.5226,3.6502,3.6778,3.7347,3.8518,3.9258,3.9902,4.0488,4.1074,4.1445,4.1601,4.1717,4.2187,4.3018,4.2495,4.283,4.4095,4.3709,4.3709,4.4136,4.3693,4.3254,4.2838,4.2703,4.2132,4.1308,4.1616,4.1003,3.9763,3.8913,3.8849,3.9204,3.9,3.8794,3.8528,0.0,0.0,0.0,0.0,0.0,0.0,0.0,0.0,0.0,0.0,2.2264,2.3355,2.3992,2.5272,2.6324,2.6937,2.6683,2.6226,2.5609,2.4968,0.0,2.4136,2.5164,2.5909,2.6261,2.7573,2.8456,2.8872,2.952,2.9817,2.9849,3.0166,3.0309,3.0277,2.996,2.9393,2.8779,2.9886,3.0327,3.0283,2.9892,2.9549,2.9155,0.0,0.0,0.0,0.0,0.0,0.0,0.0,0.0,0.0,0.0,0.0,0.0,0.0,0.0,0.0,0.0,0.0,0.0,0.0,0.0,0.0,0.0,0.0,0.0,0.0,0.0,0.0,0.0,0.0,0.0,0.0,0.0,0.0,3.3059,3.3959,3.4933,3.5336,3.654,3.7537,3.8065,3.9166,4.026,4.1191,4.166,4.2266,4.3105,4.3164,4.3359,4.3728,4.3292,4.3443,4.4308,4.3488,4.3698,4.4869,4.4504,4.4547,4.4954,4.4483,4.4058,4.3706,4.329,4.2594,4.1739,4.1808,4.1757,4.1601,4.0749,4.0396,4.0335,4.0391,4.0106,3.9445,0.0,0.0,0.0,0.0,0.0,0.0,0.0,0.0,0.0,0.0,2.2267,2.3256,2.368,2.5141,2.6269,2.6659,2.6594,2.6023,2.4948,0.0,0.0,2.4818,2.5838,2.696,2.807,2.8921,2.9679,3.032,3.0527,3.0712,3.0966,3.1061,3.0814,3.0222,3.0128,2.9669,2.901,2.9309,2.9749,3.0271,3.0739,3.0573,3.0035,0.0,0.0,0.0,0.0,0.0,0.0,0.0,0.0,0.0,0.0,0.0,0.0,0.0,0.0,0.0,0.0,0.0,0.0,0.0,0.0,0.0,0.0,0.0,0.0,0.0,0.0,0.0,0.0,0.0,0.0,0.0,0.0,3.5065,3.4412,3.5595,3.6693,3.7181,3.7846,3.8758,4.012,4.0863,4.1583,4.2366,4.3471,4.4207,4.4412,4.474,4.4952,4.5068,4.4592,4.4413,4.4677,4.4415,4.4472,4.4848,4.4717,4.4565,4.4391,4.4276,4.4004,4.3614,4.3513,4.3143,4.2629,4.2347,4.2029,4.1671,4.1128,4.0851,4.0786,4.0504,3.9954,3.9242,0.0,0.0,0.0,0.0,0.0,0.0,0.0,0.0,0.0,0.0,2.2468,2.3447,2.3765,2.492,2.5755,2.5956,2.5797,2.5334,2.4404,0.0,2.5258,2.5771,2.7073,2.8322,2.9409,3.0108,3.0759,3.13,3.1443,3.154,3.1551,3.1551,3.1207,3.0577,3.0577,3.0176,2.951,2.9816,3.0055,3.023,3.1238,3.1389,3.1032,3.0825,3.0177,2.9369,2.918,2.8928,2.8628,2.856,0.0,0.0,0.0,0.0,0.0,0.0,0.0,0.0,0.0,0.0,0.0,0.0,0.0,0.0,0.0,0.0,0.0,0.0,0.0,0.0,0.0,0.0,0.0,0.0,3.5629,3.683,3.6978,3.7592,3.8333,3.9193,3.9813,4.0676,4.1965,4.2504,4.3093,4.3925,4.4774,4.5275,4.5413,4.5681,4.5815,4.5815,4.5305,4.5036,4.5036,4.4857,4.4767,4.4767,4.4767,4.4745,4.4679,4.4679,4.4454,0.0,4.4089,4.3657,4.2943,4.2914,4.2654,0.0,0.0,0.0,0.0,0.0,4.0317,3.9414,0.0,0.0,0.0,0.0,0.0,0.0,0.0,0.0,0.0,0.0,0.0,2.3623,2.3938,2.4587,2.499,2.5039,2.4728,2.44,0.0,2.5017,2.5952,2.6821,2.844,2.9628,3.0277,3.0988,3.1541,3.1937,3.2237,3.2211,3.1929,3.1929,3.1672,3.1199,3.1113,3.0676,3.0097,3.0724,3.0631,3.0252,3.1361,3.1868,3.1927,3.1944,3.1504,3.0833,3.0445,2.9832,2.9228,2.9255,0.0,0.0,0.0,0.0,0.0,0.0,0.0,0.0,0.0,0.0,0.0,0.0,0.0,0.0,0.0,0.0,0.0,0.0,0.0,0.0,0.0,0.0,0.0,0.0,3.7517,3.9087,4.0029,3.9855,4.0033,4.111,4.1891,4.2656,4.3537,4.3997,4.4611,4.5529,4.5702,4.5917,4.6287,0.0,0.0,0.0,0.0,4.5574,4.5574,4.5178,4.4976,4.4921,4.4921,4.5049,4.5369,4.5369,4.5146,4.48,4.4785,4.4125,4.3056,4.3373,4.3191,4.2604,4.1932,4.1614,4.1499,4.1435,4.0713,0.0,0.0,0.0,0.0,0.0,0.0,0.0,0.0,0.0,0.0,2.0806,2.1971,2.2918,2.3241,2.3875,2.4398,2.4676,2.431,2.4349,2.5091,2.512,2.5917,2.7738,2.8927,2.9739,3.0123,3.0799,3.1459,3.2074,3.2135,3.2401,3.2838,3.2838,3.2491,3.1801,3.1173,3.0672,3.0307,2.98,2.9905,3.0489,3.105,3.1351,3.1529,3.1563,3.1306,3.0857,3.0428,3.0205,3.0017,2.973,2.9827,3.0024,2.9699,0.0,0.0,0.0,0.0,0.0,0.0,0.0,0.0,0.0,0.0,0.0,0.0,0.0,0.0,0.0,0.0,0.0,0.0,0.0,0.0,3.7318,3.89,4.0397,4.15,4.2067,4.2219,4.1944,4.2264,4.3034,4.4195,4.4709,4.5362,4.6239,4.6981,4.7451,4.7457,4.7475,0.0,4.7475,4.7018,4.6779,4.6779,4.6683,4.647,4.6122,0.0,0.0,4.5307,4.5307,4.5086,4.4727,4.4745,4.4396,4.3811,4.3211,4.2267,4.1232,4.155,4.1062,4.014,3.9781,3.93,3.8779,0.0,0.0,0.0,0.0,0.0,0.0,0.0,0.0,0.0,0.0,2.1991,2.2716,2.3064,2.3397,2.3665,2.3817,2.3719,2.4079,2.5148,2.5512,2.6508,2.8286,2.9313,3.009,3.0633,3.1264,3.1858,3.2361,3.2529,3.2662,3.281,3.2554,3.208,3.1506,3.0864,3.041,3.0001,2.9481,2.9505,2.9936,3.0009,3.0197,3.0511,3.1579,3.1445,3.0624,3.0416,2.9992,2.9517,2.9513,2.9644,2.9818,2.9795,2.9743,2.9681,0.0,0.0,0.0,0.0,0.0,0.0,0.0,0.0,0.0,0.0,0.0,0.0,0.0,0.0,3.2073,0.0,0.0,3.7147,3.859,3.9927,4.1246,4.2424,4.3026,4.3339,4.3199,4.3541,4.4081,4.4905,4.5197,4.5645,4.6331,4.683,4.721,4.7432,4.7432,4.7432,4.7432,4.7209,4.7112,4.7112,4.7112,4.6857,4.6398,4.6398,4.6054,4.5388,4.5171,4.4865,4.4469,4.4317,4.401,4.3613,4.2945,4.2049,4.1125,4.1413,4.0953,4.0036,3.9844,3.9342,3.882,0.0,0.0,0.0,0.0,0.0,0.0,0.0,0.0,0.0,0.0,2.1979,2.2514,2.2769,2.2865,2.2907,0.0,2.3003,2.3564,2.4882,2.564,2.6741,2.8281,2.9303,3.0115,3.0791,3.1474,3.2001,3.2444,3.2692,3.2689,3.2376,3.1887,3.1455,3.1122,3.0517,3.0056,2.9738,2.9254,2.9082,2.9201,2.9022,2.9066,2.9412,3.1194,3.1077,2.9986,2.9881,2.9222,2.8495,2.8855,2.9016,2.9143,2.9546,2.9286,2.8888,2.9196,2.9002,0.0,0.0,0.0,0.0,0.0,0.0,0.0,0.0,0.0,3.0529,3.205,3.276,3.3835,3.619,3.7254,3.8271,3.9685,4.0914,4.1988,4.2761,4.321,4.3603,4.3988,4.4456,4.49,4.5416,4.5522,4.5856,4.6466,4.6538,4.6788,4.7229,4.7229,4.7192,4.7168,4.7168,4.7083,4.6992,4.6992,4.6761,4.6233,4.6233,4.6002,4.5474,4.5155,4.4783,4.4394,4.398,4.3561,4.315,4.2715,4.2104,4.138,4.138,4.0905,4.0262,4.026,3.9741,3.9057,0.0,0.0,0.0,0.0,0.0,0.0,0.0,0.0,0.0,0.0,0.0,0.0,0.0,0.0,0.0,2.2385,2.1927,2.2513,2.469,2.4861,2.5644,2.7372,2.8289,2.8987,2.9422,3.033,3.112,3.1868,3.1816,3.1858,3.2043,3.1586,3.1306,3.1247,3.01,2.9758,2.9994,2.8645,2.8264,2.8612,2.8752,2.8731,2.8649,2.9318,2.9198,2.8555,2.797,2.7644,2.7563,2.7743,2.8002,2.8313,2.8721,2.9009,2.9018,2.7816,0.0,2.8492,0.0,0.0,0.0,3.0531,3.0235,3.0187,0.0,0.0,3.194,3.4478,3.5029,3.5712,3.783,3.9132,4.0152,4.1037,4.2116,4.2647,4.2096,4.2572,4.3007,4.3057,4.365,4.4404,4.5212,4.5628,4.6228,4.7116,4.7471,4.7667,4.7718,4.7718,4.7608,4.7303,4.7303,4.7125,4.6737,4.6737,4.6559,4.6136,4.6136,4.5909,4.5492,4.5439,4.5209,4.4783,4.4087,4.3515,4.2976,4.261,4.1978,4.1229,4.1229,4.0765,4.0043,4.0095,3.9626,3.8916,0.0,0.0,0.0,0.0,0.0,0.0,0.0,0.0,0.0,0.0,0.0,0.0,0.0,0.0,0.0,2.1214,2.1318,2.2104,2.3741,2.4553,2.5589,2.6885,2.8018,2.8693,2.8855,2.9774,3.0482,3.0966,3.112,3.1211,3.1151,3.0705,3.0348,3.0021,2.9275,2.8821,2.8648,2.7743,2.7631,2.7957,2.7728,2.7706,2.7826,2.8043,2.7639,2.7038,2.7537,2.7201,0.0,0.0,2.7014,2.6718,2.7059,2.7017,2.6715,2.6344,2.6802,0.0,2.7813,0.0,0.0,0.0,3.0857,3.116,3.2239,3.2422,3.2848,3.4477,3.557,3.6664,3.8007,3.8919,3.9745,0.0,4.0915,4.1192,4.1521,4.2522,4.3318,4.3533,4.4599,4.5359,4.5493,4.5838,4.6386,4.7054,4.7263,4.7454,4.7779,4.783,4.776,4.7582,4.7582,4.7494,4.7334,4.7155,4.6809,4.6349,4.612,4.5728,4.5272,4.5046,4.4595,4.4004,4.3691,4.3214,4.2592,4.239,4.1676,4.062,4.0402,3.9749,3.8942,3.9149,3.8874,3.8273,0.0,0.0,0.0,0.0,0.0,0.0,0.0,0.0,0.0,0.0,0.0,0.0,0.0,0.0,2.0226,2.0398,2.0588,2.1286,2.2705,2.382,2.4946,2.604,2.7309,2.8107,2.8395,2.9272,2.9886,3.0279,3.037,3.0326,3.0192,2.9571,2.9126,2.8769,2.829,2.7887,2.7491,2.6888,2.691,2.7239,2.6855,2.6806,2.6928,2.6878,2.6281,2.5563,2.6705,2.6441,0.0,0.0,2.5868,2.5333,2.5692,2.5496,2.5159,2.5186,2.5641,2.6461,2.7784,0.0,0.0,3.05,3.1442,3.2196,3.2556,3.3081,3.3738,3.4635,3.5808,3.6946,3.77,3.8408,3.911,3.9745,3.9949,4.0322,4.1309,4.2469,4.344,4.4076,4.5218,4.5958,4.5995,4.6217,4.6544,4.6907,4.7045,4.727,4.7684,4.7684,4.7632,4.7526,4.7509,4.7474,4.7368,4.7139,4.6742,4.6264,4.6003,4.556,4.5104,4.471,4.4231,4.37,4.3495,4.2956,4.2158,4.2056,4.12,3.9905,3.9674,3.8978,3.8084,3.8051,3.7902,3.7615,0.0,0.0,0.0,0.0,0.0,0.0,0.0,0.0,0.0,0.0,0.0,0.0,0.0,0.0,1.9484,2.0331,1.948,1.9675,2.1614,2.2258,2.3175,2.4499,2.579,2.692,2.7907,2.8578,2.9284,3.0,2.9447,2.9162,2.9132,2.8216,2.7779,2.7735,2.7266,2.7059,2.699,2.6182,2.6104,2.6543,2.6449,2.6265,2.6029,2.592,2.505,2.4085,2.4902,0.0,0.0,0.0,2.442,2.4518,2.4913,2.5244,0.0,2.4656,2.4808,0.0,0.0,0.0,2.9733,3.113,3.2281,3.3246,3.3901,3.4328,3.4768,3.5583,3.6121,3.6553,3.7053,3.8003,3.883,3.9196,4.007,4.0991,4.169,4.2155,4.2989,4.4438,4.4975,4.5611,0.0,4.6748,4.6817,4.6817,4.7177,4.7383,4.7383,4.7383,4.7212,4.6835,4.6817,4.6646,4.6234,4.6217,4.608,4.572,4.5703,4.5497,4.5104,4.471,4.4505,4.4453,4.3717,4.2857,4.1881,4.15,4.0528,3.9244,3.9244,3.8767,3.796,3.7007,3.6869,3.7115,0.0,0.0,0.0,0.0,0.0,0.0,0.0,0.0,0.0,0.0,0.0,0.0,0.0,0.0,0.0,0.0,1.8907,1.9355,2.0611,2.1342,2.2116,2.2992,2.3993,2.4777,2.5263,2.5957,2.66,2.7191,2.7447,2.7509,2.7411,2.6672,2.613,2.5766,2.5645,2.5507,2.5286,2.4855,2.5158,2.59,2.5111,2.5038,2.5397,2.5393,2.4675,2.364,0.0,0.0,0.0,0.0,0.0,0.0,2.3625,0.0,0.0,2.4507,0.0,0.0,0.0,0.0,3.0157,3.1153,3.2092,3.2822,3.2842,3.3096,3.3432,3.3686,3.4563,3.5434,3.5897,3.6631,3.7444,3.8302,3.8577,3.9246,4.0837,4.1374,4.2451,4.4713,4.5303,0.0,0.0,0.0,0.0,4.7106,4.659,4.6568,4.7365,4.7417,4.7366,4.7229,4.7229,4.7108,4.6988,4.5981,4.543,4.5296,4.4019,4.3233,4.2891,4.276,4.2362,4.1782,4.1541,4.0773,3.9686,3.9576,3.8722,3.7471,3.7648,3.7082,3.6153,3.539,3.5191,3.5284,0.0,0.0,0.0,0.0,0.0,0.0,0.0,0.0,0.0,0.0,0.0,0.0,0.0,0.0,0.0,0.0,0.0,1.8733,1.9588,2.0389,2.1133,2.1798,2.2671,2.3293,2.3645,2.3912,2.4231,2.4609,2.4735,2.4698,2.4531,2.4232,2.3911,2.3608,2.3836,2.3703,2.3363,2.3208,2.3478,2.3943,2.3308,2.3144,2.334,2.3857,2.3299,0.0,0.0,0.0,0.0,0.0,0.0,0.0,0.0,0.0,0.0,0.0,0.0,0.0,0.0,2.9174,3.0395,3.1231,3.207,3.2656,3.2429,3.2575,3.2701,3.2701,3.3244,3.3828,3.4207,3.4997,3.5879,3.6941,3.7469,3.8449,4.0287,4.1043,4.2123,4.4172,4.4751,0.0,0.0,0.0,0.0,4.686,4.6256,4.6376,4.7705,4.7758,4.7707,4.757,4.718,4.6899,4.6781,4.5345,4.4634,4.4451,4.2989,4.2163,4.1992,4.166,4.1179,4.0603,4.0259,3.9459,3.8395,3.8119,3.7283,3.6218,3.6196,3.5713,3.4982,3.4585,3.4287,3.4079,0.0,0.0,0.0,0.0,0.0,0.0,0.0,0.0,0.0,0.0,0.0,0.0,0.0,0.0,0.0,0.0,0.0,0.0,1.8548,1.9433,2.0235,2.085,2.17,2.239,2.2985,2.242,2.2145,2.2215,2.1461,2.0931,2.0722,2.1076,2.1254,2.1264,2.1744,2.1703,2.1264,2.1254,2.1107,2.0925,2.1019,2.0653,2.0167,2.1465,0.0,0.0,0.0,0.0,0.0,0.0,0.0,0.0,0.0,0.0,0.0,0.0,0.0,2.7162,2.8479,2.9549,3.0502,3.1423,3.2175,3.2641,3.2608,3.2594,3.258,3.2566,3.2197,3.1889,0.0,0.0,3.4259,3.5238,3.6925,3.8634,4.0174,4.1111,4.1966,0.0,0.0,0.0,0.0,0.0,0.0,4.5845,0.0,4.6735,4.8298,4.8315,4.8107,4.7642,4.6569,4.5848,4.5449,4.4291,4.3526,4.3125,4.2393,4.2062,4.2015,4.1168,4.0806,4.0672,3.9806,3.8785,3.7768,3.7171,3.6306,3.5394,3.5101,3.4793,3.4465,3.4451,3.4122,3.3577,0.0,0.0,0.0,0.0,0.0,0.0,0.0,0.0,0.0,0.0,0.0,0.0,0.0,0.0,0.0,0.0,0.0,0.0,1.8215,1.8766,1.9168,1.9341,1.9712,2.0084,2.0433,2.0037,1.9794,1.9723,1.9462,1.93,1.9233,1.9135,1.9183,1.935,1.9684,1.9593,1.9168,1.9052,1.9274,1.9569,0.0,1.8912,2.014,0.0,0.0,0.0,0.0,0.0,0.0,0.0,0.0,0.0,0.0,2.5291,2.5491,0.0,0.0,2.8045,2.9028,3.0063,3.094,3.1278,3.159,3.1789,3.1636,3.1421,3.1251,3.1034,3.0872,3.0859,0.0,0.0,0.0,3.5233,3.6759,0.0,4.0982,4.0848,0.0,4.3437,0.0,4.3052,4.3129,4.2628,0.0,0.0,4.3875,4.4719,4.6375,4.5623,4.4861,4.4279,4.3785,4.3473,4.3356,4.1967,4.0705,3.9516,3.9357,3.9024,3.8561,3.8331,3.791,3.7277,3.7036,3.6399,3.562,3.5417,3.4935,3.4324,3.4647,3.4578,3.4262,3.4042,3.3863,3.3635,0.0,0.0,0.0,0.0,0.0,0.0,0.0,0.0,0.0,0.0,0.0,0.0,0.0,0.0,0.0,0.0,0.0,0.0,0.0,1.8369,1.8627,1.8627,1.8864,1.9047,1.9176,1.8586,1.815,1.7892,1.7426,1.7108,1.6886,1.6883,1.6955,1.7072,1.7268,1.719,1.6936,1.6877,0.0,0.0,0.0,0.0,0.0,0.0,0.0,0.0,0.0,0.0,0.0,0.0,0.0,2.4957,2.6012,2.6306,2.6493,2.7549,0.0,2.8968,2.982,3.0608,3.1205,3.135,3.1383,3.128,3.0908,3.0621,3.0247,2.97,2.9593,0.0,0.0,0.0,0.0,0.0,0.0,0.0,3.9388,3.952,3.9875,0.0,4.1163,0.0,4.1341,4.1314,4.165,0.0,4.2637,4.3342,4.4987,4.4461,4.385,4.325,4.2638,4.1884,4.108,4.0113,3.9252,3.8426,3.8246,3.7939,3.7517,3.7111,3.6585,3.598,0.0,3.536,3.495,3.4869,3.4628,3.4293,3.4344,3.423,3.404,3.3729,3.3525,3.339,0.0,0.0,0.0,0.0,0.0,0.0,0.0,0.0,0.0,0.0,0.0,0.0,0.0,0.0,0.0,0.0,0.0,0.0,0.0,0.0,1.8398,1.8398,1.8627,1.877,1.8842,1.7774,1.7035,1.6642,1.5616,1.4908,1.4508,1.4865,1.5028,0.0,0.0,0.0,0.0,0.0,0.0,0.0,0.0,0.0,0.0,0.0,0.0,0.0,0.0,0.0,0.0,0.0,2.6159,2.5945,2.6787,2.7255,2.7724,2.8577,2.9259,2.9873,3.0648,3.1089,3.1396,3.1657,3.141,3.1009,3.048,3.0047,2.9553,2.8671,0.0,2.8551,2.8551,3.0339,3.2101,3.2921,0.0,3.7125,3.7097,3.8015,3.85,3.7949,3.8654,3.928,3.9574,3.9839,4.056,4.1919,4.1672,4.2154,4.3758,4.3686,4.3365,4.288,4.1922,4.0617,3.8904,3.8667,3.8514,3.8472,3.8153,3.7875,3.7609,3.6783,3.6282,3.593,0.0,0.0,3.5177,3.4923,3.4855,3.4762,3.4202,3.3961,3.3855,3.3574,3.3293,3.304,0.0,0.0,0.0,0.0,0.0,0.0,0.0,0.0,0.0,0.0,0.0,0.0,0.0,0.0,0.0,0.0,0.0,0.0,0.0,0.0,0.0,1.8398,1.8441,1.8639,1.8944,1.7293,0.0,0.0,0.0,0.0,1.4023,1.4433,1.4672,0.0,0.0,0.0,0.0,0.0,0.0,0.0,0.0,0.0,0.0,0.0,0.0,0.0,0.0,0.0,0.0,2.6466,2.7001,2.7428,2.8096,2.8497,2.8911,2.9838,3.0474,3.0955,3.1116,3.1543,3.1904,3.1764,3.1263,3.0715,3.0127,2.9579,0.0,0.0,0.0,2.8272,2.8272,2.9762,3.1584,3.3441,3.516,3.6746,0.0,0.0,3.8554,0.0,0.0,0.0,0.0,0.0,0.0,0.0,0.0,0.0,4.1761,4.0929,4.0056,3.9209,3.9051,3.8538,3.7718,3.765,3.7502,3.7217,3.715,3.7002,3.6692,3.6342,3.5993,3.5644,0.0,0.0,3.5191,3.5137,3.4977,3.4802,3.4708,3.4309,3.3881,3.3828,3.3601,3.3334,0.0,0.0,0.0,0.0,0.0,0.0,0.0,0.0,0.0,0.0,0.0,0.0,0.0,0.0,0.0,0.0,0.0,0.0,0.0,0.0,0.0,0.0,0.0,0.0,0.0,0.0,0.0,0.0,0.0,0.0,0.0,0.0,0.0,0.0,0.0,0.0,0.0,0.0,0.0,0.0,0.0,0.0,0.0,0.0,0.0,0.0,0.0,0.0,0.0,0.0,2.7482,2.8938,2.9379,2.9619,2.9953,3.1203,3.1476,3.149,3.1637,3.1784,3.181,3.1517,3.0996,3.0368,2.9633,0.0,0.0,0.0,2.7523,2.7684,2.7482,2.9032,0.0,3.1651,3.3187,3.4684,3.5855,0.0,0.0,0.0,0.0,0.0,0.0,0.0,0.0,0.0,0.0,0.0,3.995,3.9471,3.894,3.8504,3.8388,3.8093,3.7595,3.7448,3.7235,3.6885,3.6885,3.6739,3.65,3.6206,3.5912,3.5618,0.0,0.0,3.5191,3.5191,3.511,3.4977,3.4869,3.4496,3.4095,3.3935,3.3681,3.3414,0.0,0.0,0.0,0.0,0.0,0.0,0.0,0.0,0.0,0.0,0.0,0.0,0.0,0.0,0.0,0.0,0.0,0.0,0.0,0.0,0.0,0.0,0.0,0.0,0.0,0.0,0.0,0.0,0.0,0.0,0.0,0.0,0.0,0.0,0.0,0.0,0.0,0.0,0.0,0.0,0.0,0.0,0.0,0.0,0.0,0.0,0.0,0.0,0.0,0.0,2.7482,2.9352,2.99,3.0467,3.1069,3.2032,3.2166,3.1957,3.1998,3.1891,3.1677,3.1316,3.0795,3.0127,2.9202,2.8524,0.0,0.0,2.7001,2.7134,2.7028,2.8444,2.9753,0.0,3.1463,3.2808,3.3654,3.4148,0.0,0.0,0.0,0.0,0.0,0.0,0.0,0.0,0.0,0.0,0.0,3.8718,3.8718,3.8718,3.8477,3.8183,3.7809,3.7595,3.7301,3.6885,3.6885,3.6779,3.658,3.6233,3.5952,3.5698,0.0,0.0,0.0,3.5191,3.5138,3.5019,3.4793,3.441,3.4015,3.3724,3.342,3.3142,0.0,0.0,0.0,0.0,0.0,0.0,0.0,0.0,0.0,0.0,0.0,0.0,0.0,0.0,0.0,0.0,0.0,0.0,0.0,0.0,0.0,0.0,0.0,0.0,0.0,0.0,0.0,0.0,0.0,0.0,0.0,0.0,0.0,0.0,0.0,0.0,0.0,0.0,0.0,0.0,0.0,0.0,0.0,0.0,0.0,0.0,0.0,0.0,0.0,0.0,0.0,2.7307,2.8681,3.0621,3.226,3.1543,0.0,0.0,3.1965,3.1877,3.1931,3.1323,3.0795,3.0127,2.9202,0.0,0.0,2.6947,2.68,2.7014,2.7522,2.823,2.9245,3.0802,3.169,3.2452,3.3334,3.4189,3.4815,0.0,0.0,0.0,0.0,0.0,0.0,0.0,0.0,0.0,0.0,3.8718,3.8718,3.8718,3.8691,3.8397,3.7809,3.7782,3.7489,3.6885,3.6885,3.6885,3.6874,3.6326,3.6059,3.6006,0.0,0.0,0.0,3.5191,3.4874,3.4398,3.4372,3.3874,3.3171,3.2929,3.2584,3.2303,0.0,0.0,0.0,0.0,0.0,0.0,0.0,0.0,0.0,0.0,0.0,0.0,0.0,0.0,0.0,0.0,0.0,0.0,0.0,0.0,0.0,0.0,0.0,0.0,0.0,0.0,0.0,0.0,0.0,0.0,0.0,0.0,0.0,0.0,0.0,0.0,0.0,0.0,0.0,0.0,0.0,0.0,0.0,0.0,0.0,0.0,0.0,0.0,0.0,0.0,0.0,0.0,2.7428,2.9179,0.0,0.0,3.1436,3.1623,3.145,3.1356,3.1209,3.0808,3.0261,2.97,2.9121,0.0,2.7415,2.7362,2.6934,2.6747,2.7335,2.7776,2.8404,2.9472,2.9993,3.0688,3.1917,3.2559,3.3293,0.0,0.0,0.0,0.0,0.0,0.0,0.0,0.0,0.0,0.0,3.8718,3.8718,3.8718,3.8718,3.8504,3.8076,3.7889,3.7595,3.7195,3.7008,3.6885,3.6885,3.6513,3.607,0.0,0.0,0.0,0.0,3.4293,3.424,3.4293,3.3922,3.3544,3.3078,3.2964,3.262,3.2162,0.0,0.0,0.0,0.0,0.0,0.0,0.0,0.0,0.0,0.0,0.0,0.0,0.0,0.0,0.0,0.0,0.0,0.0,0.0,0.0,0.0,0.0,0.0,0.0,0.0,0.0,0.0,0.0,0.0,0.0,0.0,0.0,0.0,0.0,0.0,0.0,0.0,0.0,0.0,0.0,0.0,0.0,0.0,0.0,0.0,0.0,0.0,0.0,0.0,0.0,0.0,0.0,2.6333,2.7535,2.9366,0.0,3.0675,3.0822,3.0942,3.0822,3.0595,3.0301,2.9847,2.9379,0.0,0.0,2.7603,2.7669,2.7134,2.68,2.7349,2.7562,2.7896,2.8511,2.8925,2.9593,3.0795,3.137,3.2198,0.0,0.0,0.0,0.0,0.0,0.0,0.0,0.0,0.0,0.0,3.8499,3.8499,3.866,3.8718,3.8584,3.8321,3.7969,3.7606,3.7101,3.681,3.654,3.6387,3.6126,3.5698,0.0,0.0,0.0,0.0,3.371,3.3604,3.3763,3.3392,3.3013,3.2732,3.2644,3.2303,3.194,0.0,0.0,0.0,0.0,0.0,0.0,0.0,0.0,0.0,0.0,0.0,0.0,0.0,0.0,0.0,0.0,0.0,0.0,0.0,0.0,0.0,0.0,0.0,0.0,0.0,0.0,0.0,0.0,0.0,0.0,0.0,0.0,0.0,0.0,0.0,0.0,0.0,0.0,0.0,0.0,0.0,0.0,0.0,0.0,0.0,0.0,0.0,0.0,0.0,0.0,0.0,0.0,0.0,2.5945,2.6774,2.8508,2.9887,3.0728,3.0493,3.0413,3.0333,2.9993,2.97,2.9325,0.0,0.0,2.8098,2.7762,2.7468,2.7389,2.7642,2.7696,2.7896,2.8511,2.9098,2.9686,3.0333,3.1162,3.1938,0.0,0.0,0.0,0.0,0.0,0.0,0.0,0.0,0.0,0.0,0.0,3.8079,3.866,3.8718,3.8584,3.8321,3.7969,3.738,3.654,3.6253,3.5776,3.522,3.4884,0.0,0.0,0.0,0.0,0.0,3.371,3.3126,3.2594,3.2594,3.2275,3.1771,3.1546,3.1437,3.13,0.0,0.0,0.0,0.0,0.0,0.0,0.0,0.0,0.0,0.0,0.0,0.0,0.0,0.0,0.0,0.0,0.0,0.0,0.0,0.0,0.0,0.0,0.0,0.0,0.0,0.0,0.0,0.0,0.0,0.0,0.0,0.0,0.0,0.0,0.0,0.0,0.0,0.0,0.0,0.0,0.0,0.0,0.0,0.0,0.0,0.0,0.0,0.0,0.0,0.0,0.0,0.0,0.0,0.0,0.0,2.6814,2.7951,0.0,2.9125,2.9459,2.9646,2.9152,2.8951,2.8778,2.8419,0.0,2.7563,2.7456,2.7055,2.6854,2.7308,2.7443,2.7669,2.847,2.8925,2.9459,0.0,0.0,0.0,0.0,0.0,0.0,0.0,0.0,0.0,0.0,0.0,0.0,0.0,0.0,3.7917,3.8079,3.7645,3.7283,3.6999,3.6728,3.6317,3.5852,3.5626,3.5374,3.522,3.5118,0.0,0.0,0.0,0.0,0.0,3.2553,3.2447,3.2541,3.218,3.1967,3.1795,3.171,3.1553,3.136,0.0,0.0,0.0,0.0,0.0,0.0,0.0,0.0,0.0,0.0,0.0,0.0,0.0,0.0,0.0,0.0,0.0,0.0,0.0,0.0,0.0,0.0,0.0,0.0,0.0,0.0,0.0,0.0,0.0,0.0,0.0,0.0,0.0,0.0,0.0,0.0,0.0,0.0,0.0,0.0,0.0,0.0,0.0,0.0,0.0,0.0,0.0,0.0,0.0,0.0,0.0,0.0,0.0,0.0,0.0,0.0,2.664,0.0,0.0,2.8524,2.8928,2.8524,2.843,0.0,0.0,2.7737,2.7443,2.7322,2.7015,2.6907,2.7335,2.7469,2.7655,2.8323,2.8871,2.9513,0.0,0.0,0.0,0.0,0.0,0.0,0.0,0.0,0.0,0.0,0.0,0.0,0.0,0.0,3.7076,3.7076,3.6914,3.6644,3.6423,3.6156,3.575,3.5289,3.5011,3.473,3.4538,0.0,0.0,0.0,0.0,0.0,0.0,3.202,3.202,3.2287,3.1914,3.1807,3.1807,3.1807,3.1698,3.1529,0.0,0.0,0.0,0.0,0.0,0.0,0.0,0.0,0.0,0.0,0.0,0.0,0.0,0.0,0.0,0.0,0.0,0.0,0.0,0.0,0.0,0.0,0.0,0.0,0.0,0.0,0.0,0.0,2.1346,2.257,2.3259,0.0,0.0,0.0,0.0,0.0,0.0,0.0,0.0,0.0,0.0,0.0,0.0,0.0,0.0,0.0,0.0,0.0,0.0,0.0,0.0,0.0,0.0,0.0,0.0,0.0,0.0,0.0,0.0,0.0,0.0,0.0,0.0,0.0,0.0,2.7642,0.0,2.7309,2.7255,2.7362,2.7615,2.7669,2.7789,2.8192,2.8955,0.0,0.0,3.2158,0.0,0.0,0.0,0.0,0.0,0.0,0.0,0.0,0.0,0.0,0.0,0.0,0.0,3.5836,3.6363,3.6516,3.6237,3.6029,3.5465,3.4631,3.4339,3.3924,3.3376,0.0,0.0,0.0,0.0,0.0,0.0,3.202,3.1807,3.1807,3.1807,3.1807,3.1807,3.1807,3.1807,3.1771,0.0,0.0,0.0,0.0,0.0,0.0,0.0,0.0,0.0,0.0,0.0,0.0,0.0,0.0,0.0,0.0,0.0,0.0,0.0,0.0,0.0,0.0,0.0,0.0,0.0,0.0,0.0,2.0698,2.1969,2.3044,2.3957,2.3668,0.0,0.0,0.0,0.0,0.0,0.0,0.0,0.0,0.0,0.0,0.0,0.0,0.0,0.0,0.0,0.0,0.0,0.0,0.0,0.0,0.0,0.0,0.0,0.0,0.0,0.0,0.0,0.0,0.0,0.0,0.0,0.0,0.0,2.7028,2.6947,2.6653,2.6774,2.7014,2.7349,2.7403,2.7696,2.8671,2.8961,0.0,0.0,0.0,0.0,0.0,0.0,0.0,0.0,0.0,0.0,0.0,0.0,0.0,0.0,0.0,0.0,3.5251,3.5322,3.5219,3.4696,3.4623,3.433,3.3685,3.3625,3.3556,3.3376,0.0,0.0,0.0,0.0,0.0,3.1967,3.186,3.1807,3.1807,3.1807,3.1807,3.1807,3.1807,3.1807,3.1795,0.0,0.0,0.0,0.0,0.0,0.0,0.0,0.0,0.0,0.0,0.0,0.0,0.0,0.0,0.0,0.0,0.0,0.0,0.0,0.0,0.0,0.0,0.0,0.0,0.0,0.0,0.0,0.0,0.0,2.3334,0.0,0.0,0.0,0.0,0.0,0.0,0.0,0.0,0.0,0.0,0.0,0.0,0.0,0.0,0.0,0.0,0.0,0.0,0.0,2.6091,2.5959,2.5665,0.0,0.0,0.0,0.0,0.0,0.0,0.0,0.0,0.0,0.0,2.6934,2.7229,2.6894,2.672,2.6587,2.6426,2.652,2.676,2.7229,2.7416,2.7762,2.8655,2.9362,0.0,0.0,0.0,0.0,0.0,0.0,0.0,0.0,0.0,0.0,0.0,0.0,0.0,0.0,0.0,0.0,0.0,3.4895,3.4607,3.4185,3.4185,3.3919,3.3376,3.3376,3.3376,3.3376,0.0,0.0,0.0,0.0,0.0,3.1807,3.1807,3.1807,3.1807,3.1807,3.1807,3.1807,3.1807,3.1807,3.1807,0.0,0.0,0.0,0.0,0.0,0.0,0.0,0.0,0.0,0.0,0.0,0.0,0.0,0.0,0.0,0.0,0.0,0.0,0.0,0.0,0.0,0.0,0.0,0.0,0.0,0.0,0.0,0.0,0.0,0.0,0.0,0.0,0.0,0.0,0.0,0.0,0.0,0.0,0.0,0.0,0.0,0.0,0.0,0.0,0.0,0.0,0.0,0.0,0.0,2.6319,2.6238,2.5957,2.5665,0.0,0.0,0.0,0.0,0.0,0.0,2.648,2.6854,2.672,2.6947,2.7121,2.6827,2.66,2.644,2.64,2.6493,2.676,2.7336,2.7669,0.0,0.0,0.0,0.0,0.0,0.0,0.0,0.0,0.0,0.0,0.0,0.0,0.0,0.0,0.0,0.0,0.0,0.0,0.0,0.0,3.4284,3.3894,3.3609,3.3953,3.3916,3.3376,3.322,3.3152,3.3096,3.2904,0.0,0.0,0.0,0.0,3.154,3.154,3.1647,3.1807,3.1807,3.1807,3.1807,3.1807,3.1807,3.1754,0.0,0.0,0.0,0.0,0.0,0.0,0.0,0.0,0.0,0.0,0.0,0.0,0.0,0.0,0.0,0.0,0.0,0.0,0.0,0.0,0.0,0.0,0.0,0.0,0.0,0.0,0.0,0.0,0.0,0.0,2.5192,2.4713,2.4111,0.0,0.0,0.0,0.0,0.0,0.0,0.0,0.0,0.0,0.0,0.0,0.0,0.0,0.0,0.0,0.0,2.6453,2.6238,2.5984,2.5944,0.0,0.0,0.0,0.0,0.0,2.6453,2.6934,2.7068,2.6319,2.6493,2.6814,2.652,2.6613,2.668,2.644,2.6987,2.7602,2.7991,2.8457,2.9192,0.0,0.0,0.0,0.0,0.0,0.0,0.0,0.0,0.0,0.0,0.0,0.0,0.0,0.0,0.0,0.0,0.0,0.0,0.0,0.0,3.1262,3.0789,3.2823,3.369,3.3376,3.2354,3.186,3.186,3.0845,3.0118,0.0,0.0,2.9917,3.0381,3.0381,3.0928,3.1807,3.1807,3.1807,3.1807,3.1807,3.1807,3.1647,0.0,0.0,0.0,0.0,0.0,0.0,0.0,0.0,0.0,0.0,0.0,0.0,0.0,0.0,0.0,0.0,0.0,0.0,0.0,0.0,0.0,0.0,0.0,0.0,0.0,0.0,0.0,0.0,0.0,2.6202,2.6598,2.5686,2.4817,2.3896,0.0,0.0,0.0,0.0,0.0,0.0,0.0,0.0,0.0,0.0,0.0,0.0,0.0,0.0,0.0,0.0,2.6346,2.6198,2.6051,0.0,0.0,0.0,0.0,0.0,2.6109,2.6533,2.6854,2.6881,2.7184,2.7199,2.6507,2.6542,2.6794,2.691,2.7241,2.7743,2.8363,0.0,3.006,3.1704,0.0,0.0,0.0,0.0,0.0,0.0,0.0,0.0,0.0,0.0,0.0,0.0,0.0,0.0,0.0,0.0,0.0,0.0,0.0,0.0,3.0173,3.1148,3.1579,3.1454,3.0902,3.063,3.063,3.0043,2.9569,0.0,0.0,2.912,2.9135,2.9135,2.9415,2.991,2.991,2.991,2.991,2.991,2.991,2.9845,0.0,0.0,0.0,0.0,0.0,0.0,0.0,0.0,0.0,0.0,0.0,0.0,0.0,0.0,0.0,0.0,0.0,0.0,0.0,0.0,0.0,0.0,0.0,0.0,0.0,0.0,2.528,2.6026,2.7134,2.7679,2.759,2.6262,2.5244,0.0,0.0,0.0,0.0,0.0,0.0,0.0,0.0,0.0,0.0,0.0,0.0,0.0,0.0,0.0,0.0,0.0,0.0,0.0,0.0,0.0,0.0,2.5544,2.5581,2.5761,2.5951,2.6188,2.6613,2.7357,2.7654,2.7634,2.7255,2.7145,2.7354,2.8034,2.8178,2.8351,0.0,2.9741,0.0,3.2547,0.0,0.0,0.0,0.0,0.0,0.0,0.0,0.0,0.0,0.0,0.0,0.0,0.0,0.0,0.0,0.0,0.0,0.0,0.0,0.0,2.9239,2.9051,2.9215,2.9828,2.9488,2.9364,2.9364,2.908,2.8715,2.8265,2.8265,2.8112,2.7897,2.7897,2.8059,2.8274,2.8274,2.8274,2.8274,2.8274,2.8274,2.8274,0.0,0.0,0.0,0.0,0.0,0.0,0.0,0.0,0.0,0.0,0.0,0.0,0.0,0.0,0.0,0.0,0.0,0.0,0.0,0.0,0.0,0.0,0.0,0.0,0.0,2.5594,2.6569,2.7535,2.8414,2.8346,2.7298,2.5847,2.4964,2.4582,0.0,0.0,0.0,0.0,0.0,0.0,0.0,0.0,0.0,0.0,0.0,0.0,0.0,0.0,0.0,0.0,0.0,0.0,0.0,0.0,2.6281,2.5872,2.603,2.6374,2.65,2.6576,2.6654,2.6965,2.7205,2.7734,2.9304,2.9034,2.8851,3.0252,0.0,0.0,0.0,3.0851,3.1796,0.0,0.0,0.0,0.0,0.0,0.0,0.0,0.0,0.0,0.0,0.0,0.0,0.0,0.0,0.0,0.0,0.0,0.0,0.0,0.0,0.0,2.6377,2.6377,2.7546,2.9771,2.8626,2.8068,2.8011,2.6872,2.612,2.5775,2.5775,2.6143,2.6718,2.6718,2.7357,2.8274,2.8274,2.8274,2.8274,2.8274,2.8274,2.8166,0.0,0.0,0.0,0.0,0.0,0.0,0.0,0.0,0.0,0.0,0.0,0.0,0.0,0.0,0.0,0.0,0.0,0.0,0.0,0.0,0.0,0.0,0.0,2.363,2.4423,2.5972,2.7114,2.7797,2.8483,2.8273,2.722,2.6349,0.0,0.0,0.0,0.0,0.0,0.0,0.0,0.0,0.0,0.0,0.0,0.0,0.0,0.0,0.0,0.0,0.0,0.0,2.6294,2.5906,2.6174,2.5976,2.5566,2.5333,2.5617,2.599,2.5952,2.647,2.7182,2.7844,2.7838,2.7853,2.8611,2.8756,2.9136,3.0376,3.0921,0.0,0.0,0.0,0.0,0.0,0.0,0.0,0.0,0.0,0.0,0.0,0.0,0.0,0.0,0.0,0.0,0.0,0.0,0.0,0.0,0.0,0.0,0.0,0.0,0.0,0.0,2.6129,2.6586,2.7489,2.6996,2.6805,2.6748,2.6158,2.578,2.5506,2.5383,2.5422,2.5535,2.5535,2.5796,2.6176,2.6176,2.6176,2.6176,2.6176,2.6176,2.6122,0.0,0.0,0.0,0.0,0.0,0.0,0.0,0.0,0.0,0.0,0.0,0.0,0.0,0.0,0.0,0.0,0.0,0.0,0.0,0.0,0.0,0.0,0.0,2.3407,2.4076,2.5773,2.7053,2.7826,2.827,2.8018,2.705,0.0,0.0,0.0,0.0,0.0,0.0,0.0,0.0,0.0,0.0,0.0,0.0,0.0,0.0,0.0,0.0,0.0,0.0,0.0,2.6326,2.588,2.607,2.5675,2.5175,2.496,2.5225,2.5539,2.5352,2.5856,2.663,2.7633,2.7775,2.7849,2.8456,2.8896,2.9656,3.1384,3.1907,3.2175,0.0,0.0,0.0,0.0,0.0,0.0,0.0,0.0,0.0,0.0,0.0,0.0,0.0,0.0,0.0,0.0,0.0,0.0,0.0,0.0,0.0,0.0,0.0,0.0,0.0,2.6129,2.6129,2.6129,2.6054,2.6025,2.6025,2.5846,2.5676,2.5402,2.526,2.508,2.4882,2.4882,2.4882,2.4882,2.4882,2.4882,2.4882,2.4882,2.4882,2.4882,0.0,0.0,0.0,0.0,0.0,0.0,0.0,0.0,0.0,0.0,0.0,0.0,0.0,0.0,0.0,0.0,0.0,0.0,0.0,0.0,0.0,0.0,0.0,2.3324,2.3776,2.5077,2.6419,2.7679,2.7959,2.7622,2.6758,2.6395,0.0,0.0,0.0,0.0,0.0,0.0,0.0,0.0,0.0,0.0,0.0,0.0,0.0,0.0,0.0,0.0,0.0,0.0,2.6585,2.6462,2.5997,2.5684,2.5387,2.4982,2.4997,2.5086,2.4948,2.4703,2.4783,2.6007,2.6796,2.773,2.9292,2.97,3.0614,3.3745,3.3882,3.3409,3.3354,0.0,0.0,0.0,0.0,0.0,0.0,0.0,0.0,0.0,0.0,0.0,0.0,0.0,0.0,0.0,0.0,0.0,0.0,0.0,0.0,0.0,0.0,0.0,0.0,2.6129,2.6129,2.6072,2.5931,2.577,2.577,2.577,2.56,2.5203,2.5203,2.508,2.4882,2.4882,2.4882,2.4882,2.4882,2.4882,2.4882,2.4882,2.4882,2.4882,0.0,0.0,0.0,0.0,0.0,0.0,0.0,0.0,0.0,0.0,0.0,0.0,0.0,0.0,0.0,0.0,0.0,0.0,0.0,0.0,0.0,0.0,0.0,0.0,0.0,0.0,2.4899,2.692,2.6965,2.6566,0.0,0.0,0.0,2.5453,0.0,0.0,0.0,0.0,0.0,0.0,0.0,0.0,0.0,0.0,0.0,0.0,0.0,0.0,0.0,0.0,0.0,0.0,2.3813,2.4018,2.4187,2.3862,2.4456,2.52,2.4966,2.5001,2.521,2.5859,2.6251,2.6759,2.7912,2.9656,3.141,3.2519,3.1574,3.0639,0.0,0.0,0.0,0.0,0.0,0.0,0.0,0.0,0.0,0.0,0.0,0.0,0.0,0.0,0.0,0.0,0.0,0.0,0.0,0.0,0.0,0.0,0.0,0.0,0.0,0.0,2.6054,2.5874,2.5855,2.577,2.577,2.5534,2.5326,2.5203,2.5062,2.4939,2.4882,2.4882,2.4882,2.4882,2.4882,2.4882,2.4882,2.4882,2.4882,2.4882,0.0,0.0,0.0,0.0,0.0,0.0,0.0,0.0,0.0,0.0,0.0,0.0,0.0,0.0,0.0,0.0,0.0,0.0,0.0,0.0,0.0,0.0,0.0,0.0,0.0,2.3141,2.4134,0.0,0.0,0.0,0.0,0.0,0.0,2.6307,0.0,2.7442,0.0,0.0,0.0,0.0,0.0,0.0,0.0,0.0,0.0,0.0,0.0,0.0,0.0,0.0,0.0,0.0,2.2972,2.3002,2.3114,2.2958,2.3351,2.3845,2.3956,2.4051,2.4281,2.5056,2.5769,2.6604,2.8041,2.9725,0.0,0.0,3.0632,3.0045,0.0,0.0,0.0,0.0,0.0,0.0,0.0,0.0,0.0,0.0,0.0,0.0,0.0,0.0,0.0,0.0,0.0,0.0,0.0,0.0,0.0,0.0,0.0,0.0,0.0,0.0,0.0,2.577,2.5657,2.5581,2.5525,2.5326,2.5156,2.508,2.4929,2.4882,2.4882,2.4882,2.4882,2.4882,2.4882,2.4882,2.4882,2.4882,2.4882,2.4882,0.0,0.0,0.0,0.0,0.0,0.0,0.0,0.0,0.0,0.0,0.0,0.0,0.0,0.0,0.0,0.0,0.0,0.0,0.0,0.0,0.0,0.0,0.0,0.0,0.0,0.0,0.0,0.0,0.0,0.0,0.0,0.0,2.6887,2.7639,0.0,2.8575,0.0,0.0,0.0,0.0,0.0,0.0,0.0,0.0,0.0,0.0,0.0,0.0,0.0,0.0,0.0,0.0,2.2945,2.2439,2.2246,2.2182,2.1967,2.1848,2.2471,2.2439,2.2566,2.3935,2.5299,2.6827,2.8907,2.9482,2.9642,2.9872,0.0,0.0,0.0,0.0,0.0,0.0,0.0,0.0,0.0,0.0,0.0,0.0,0.0,0.0,0.0,0.0,0.0,0.0,0.0,0.0,0.0,0.0,0.0,0.0,0.0,0.0,0.0,0.0,0.0,0.0,2.5402,2.5203,2.5184,2.5184,2.5062,2.4882,2.4882,2.4882,2.4882,2.4882,2.4882,2.4882,2.4882,2.4882,2.4882,2.4882,2.4882,2.4882,0.0,0.0,0.0,0.0,0.0,0.0,0.0,0.0,0.0,0.0,0.0,0.0,0.0,0.0,0.0,0.0,0.0,0.0,0.0,0.0,0.0,0.0,0.0,0.0,0.0,0.0,0.0,0.0,0.0,0.0,0.0,0.0,0.0,2.7111,0.0,2.8469,0.0,0.0,0.0,0.0,0.0,0.0,0.0,0.0,0.0,0.0,0.0,0.0,0.0,0.0,0.0,0.0,2.1526,2.181,2.1944,2.1368,2.1903,2.2751,2.2962,2.2712,2.2734,2.3979,2.4889,2.5735,2.6668,2.7044,2.7429,2.8488,2.828,0.0,0.0,0.0,0.0,0.0,0.0,0.0,0.0,0.0,0.0,0.0,0.0,0.0,0.0,0.0,0.0,0.0,0.0,0.0,0.0,0.0,0.0,0.0,0.0,0.0,2.6129,2.5931,2.5695,0.0,2.5336,2.5109,2.4958,2.4958,2.4929,2.4882,2.4882,2.4882,2.4882,2.4882,2.4882,2.4882,2.4882,2.4882,2.4882,2.4882,2.4882,2.4882,0.0,0.0,0.0,0.0,0.0,0.0,0.0,0.0,0.0,0.0,0.0,0.0,0.0,0.0,0.0,0.0,0.0,0.0,0.0,0.0,0.0,0.0,0.0,0.0,0.0,0.0,0.0,0.0,0.0,0.0,0.0,0.0,0.0,2.764,0.0,2.8723,0.0,0.0,0.0,0.0,0.0,0.0,0.0,0.0,0.0,0.0,0.0,0.0,0.0,0.0,0.0,0.0,0.0,0.0,2.1487,2.0659,2.0935,2.1609,2.191,2.1987,2.2409,2.4015,2.4816,2.5354,2.5978,2.6375,2.6767,2.7454,0.0,0.0,0.0,0.0,0.0,0.0,0.0,0.0,0.0,0.0,0.0,0.0,0.0,0.0,0.0,0.0,0.0,0.0,0.0,0.0,0.0,0.0,0.0,0.0,0.0,0.0,2.5978,2.578,2.5581,2.5354,2.5156,2.4986,2.4882,2.4882,2.4882,2.4882,2.4882,2.4882,2.4882,2.4882,2.4882,2.4882,2.4882,2.4882,2.4882,2.4882,2.4882,2.4882,0.0,0.0,0.0,0.0,0.0,0.0,0.0,0.0,0.0,0.0,0.0,0.0,0.0,0.0,0.0,0.0,0.0,0.0,0.0,0.0,0.0,0.0,0.0,0.0,0.0,0.0,0.0,0.0,0.0,0.0,0.0,0.0,0.0,2.7833,0.0,0.0,0.0,0.0,0.0,0.0,0.0,0.0,0.0,0.0,0.0,0.0,0.0,0.0,0.0,0.0,0.0,0.0,0.0,0.0,2.1309,2.0409,2.0099,2.0166,2.0735,2.1385,2.2274,2.4079,2.4873,2.5354,2.5893,2.6432,2.6812,2.6812,0.0,0.0,0.0,0.0,0.0,0.0,0.0,0.0,0.0,0.0,0.0,0.0,0.0,0.0,0.0,0.0,0.0,0.0,0.0,0.0,0.0,0.0,0.0,0.0,0.0,2.595,2.577,2.5581,2.5383,2.5203,2.4986,2.4882,2.4882,2.4882,2.4882,2.4882,2.4882,2.4882,2.4882,2.4882,2.4882,2.4882,2.4882,2.4882,2.4882,2.4882,2.4882,2.4882,0.0,0.0,0.0,0.0,0.0,0.0,0.0,0.0,0.0,0.0,0.0,0.0,0.0,0.0,0.0,0.0,0.0,0.0,0.0,0.0,0.0,0.0,0.0,0.0,0.0,0.0,0.0,0.0,0.0,0.0,0.0,0.0,0.0,2.552,0.0,0.0,0.0,0.0,0.0,0.0,0.0,0.0,0.0,0.0,0.0,0.0,0.0,0.0,0.0,0.0,0.0,0.0,0.0,0.0,0.0,2.1309,2.0793,2.0547,2.1215,2.234,2.3502,2.4145,2.4759,2.5326,2.5723,2.6328,2.6812,0.0,0.0,0.0,0.0,0.0,0.0,0.0,0.0,0.0,0.0,0.0,0.0,0.0,0.0,0.0,0.0,0.0,0.0,0.0,0.0,0.0,0.0,0.0,2.6129,2.6129,2.595,0.0,2.577,2.543,2.5232,2.5203,2.4986,2.4882,2.4882,2.4882,2.4882,2.4882,2.4882,2.4882,2.4882,2.4882,2.4882,2.4882,2.4882,2.4882,2.4882,2.4882,2.4882,2.4882,0.0,0.0,0.0,0.0,0.0,0.0,0.0,0.0,0.0,0.0,0.0,0.0,0.0,0.0,0.0,0.0,0.0,0.0,0.0,0.0,0.0,0.0,0.0,0.0,0.0,0.0,0.0,0.0,0.0,0.0,0.0,2.3473,2.4059,0.0,0.0,0.0,0.0,0.0,0.0,0.0,0.0,0.0,0.0,0.0,0.0,0.0,0.0,0.0,0.0,0.0,0.0,0.0,0.0,0.0,0.0,0.0,2.1346,2.1042,2.142,2.2359,2.3417,2.4008,2.4655,2.5279,2.5581,2.6129,2.663,0.0,0.0,0.0,0.0,0.0,0.0,0.0,0.0,0.0,0.0,0.0,0.0,0.0,0.0,0.0,0.0,0.0,0.0,0.0,0.0,0.0,2.6129,2.6129,2.6082,2.595,2.5818,0.0,2.5477,2.5307,2.5156,2.5033,2.4929,2.4882,2.4882,2.4882,2.4882,2.4882,2.4882,2.4882,2.4882,2.4882,2.4882,2.4882,2.4882,2.4882,2.4882,2.4882,2.4882,2.4882,0.0,0.0,0.0,0.0,0.0,0.0,0.0,0.0,0.0,0.0,0.0,0.0,0.0,0.0,0.0,0.0,0.0,0.0,0.0,0.0,0.0,0.0,0.0,0.0,0.0,0.0,0.0,0.0,0.0,0.0,2.2428,2.2996,2.3486,0.0,2.3206,0.0,0.0,0.0,0.0,0.0,0.0,0.0,0.0,0.0,0.0,0.0,0.0,0.0,0.0,0.0,0.0,0.0,0.0,0.0,0.0,0.0,0.0,2.0998,2.1239,2.1952,2.2812,2.3606,2.4428,2.5128,2.543,0.0,2.6498,0.0,0.0,0.0,0.0,0.0,0.0,0.0,0.0,0.0,0.0,0.0,0.0,0.0,0.0,0.0,0.0,0.0,0.0,0.0,0.0,0.0,2.6129,2.6082,2.5978,2.577,2.5676,2.5469,2.5203,2.5156,2.5033,2.4882,2.4882,2.4882,2.4882,2.4882,2.4882,2.4882,2.4882,2.4882,2.4882,2.4882,2.4882,2.4882,2.4882,2.4882,2.4882,2.4882,2.4882,2.4882,0.0,0.0,0.0,0.0,0.0,0.0,0.0,0.0,0.0,0.0,0.0,0.0,0.0,0.0,0.0,0.0,0.0,0.0,0.0,0.0,0.0,0.0,0.0,0.0,0.0,0.0,0.0,0.0,0.0,0.0,2.3066,2.386,2.3611,2.245,2.1239,2.1801,2.3576,0.0,0.0,0.0,0.0,0.0,0.0,0.0,0.0,0.0,0.0,0.0,0.0,0.0,0.0,0.0,0.0,0.0,0.0,0.0,0.0,0.0,2.0705,2.1206,2.1839,2.3068,2.3994,2.4778,2.5383,0.0,0.0,0.0,0.0,0.0,0.0,0.0,0.0,0.0,0.0,0.0,0.0,0.0,0.0,0.0,0.0,0.0,0.0,0.0,0.0,0.0,0.0,0.0,2.6129,2.5893,2.5827,2.577,2.5458,2.5232,2.5203,2.5005,2.4891,2.4882,2.4882,2.4882,2.4882,2.4882,2.4882,2.4882,2.4882,2.4882,2.4882,2.4882,2.4882,2.4882,2.4882,2.4882,2.4882,2.4882,2.4882,2.4882,0.0,0.0,0.0,0.0,0.0,0.0,0.0,0.0,0.0,0.0,0.0,0.0,0.0,2.509,2.517,0.0,0.0,0.0,0.0,0.0,0.0,0.0,0.0,0.0,0.0,0.0,2.3523,2.4053,2.4511,2.446,2.3963,2.4028,2.3557,2.2677,2.1475,2.1346,2.2007,2.1072,0.0,0.0,0.0,0.0,0.0,0.0,0.0,0.0,0.0,0.0,0.0,0.0,0.0,0.0,0.0,0.0,0.0,0.0,2.0641,2.0157,2.0384,2.0941,2.1688,2.2359,2.337,2.433,2.4627,2.5506,0.0,0.0,0.0,0.0,0.0,0.0,0.0,0.0,0.0,0.0,0.0,0.0,0.0,0.0,0.0,0.0,0.0,0.0,0.0,0.0,0.0,0.0,2.5931,2.5732,2.5553,2.543,2.5279,2.5137,2.5005,2.492,2.4882,2.4882,2.4882,2.4882,2.4882,2.475,2.4693,2.4684,2.4542,2.4636,2.4882,2.4882,2.4882,2.4882,2.4882,2.4882,2.4882,2.4882,2.4882,2.4882,0.0,0.0,0.0,0.0,0.0,0.0,0.0,0.0,0.0,0.0,0.0,0.0,0.0,0.0,2.5438,0.0,0.0,0.0,0.0,0.0,0.0,0.0,0.0,0.0,0.0,2.3414,2.3631,2.4065,2.4511,2.4625,2.431,2.4395,2.4209,2.3811,2.2532,2.1779,0.0,0.0,0.0,2.2511,0.0,0.0,2.2966,0.0,0.0,0.0,0.0,0.0,0.0,0.0,0.0,0.0,0.0,0.0,0.0,0.0,0.0,0.0,2.01,2.0573,2.1253,2.2094,2.2879,2.3644,2.4409,0.0,0.0,0.0,0.0,0.0,0.0,0.0,0.0,0.0,0.0,0.0,0.0,0.0,0.0,0.0,0.0,0.0,0.0,0.0,0.0,0.0,0.0,0.0,2.5676,2.5534,2.5307,2.5109,2.5109,2.5033,2.4882,2.4882,2.4882,2.4882,2.4882,2.4882,2.4873,2.4674,2.4589,2.457,2.4406,2.4472,2.4674,2.4674,2.4674,2.4674,2.4674,2.4674,2.4674,2.4674,2.4674,2.4684,0.0,0.0,0.0,0.0,0.0,0.0,0.0,0.0,0.0,0.0,0.0,0.0,0.0,0.0,0.0,0.0,0.0,0.0,0.0,0.0,0.0,0.0,0.0,0.0,0.0,2.3427,2.3559,2.3812,2.4607,2.4748,2.4266,0.0,2.5497,2.5626,2.4242,2.2979,2.1811,0.0,2.1445,2.2286,0.0,2.0428,2.1632,0.0,0.0,0.0,2.3978,2.4608,0.0,0.0,0.0,0.0,0.0,0.0,0.0,0.0,0.0,0.0,0.0,0.0,0.0,2.2236,0.0,0.0,2.4693,0.0,0.0,0.0,0.0,0.0,0.0,0.0,0.0,0.0,0.0,0.0,0.0,0.0,0.0,0.0,0.0,0.0,0.0,0.0,0.0,0.0,0.0,2.5506,2.5506,2.5307,2.5109,2.4891,2.4882,2.4882,2.4882,2.4882,2.4882,2.4882,2.4882,2.4882,2.4873,2.4665,2.457,2.4551,2.4387,2.4302,2.4302,2.4311,2.4311,2.4311,2.4311,2.4311,2.4311,2.4311,2.4311,2.4349,0.0,0.0,0.0,0.0,0.0,0.0,0.0,0.0,0.0,0.0,0.0,0.0,2.6106,2.6333,2.6387,0.0,0.0,0.0,0.0,0.0,0.0,0.0,0.0,0.0,2.3692,2.3692,2.3824,2.4089,2.4499,2.4855,2.5082,0.0,0.0,0.0,2.4398,2.3736,2.3487,2.1858,0.0,0.0,2.0577,2.0918,0.0,0.0,0.0,0.0,0.0,2.3009,0.0,0.0,2.3931,2.3753,0.0,0.0,0.0,0.0,0.0,0.0,1.9858,0.0,0.0,0.0,0.0,0.0,0.0,0.0,0.0,0.0,0.0,0.0,0.0,0.0,0.0,0.0,0.0,0.0,0.0,0.0,0.0,0.0,0.0,0.0,0.0,0.0,0.0,0.0,2.5383,2.5279,2.5279,2.508,2.4939,2.4882,2.4882,2.4882,2.4882,2.4882,2.4882,2.4882,2.4882,2.4806,2.4655,2.4447,2.4321,2.4179,2.3899,2.3805,2.3833,2.4135,2.4311,2.4311,2.4311,2.4311,2.4311,2.4311,2.4311,2.4268,0.0,0.0,0.0,0.0,0.0,0.0,0.0,0.0,0.0,0.0,0.0,0.0,2.6867,2.7308,0.0,0.0,0.0,0.0,0.0,0.0,0.0,0.0,2.4886,2.443,2.38,2.38,2.3933,2.4198,2.4463,2.4812,2.5246,0.0,0.0,0.0,0.0,0.0,0.0,0.0,0.0,0.0,2.1431,0.0,0.0,2.203,2.2066,0.0,0.0,0.0,2.3101,2.3031,2.2889,0.0,0.0,0.0,0.0,0.0,0.0,0.0,0.0,0.0,0.0,0.0,0.0,0.0,2.199,2.2633,0.0,0.0,0.0,0.0,0.0,0.0,0.0,0.0,0.0,0.0,0.0,0.0,0.0,0.0,0.0,0.0,0.0,0.0,0.0,0.0,2.5137,2.508,2.508,2.4958,2.4882,2.4882,2.4882,2.4882,2.4882,2.4882,2.4882,2.4882,2.4882,2.4778,2.458,2.4149,2.3828,2.358,2.3106,2.291,2.2928,2.2957,2.3373,2.4003,2.3741,2.3688,2.3635,2.3425,2.332,2.3276,0.0,0.0,0.0,0.0,0.0,0.0,0.0,0.0,0.0,0.0,2.6734,2.7321,2.7843,2.8308,0.0,0.0,0.0,0.0,0.0,0.0,0.0,2.5969,2.5687,2.5029,2.3897,2.3921,2.4053,2.4282,2.4547,2.4812,2.5102,0.0,0.0,0.0,0.0,0.0,0.0,0.0,0.0,2.2182,2.2378,2.2346,0.0,0.0,2.3124,0.0,2.3489,2.3361,2.2954,2.233,2.1612,0.0,0.0,0.0,0.0,0.0,2.011,0.0,0.0,0.0,0.0,0.0,0.0,0.0,2.2104,2.2085,2.2132,0.0,0.0,0.0,0.0,0.0,0.0,0.0,0.0,0.0,0.0,0.0,0.0,0.0,0.0,0.0,0.0,0.0,2.4854,2.4854,2.4873,2.4882,2.4882,2.4882,2.4882,2.4882,2.4882,2.4882,2.4882,2.4882,2.4882,2.4773,2.4773,2.466,2.4327,2.365,2.3184,2.2914,2.2264,2.1977,2.1873,2.1301,2.1977,2.3272,2.2755,2.2495,2.2444,2.2029,2.1873,2.1951,0.0,0.0,0.0,0.0,0.0,0.0,0.0,0.0,0.0,0.0,2.8486,2.9005,2.9125,0.0,0.0,0.0,0.0,0.0,0.0,0.0,2.6858,2.5487,2.5371,2.5063,2.448,2.4656,2.4788,2.4849,2.5114,2.5367,2.5632,0.0,0.0,0.0,0.0,0.0,0.0,0.0,0.0,2.1925,2.1604,0.0,2.2605,2.2727,2.2961,2.3291,2.3328,2.3291,2.3121,0.0,2.2113,2.1763,0.0,0.0,0.0,0.0,0.0,0.0,0.0,0.0,0.0,0.0,0.0,0.0,2.0705,2.113,2.1707,0.0,0.0,0.0,0.0,0.0,0.0,0.0,0.0,0.0,0.0,0.0,0.0,0.0,0.0,0.0,0.0,0.0,2.4646,2.4646,2.4787,2.4882,2.4882,2.4882,2.4882,2.4882,2.4882,2.4882,2.4882,2.4882,2.4664,2.4174,2.4174,2.3765,2.2992,2.2841,2.2575,2.2194,2.2046,2.1717,2.1249,2.1145,2.1301,2.1509,2.0989,2.0789,2.0841,2.1145,2.1301,2.131,0.0,0.0,0.0,0.0,0.0,0.0,0.0,0.0,0.0,2.8353,2.9066,2.9502,2.9356,0.0,0.0,0.0,0.0,0.0,0.0,0.0,0.0,2.5198,2.5609,2.5632,2.4993,2.5126,2.527,2.5391,2.5523,2.5728,2.5981,0.0,0.0,0.0,0.0,0.0,0.0,0.0,2.3003,2.1735,2.2319,0.0,2.2746,2.3058,2.3502,2.3946,2.3833,2.3663,2.3366,2.3001,2.2595,0.0,0.0,2.1726,2.1395,0.0,2.0847,2.0809,0.0,0.0,0.0,2.0667,0.0,0.0,0.0,2.0781,2.1064,2.1272,0.0,0.0,0.0,0.0,0.0,0.0,0.0,0.0,0.0,0.0,0.0,0.0,0.0,0.0,0.0,0.0,2.4362,2.457,2.4769,2.4882,2.4882,2.4882,2.4882,2.4882,2.4882,2.4773,2.4446,2.4446,2.4174,2.3574,2.3574,2.3205,2.2557,2.2023,2.1553,2.1101,2.0572,2.0156,1.9843,1.9582,1.9425,1.9477,1.979,1.9895,1.9895,1.9895,1.9843,1.9843,0.0,0.0,0.0,0.0,0.0,0.0,0.0,0.0,2.8775,2.8808,2.9188,2.935,2.8975,0.0,0.0,0.0,0.0,0.0,0.0,0.0,0.0,0.0,2.5643,2.5894,0.0,2.551,2.5728,2.5945,2.5759,2.589,2.6331,0.0,0.0,0.0,0.0,0.0,2.1555,0.0,0.0,2.1688,0.0,2.3345,2.2727,2.3427,2.3994,2.4391,2.4343,2.4079,2.371,2.3375,0.0,2.2652,2.2652,2.2368,0.0,0.0,0.0,0.0,0.0,0.0,0.0,0.0,0.0,2.082,0.0,0.0,0.0,2.066,0.0,0.0,0.0,0.0,0.0,0.0,0.0,0.0,0.0,0.0,0.0,0.0,0.0,0.0,0.0,0.0,2.3984,2.4485,2.4636,2.4759,2.4873,2.4882,2.4828,2.4719,2.4719,2.4446,2.3837,2.3837,2.351,2.2964,2.2964,2.2663,2.2077,2.1177,2.0449,1.9903,1.9007,1.8536,1.8432,1.7968,1.7758,1.7758,1.8641,1.9007,1.8955,1.8589,1.8432,1.8484,2.4599,2.4599,0.0,0.0,0.0,0.0,0.0,0.0,2.9433,2.9468,2.9191,2.874,0.0,0.0,0.0,0.0,0.0,0.0,2.4638,0.0,0.0,0.0,0.0,0.0,2.4891,2.5932,2.6475,2.6499,2.5696,2.5825,2.6885,0.0,0.0,0.0,2.471,0.0,0.0,0.0,2.2244,0.0,2.2931,2.3007,0.0,2.3592,2.3852,2.3814,2.4353,2.4391,2.4107,0.0,2.3357,2.3319,0.0,2.2633,0.0,0.0,0.0,0.0,0.0,0.0,0.0,0.0,2.1678,0.0,0.0,0.0,2.066,2.0365,0.0,0.0,0.0,0.0,0.0,0.0,0.0,0.0,0.0,0.0,0.0,0.0,0.0,0.0,0.0,0.0,0.0,2.4292,2.4207,2.4359,2.4854,2.4882,2.4664,2.4119,2.4119,2.3837,2.3191,2.3191,2.29,2.2371,2.2371,2.1632,2.0267,2.016,1.96,1.8798,1.8641,1.8327,1.7915,1.7811,1.7496,1.7083,1.7241,1.7293,1.7346,1.7758,1.7915,1.7968,2.4602,2.4599,0.0,0.0,0.0,0.0,0.0,0.0,2.9617,2.9664,2.8995,0.0,0.0,0.0,0.0,0.0,0.0,2.1908,0.0,0.0,0.0,0.0,0.0,0.0,0.0,0.0,0.0,2.5308,2.5525,2.5937,2.6596,0.0,0.0,0.0,2.4541,0.0,2.1686,0.0,2.2211,0.0,0.0,0.0,0.0,2.4013,2.4334,2.4409,2.4806,2.4806,2.4561,0.0,2.3956,0.0,0.0,0.0,0.0,0.0,0.0,0.0,0.0,0.0,0.0,0.0,0.0,0.0,0.0,0.0,2.0679,0.0,0.0,0.0,0.0,0.0,0.0,0.0,0.0,0.0,0.0,0.0,0.0,0.0,0.0,0.0,0.0,0.0,0.0,0.0,0.0,2.3937,2.4378,2.4257,2.4163,2.4001,2.3683,2.3191,2.2636,2.2316,2.1823,2.1266,2.089,2.0272,1.9463,1.914,1.8688,1.8118,1.7811,1.7549,1.7346,1.7346,1.7188,1.6978,1.6978,1.6978,1.7031,1.7241,1.7346,1.7346,2.4468,0.0,0.0,0.0,0.0,0.0,0.0,0.0,0.0,0.0,0.0,0.0,2.5442,2.3939,0.0,0.0,0.0,2.046,0.0,0.0,2.1148,0.0,0.0,0.0,0.0,0.0,0.0,2.4162,2.4766,2.5425,2.6108,0.0,0.0,0.0,0.0,2.3995,2.2661,0.0,0.0,2.3162,2.3483,2.3899,2.4281,2.4513,2.4816,2.5156,2.526,2.5156,2.4929,2.4674,2.4274,0.0,2.3875,0.0,0.0,0.0,0.0,0.0,2.2236,0.0,0.0,0.0,0.0,0.0,0.0,0.0,0.0,0.0,0.0,0.0,0.0,0.0,0.0,0.0,0.0,0.0,0.0,0.0,0.0,0.0,0.0,0.0,0.0,0.0,0.0,0.0,2.3124,0.0,2.3643,2.363,2.3566,2.3484,2.2894,2.2328,2.1823,2.1211,2.0678,2.0246,1.9805,1.9344,1.8872,1.8496,1.8056,1.7549,1.7188,1.6978,1.6978,1.6978,1.6978,1.6978,1.6978,1.6978,1.6978,1.6978,1.6978,1.6978,2.4201,2.3985,0.0,0.0,0.0,0.0,0.0,0.0,0.0,0.0,0.0,0.0,0.0,0.0,0.0,0.0,0.0,1.9983,2.1039,0.0,2.0527,0.0,0.0,0.0,0.0,0.0,0.0,0.0,2.3183,2.3917,2.5582,2.4646,0.0,0.0,2.6155,2.5378,2.3599,2.4577,2.4729,2.4321,2.4882,2.5506,2.5931,0.0,2.508,2.5723,2.5581,0.0,0.0,2.4721,2.4194,0.0,0.0,0.0,0.0,0.0,0.0,0.0,0.0,0.0,0.0,0.0,0.0,0.0,0.0,0.0,2.1584,0.0,0.0,0.0,0.0,0.0,0.0,0.0,0.0,0.0,0.0,0.0,0.0,0.0,0.0,0.0,0.0,0.0,0.0,2.2349,2.2425,0.0,2.2822,2.3199,2.2974,2.2099,2.1457,2.0996,2.0568,1.9955,1.9632,1.9632,1.9632,1.9141,1.8327,1.8327,1.7843,1.7031,1.7031,1.6978,1.6978,1.6978,1.6978,1.6978,1.6978,1.6978,1.6978,1.6978,1.6978,1.6978,0.0,0.0,0.0,0.0,0.0,0.0,0.0,2.5304,0.0,0.0,0.0,0.0,0.0,0.0,2.0781,0.0,0.0,2.0536,2.0892,2.0892,0.0,0.0,0.0,2.0858,0.0,0.0,0.0,0.0,0.0,2.379,2.5073,2.5076,2.5376,0.0,0.0,2.4726,0.0,0.0,0.0,0.0,0.0,2.4784,2.527,0.0,0.0,2.5196,2.5122,2.4776,0.0,2.3926,2.3663,2.3537,2.3608,2.3423,2.3286,2.3658,2.3597,0.0,0.0,0.0,2.3861,2.2605,0.0,0.0,0.0,0.0,0.0,0.0,0.0,0.0,0.0,0.0,0.0,0.0,0.0,0.0,0.0,0.0,0.0,0.0,0.0,0.0,0.0,0.0,0.0,2.1612,2.1754,2.1843,0.0,2.2114,2.1934,2.1305,2.0797,2.0287,1.99,1.9309,1.9019,1.9019,1.864,1.8197,1.7688,1.7688,1.747,1.6978,1.6978,1.6978,1.6978,1.6978,1.6978,1.6978,1.6978,1.6978,1.6978,1.6978,1.6978,1.6978,2.2104,0.0,0.0,0.0,0.0,0.0,0.0,0.0,0.0,0.0,2.3429,0.0,2.1766,0.0,2.0908,0.0,2.0933,2.0866,2.0866,2.1251,0.0,1.9949,2.0619,0.0,0.0,0.0,0.0,0.0,0.0,2.3046,2.4024,2.4375,2.4815,2.5315,0.0,2.4771,2.4116,2.3956,2.394,0.0,0.0,2.416,0.0,0.0,2.4741,0.0,0.0,2.4418,2.3963,2.3678,2.355,2.342,2.3711,2.36,2.3423,2.393,2.388,2.3663,2.3663,2.4003,0.0,0.0,2.3068,0.0,0.0,0.0,0.0,0.0,0.0,0.0,0.0,0.0,0.0,0.0,0.0,0.0,0.0,0.0,0.0,0.0,0.0,0.0,0.0,0.0,2.0655,2.0828,2.0835,2.0867,0.0,0.0,2.095,2.038,1.9992,1.9627,1.9254,1.8702,1.8412,1.8412,1.8088,1.7704,1.7419,1.7419,1.7263,1.6978,1.6978,1.6978,1.6978,1.6978,1.6978,1.6978,1.6978,1.6978,1.6978,1.6978,1.6978,1.6978,0.0,0.0,0.0,0.0,2.3479,0.0,0.0,0.0,2.1879,0.0,2.2171,2.2089,2.0526,2.073,2.0942,2.0958,2.1004,0.0,2.1004,2.1842,0.0,0.0,2.1551,2.1483,2.0336,0.0,0.0,0.0,0.0,0.0,2.2611,2.258,2.3122,2.4094,2.5346,0.0,2.4518,2.5536,2.5427,2.4443,2.369,2.3731,2.4164,2.3607,0.0,2.5024,2.4469,2.4108,2.391,2.3893,2.3657,2.3435,2.3837,2.3792,2.3763,2.4158,2.4296,2.433,2.433,2.4198,2.3951,2.3464,0.0,0.0,0.0,0.0,2.3168,0.0,0.0,0.0,0.0,0.0,0.0,0.0,0.0,0.0,0.0,0.0,0.0,0.0,0.0,0.0,0.0,2.0002,1.9683,2.0135,1.9852,1.963,0.0,0.0,0.0,1.9357,1.9182,1.8925,1.864,1.815,1.7915,1.7915,1.786,1.7704,1.7419,1.7412,1.7249,1.6978,1.6978,1.6978,1.6978,1.6978,1.6978,1.6978,1.6978,1.6978,1.6978,1.6978,1.6978,1.6978,2.1259,2.2985,2.3849,0.0,2.1821,2.1896,0.0,0.0,0.0,0.0,2.2112,2.2354,2.1213,2.1624,2.1853,2.1636,2.2358,0.0,0.0,0.0,0.0,2.1941,2.2271,2.187,2.0531,2.1752,0.0,2.0544,0.0,0.0,2.2688,2.2616,2.2754,2.3036,2.4176,2.4167,2.3459,2.4364,2.437,2.3651,2.3007,2.3106,0.0,0.0,2.3205,2.3846,2.3673,2.3303,2.2842,2.2693,2.2577,2.259,2.2958,2.3278,2.3598,2.4156,2.4415,2.4504,2.4504,2.457,2.4476,2.3687,2.3635,2.3531,0.0,0.0,0.0,0.0,0.0,0.0,0.0,0.0,0.0,0.0,0.0,0.0,0.0,0.0,0.0,0.0,0.0,0.0,2.0311,2.0015,1.9755,1.9683,1.947,0.0,0.0,0.0,0.0,1.8603,1.8531,1.8376,1.8088,1.7977,1.7915,1.7915,1.7758,1.7602,1.7419,1.7304,1.7154,1.6978,1.6978,1.6978,1.6978,1.6978,1.6978,1.6978,1.6978,1.6978,1.6978,1.6978,1.6978,1.6978,2.0518,0.0,0.0,2.2192,0.0,0.0,2.1835,0.0,0.0,2.0935,2.1853,0.0,2.1622,2.1903,2.2243,2.2469,2.274,0.0,0.0,0.0,0.0,2.2282,2.284,2.2524,2.1181,2.2231,0.0,2.1388,0.0,0.0,2.2404,2.2145,2.1981,2.203,2.2964,2.3284,2.3064,2.3755,2.3792,2.3328,2.2744,0.0,0.0,2.2645,2.2711,2.2991,2.2991,2.281,2.2506,2.24,2.2432,2.2627,2.2867,2.3221,2.3576,2.3957,2.4073,2.4092,2.4092,2.4264,2.4371,2.3769,2.3986,2.406,2.3408,2.3446,2.3512,0.0,0.0,0.0,0.0,0.0,0.0,0.0,0.0,0.0,0.0,0.0,0.0,0.0,0.0,0.0,2.0214,1.9731,1.9392,1.925,0.0,0.0,0.0,0.0,0.0,1.7661,1.7946,1.7955,1.767,1.767,1.767,1.767,1.7589,1.7412,1.7317,1.7229,1.7114,1.6978,1.6978,1.6978,1.6978,1.6978,1.6978,1.6978,1.6978,1.6978,1.6978,1.6978,1.6978,1.6978,0.0,0.0,0.0,0.0,0.0,0.0,0.0,2.0897,0.0,2.0751,0.0,2.2295,2.1861,2.1993,2.2382,2.3094,0.0,2.2703,2.3396,2.3358,2.3037,2.2473,2.3305,2.3259,2.2001,2.2486,0.0,0.0,0.0,0.0,2.2004,2.1452,2.1233,2.129,2.2038,0.0,0.0,2.3412,2.3493,0.0,2.2703,2.2481,2.2481,2.2464,2.253,2.253,2.253,2.253,2.253,2.253,2.276,2.3027,2.3027,2.3288,2.3601,2.3601,2.3526,2.3453,2.3435,2.3643,2.3883,2.3665,2.4042,2.4369,2.3983,2.4003,2.3989,2.372,2.3287,0.0,0.0,0.0,0.0,0.0,0.0,0.0,0.0,0.0,0.0,0.0,0.0,0.0,0.0,0.0,0.0,0.0,0.0,0.0,0.0,0.0,0.0,0.0,1.7387,0.0,1.7446,0.0,1.7453,1.7453,1.7433,1.7338,1.7195,1.7175,1.71,1.6978,1.6978,1.6978,1.6978,1.6978,1.6978,1.6978,1.6978,1.6978,1.6978,1.6978,1.6978,1.6978,0.0,0.0,0.0,0.0,0.0,2.1986,2.15,2.1725,2.1782,2.1344,2.2481,0.0,2.2457,2.295,2.3248,2.3072,2.3381,0.0,0.0,0.0,0.0,2.3624,2.4078,2.3733,2.244,2.322,2.3083,0.0,0.0,0.0,2.1421,2.127,2.13,2.1489,2.2104,0.0,2.3331,2.3036,0.0,2.2726,2.2399,2.2237,2.2253,2.2465,2.253,2.253,2.253,2.253,2.253,2.253,2.2563,2.2588,2.2588,2.2874,2.3234,2.3234,2.3436,2.3582,2.3424,2.3464,2.3414,2.3052,2.3395,2.3816,2.3577,2.3893,2.4207,2.3946,2.3477,2.2855,2.2095,0.0,0.0,0.0,0.0,0.0,0.0,0.0,0.0,0.0,0.0,0.0,0.0,0.0,0.0,0.0,0.0,0.0,0.0,0.0,0.0,0.0,0.0,0.0,0.0,0.0,0.0,1.7554,1.7426,1.7338,1.7188,1.7073,1.7005,1.6978,1.6978,1.6978,1.6978,1.6978,1.6978,1.6978,1.6978,1.6978,1.6978,1.6978,1.6978,1.6978,0.0,0.0,0.0,0.0,0.0,0.0,0.0,2.175,0.0,2.1608,2.2659,2.3208,2.2694,2.299,2.3406,2.358,2.3605,2.3765,2.4171,2.4079,2.3909,2.3605,2.396,0.0,2.2652,0.0,2.3263,2.2254,0.0,0.0,2.1682,2.1661,2.1599,2.1546,2.1881,2.2324,0.0,0.0,0.0,2.2591,2.2333,2.2188,2.2212,2.2407,2.253,2.253,2.253,2.253,2.253,2.253,2.253,2.253,2.253,2.2645,2.2801,2.2801,2.2822,2.2864,2.2687,2.2783,2.2868,2.263,2.2942,2.3331,2.3126,2.3305,2.3455,2.3255,2.2836,2.2174,2.1247,2.0522,0.0,0.0,0.0,0.0,0.0,0.0,0.0,0.0,0.0,0.0,0.0,0.0,0.0,0.0,0.0,0.0,0.0,0.0,0.0,0.0,0.0,0.0,0.0,0.0,0.0,1.7473,1.7453,1.7385,1.7311,1.7243,1.7209,1.7202,1.7127,1.7087,1.7087,1.7012,1.6978,1.6978,1.6978,1.6978,1.6978,1.6978,1.6978,1.6978,0.0,2.2063,0.0,0.0,2.1896,0.0,2.1526,2.1652,2.1725,2.1725,2.2628,2.3099,2.2823,2.2976,2.3333,2.4026,2.3649,2.3679,2.4311,2.3756,2.3382,2.3382,2.3688,2.3497,2.283,2.3273,2.3231,0.0,0.0,0.0,0.0,0.0,0.0,0.0,0.0,0.0,0.0,0.0,2.1894,2.2251,2.2154,2.2131,2.2172,2.2383,2.253,2.253,2.253,2.253,2.253,2.253,2.253,2.253,2.253,2.253,2.253,2.253,2.2359,2.2212,2.2042,2.2144,2.2335,2.2197,2.2569,2.2883,2.2726,2.2809,2.2801,2.26,2.2179,2.1518,2.0494,2.0301,0.0,0.0,0.0,0.0,0.0,0.0,0.0,0.0,0.0,0.0,0.0,0.0,0.0,0.0,0.0,0.0,1.5047,1.5176,0.0,0.0,0.0,0.0,1.7188,0.0,1.7412,0.0,1.7412,1.7453,1.7419,1.7419,1.7419,1.7412,1.729,1.7243,1.7229,1.7121,1.7073,1.7073,1.7073,1.7073,1.7073,1.7073,1.7073,1.7066,0.0,0.0,0.0,0.0,0.0,0.0,0.0,2.1878,2.1856,2.1856,2.2571,2.3018,2.2976,2.3276,2.3487,2.3572,2.3658,2.3764,2.3849,2.3825,2.3764,2.3764,2.3637,2.3442,2.3271,2.31,2.2906,0.0,0.0,0.0,0.0,0.0,0.0,0.0,0.0,0.0,0.0,2.1382,2.1366,2.1276,2.1741,2.1953,2.1945,2.2342,2.253,2.253,2.253,2.253,2.253,2.253,2.253,2.253,2.253,2.253,2.253,2.253,2.2506,2.2407,2.2212,2.2042,2.1927,2.1796,2.2066,2.2371,2.2354,2.2728,2.2994,2.281,2.2225,2.1428,2.0468,2.0299,2.0392,0.0,0.0,0.0,0.0,0.0,0.0,0.0,0.0,0.0,0.0,0.0,0.0,0.0,0.0,1.4803,1.4585,1.4699,0.0,1.5593,0.0,1.6734,1.7188,1.7426,0.0,1.7575,1.7575,1.75,1.7419,1.7419,1.7419,1.7419,1.7405,1.7399,1.7399,1.7385,1.7378,1.7378,1.7378,1.7378,1.7378,1.7378,1.7378,1.7358,0.0,0.0,0.0,0.0,0.0,0.0,0.0,2.2072,2.2253,2.2253,2.2683,2.3041,2.3146,2.3487,2.3699,2.3699,2.3853,2.3959,2.3959,2.3959,2.391,2.3804,2.3739,2.3552,2.332,2.3081,2.283,0.0,0.0,0.0,0.0,0.0,0.0,0.0,0.0,2.0924,2.0641,2.0831,2.1078,2.1319,2.171,2.1945,2.2123,2.2359,2.253,2.253,2.253,2.253,2.253,2.253,2.253,2.253,2.253,2.253,2.253,2.253,2.253,2.2481,2.2237,2.2147,2.2017,2.1781,2.1825,2.1917,2.1784,2.1932,2.2063,2.1996,2.1628,2.1098,2.0261,2.0115,2.0173,0.0,0.0,0.0,0.0,0.0,0.0,0.0,0.0,0.0,0.0,0.0,0.0,0.0,0.0,0.0,1.4502,1.457,0.0,1.5566,0.0,1.6653,1.7188,1.7582,1.7772,1.7772,1.7772,1.7738,1.7684,1.7684,1.7629,1.75,1.75,1.7453,1.7419,1.7419,1.7419,1.7419,1.7419,1.7419,1.7419,1.7419,1.7419,1.7412,2.2091,0.0,2.2235,0.0,2.2024,2.1972,2.1967,2.231,2.2578,2.2742,2.296,2.3211,2.3317,2.3617,2.389,2.4192,2.4171,2.4215,2.4447,2.4253,2.408,2.3975,2.3869,0.0,2.3422,2.3187,2.2935,2.2676,2.2277,0.0,0.0,0.0,0.0,0.0,2.1071,2.0864,2.0718,2.0856,2.1157,2.1571,2.1896,2.2082,2.2212,2.2407,2.253,2.253,2.253,2.253,2.253,2.253,2.253,2.253,2.253,2.253,2.253,2.253,2.253,2.2448,2.2359,2.2237,2.2131,2.1927,2.167,2.1526,2.1515,2.134,2.1182,2.1118,2.0896,2.0497,1.9939,1.98,1.9769,0.0,0.0,0.0,0.0,0.0,0.0,0.0,0.0,1.5554,1.4774,0.0,0.0,0.0,0.0,0.0,0.0,0.0,0.0,0.0,0.0,0.0,0.0,0.0,1.7915,1.7915,1.7915,1.7915,1.7915,1.7915,1.7812,1.7663,1.7663,1.765,1.7555,1.7555,1.7555,1.7555,1.7555,1.7555,1.7555,1.7555,1.7555,1.7541,2.188,2.1912,2.1912,2.188,2.2066,2.2237,2.2481,2.2618,2.2846,2.3255,2.3406,2.3468,2.3528,2.3699,2.4131,2.5026,2.4599,2.4574,2.5251,2.4644,2.427,0.0,0.0,2.3804,2.3804,2.3447,2.323,2.3,0.0,0.0,2.2088,0.0,2.1852,2.2236,2.165,2.1528,2.1699,2.1699,2.1766,2.1936,2.2123,2.2188,2.2212,2.2407,2.253,2.253,2.253,2.253,2.253,2.253,2.253,2.253,2.253,2.253,2.253,2.253,2.253,2.253,2.253,2.2342,2.2188,2.2188,2.1589,2.1132,2.1759,2.1279,2.0652,2.0552,2.001,1.9573,1.9409,1.9433,1.9329,1.8947,0.0,0.0,0.0,0.0,0.0,0.0,1.6041,1.4916,1.4708,0.0,0.0,0.0,0.0,0.0,0.0,0.0,0.0,1.5573,1.631,0.0,1.7412,1.7724,1.7915,1.7915,1.7915,1.7915,1.7915,1.7915,1.7915,1.7915,1.7915,1.7915,1.786,1.786,1.786,1.786,1.786,1.786,1.786,1.786,1.786,1.7846,2.2659,2.2659,2.2659,2.2659,2.27,2.2765,2.283,2.2976,2.3171,2.3406,2.3593,2.3804,2.3994,2.4121,2.4256,0.0,2.453,2.4574,0.0,2.4637,2.4462,2.434,2.4227,2.4056,2.3804,2.3569,2.3358,2.323,0.0,0.0,0.0,2.1666,2.1666,2.1675,2.1699,2.179,2.1847,2.1847,2.1953,2.2107,2.2172,2.2277,2.2383,2.2506,2.253,2.253,2.253,2.253,2.253,2.253,2.253,2.253,2.253,2.253,2.253,2.253,2.253,2.253,2.253,2.2424,2.2244,2.1715,2.1416,2.1103,2.076,2.0466,2.0271,2.0097,1.9963,1.9633,1.9045,1.8947,1.8682,1.799,0.0,0.0,0.0,0.0,0.0,0.0,0.0,1.5018,0.0,1.4654,0.0,0.0,0.0,0.0,0.0,0.0,0.0,0.0,1.631,0.0,1.7419,1.7724,1.7915,1.7915,1.7915,1.7915,1.7915,1.7915,1.7915,1.7915,1.7915,1.7915,1.7915,1.7915,1.7915,1.7915,1.7915,1.7915,1.7915,1.7915,1.7915,1.786,2.3,2.3,2.3,2.3,2.3,2.3016,2.3081,2.3252,2.3422,2.3617,2.3845,2.408,2.4253,2.4397,0.0,2.4751,2.4661,0.0,2.497,2.4726,2.4551,2.4446,2.4318,2.421,2.391,0.0,0.0,2.3312,2.2913,2.2359,2.1846,2.1912,2.1871,2.1701,2.1936,2.2066,2.2131,2.2131,2.2188,2.2302,2.2302,2.2359,2.253,2.253,2.253,2.253,2.253,2.253,2.253,2.253,2.253,2.253,2.253,2.253,2.253,2.253,2.253,2.2464,2.2184,2.2126,2.1929,2.1221,2.0869,2.053,1.996,1.9866,1.9807,1.9636,1.9362,1.904,1.8509,1.8412,1.8156,1.7527,0.0,0.0,0.0,0.0,0.0,0.0,0.0,0.0,0.0,1.4944,0.0,0.0,0.0,0.0,0.0,0.0,0.0,1.5905,1.6585,0.0,1.7582,1.7772,1.7915,1.7915,1.7915,1.7915,1.7915,1.7915,1.7915,1.7915,1.7915,1.7915,1.7915,1.7915,1.7915,1.786,1.7652,1.7535,1.7535,1.7307,1.7197,1.7141,2.3065,2.3065,0.0,0.0,2.3065,0.0,2.3312,2.3422,2.3617,2.3804,2.4121,2.434,2.4294,2.4511,2.4836,2.5475,0.0,0.0,0.0,2.497,2.4592,2.4592,2.4446,0.0,2.4142,2.391,2.3634,2.3312,2.3106,2.2846,2.2513,2.2513,2.2407,2.2253,2.2237,2.2318,2.2489,2.253,2.253,2.253,2.253,2.253,2.253,2.253,2.253,2.253,2.253,2.253,2.253,2.253,2.253,2.2464,2.2464,2.2407,2.2407,2.2407,2.2407,2.2283,2.1607,2.1426,2.1302,2.0667,2.0081,1.9589,1.9397,1.9405,1.937,1.9014,1.8496,1.8057,1.7914,1.7915,1.7772,1.7467,1.7419,1.7209,1.6554,0.0,0.0,0.0,0.0,0.0,0.0,1.5438,1.5506,0.0,0.0,0.0,0.0,0.0,0.0,1.6517,1.6971,1.7419,1.7915,1.7915,1.7915,1.7915,1.7915,1.7915,1.7915,1.7915,1.7915,1.7915,1.7915,1.7915,1.7915,1.7915,1.786,1.7805,1.7216,1.6926,1.676,1.6206,1.5923,1.5696,0.0,0.0,2.3617,2.3617,2.3617,2.3569,2.3487,2.3617,2.3804,2.3975,2.4186,2.4381,2.4511,2.4568,2.4655,2.4789,2.4663,2.4663,2.4853,2.4663,2.4592,2.4592,2.4551,2.4446,2.4275,2.4105,2.3764,2.3312,2.3271,2.3081,2.287,2.287,2.2854,2.2805,2.2659,2.2618,2.2659,2.2529,2.253,2.253,2.253,2.253,2.253,2.253,2.253,2.253,2.253,2.253,2.253,2.253,2.253,2.2407,2.1887,2.173,2.173,2.173,2.173,2.1607,2.0963,2.0782,2.0667,2.0081,1.9465,1.898,1.8946,1.8946,1.8877,1.8699,1.8398,1.8213,1.8077,1.799,1.7772,1.7467,1.7419,1.7209,1.6554,0.0,0.0,0.0,1.5546,1.5499,1.5533,1.5683,1.5859,0.0,0.0,0.0,0.0,0.0,1.65,1.6642,1.7134,1.7528,1.7915,1.7915,1.7915,1.7915,1.7915,1.7915,1.7915,1.7915,1.7915,1.7915,1.7915,1.7915,1.7915,1.7915,1.7652,1.721,1.7044,1.6151,1.4914,1.4803,1.4137,1.3303,2.3894,2.391,2.391,2.391,2.391,2.3894,2.3788,2.3934,2.408,2.417,2.434,2.4486,2.4592,2.4592,2.4592,2.4592,2.4592,2.4592,2.4592,2.4592,2.4592,2.4592,2.4592,2.4511,2.427,2.4145,2.389,2.3382,2.3382,2.3293,2.3165,2.3165,2.3081,2.3,2.2895,2.2805,2.2724,2.2618,2.2529,2.253,2.253,2.253,2.253,2.253,2.253,2.253,2.253,2.253,2.253,2.253,2.2283,2.2003,2.1607,2.1302,2.1021,2.0782,2.0848,2.0963,2.0327,2.0204,2.0023,1.9458,1.9045,1.882,1.882,1.882,1.8728,1.8565,1.8366,1.8267,1.8124,1.7968,1.7772,1.7467,1.7419,1.7236,1.6648,1.6503,0.0,1.6019,1.5938,1.5918,1.5986,1.611,1.6225,1.6395,0.0,0.0,1.6714,1.6809,1.6883,1.6951,1.727,1.7629,1.7915,1.7915,1.7915,1.7915,1.7915,1.7915,1.7915,1.7915,1.7915,1.786,1.7597,1.748,1.748,1.7197,1.6588,1.5751,1.548,1.442,1.3021,1.2752,1.2251,1.1579,2.4064,2.4105,2.4105,2.4105,2.4105,2.4105,2.4126,2.421,2.427,2.427,2.4415,2.4458,2.4458,2.4331,2.4348,2.4458,2.4458,2.4466,2.4592,2.4592,2.4592,2.4592,2.4592,2.4527,2.4381,2.417,2.3894,2.3528,2.3528,2.3447,2.336,2.336,2.3211,2.3081,2.3041,2.296,2.2805,2.274,2.2635,2.2513,2.253,2.253,2.253,2.253,2.253,2.253,2.253,2.253,2.2464,2.2407,2.1945,2.1483,2.1302,2.0905,2.0327,1.9741,1.9907,2.0204,1.9683,1.956,1.9458,1.8943,1.882,1.882,1.882,1.882,1.8728,1.8586,1.8443,1.8301,1.8158,1.8002,1.7792,1.7473,1.7385,1.7216,1.6757,0.0,1.6497,1.6517,1.6435,1.6435,1.6578,1.6612,1.6632,1.6653,1.6659,0.0,0.0,1.7066,1.7134,1.7256,1.746,1.7717,1.7915,1.7915,1.7915,1.7915,1.7915,1.7915,1.7915,1.7805,1.7749,1.7749,1.7154,1.676,1.6533,1.6034,1.5086,1.387,1.3303,1.2353,1.1137,1.0639,1.0356,1.0029,2.4251,2.4292,2.4292,2.4292,2.4292,2.4235,2.4142,2.421,2.427,2.427,2.3984,2.3779,2.3779,2.3273,2.3139,2.3708,2.3779,2.4016,2.4592,2.4592,2.4592,2.4592,2.4592,2.4576,2.4551,2.4235,2.3894,2.3528,2.3528,2.3512,2.3487,2.3487,2.3463,2.3447,2.3276,2.3255,2.3206,2.2846,2.27,2.2675,2.2529,2.253,2.253,2.253,2.253,2.253,2.253,2.253,2.2407,2.183,2.1607,2.1302,2.032,1.9922,1.9741,1.9103,1.9001,1.9045,1.8943,1.8943,1.8943,1.882,1.882,1.882,1.882,1.882,1.8762,1.8786,1.8599,1.8407,1.8301,1.8158,1.7914,1.7487,1.7209,1.6978,0.0,0.0,1.6388,1.651,1.6567,1.6689,1.6897,1.7019,1.7141,1.727,1.7283,1.7304,1.7351,1.7473,1.75,1.7521,1.7568,1.7717,1.7915,1.7915,1.7915,1.7915,1.7915,1.7915,1.786,1.7369,1.7154,1.7099,1.649,1.564,1.4703,1.4647,1.3586,1.2029,1.1917,1.0854,0.9407,0.9306,0.8629,0.7737,2.4446,2.4462,2.4462,2.4462,2.4462,2.4446,2.4356,2.4421,2.4353,2.396,2.3716,2.3447,2.3075,2.2767,2.2703,2.3012,2.3075,2.3336,2.4024,2.4395,2.4592,2.4592,2.4592,2.4511,2.4316,2.4207,2.3894,2.3528,2.3528,2.3528,2.3528,2.3528,2.3339,2.2984,2.2965,2.263,2.2213,2.1973,2.1809,2.165,2.1545,2.1483,2.1483,2.1483,2.1483,2.1483,2.1483,2.1483,2.1426,2.1121,2.0782,2.0443,1.9864,1.9502,1.9161,1.8878,1.882,1.882,1.882,1.882,1.882,1.882,1.882,1.882,1.882,1.882,1.882,1.882,1.864,1.8454,1.8443,1.8247,1.8002,1.7704,1.7412,0.0,0.0,1.687,1.6809,1.6876,1.7019,1.7088,1.7209,1.7277,1.7344,1.7412,1.7419,1.7453,1.7487,1.7554,1.7629,1.7758,1.7435,1.7297,1.7424,1.708,1.6926,1.6926,1.6926,1.6926,1.6926,1.6643,1.6151,1.5486,1.4914,1.3965,1.2808,1.2469,1.1532,1.0189,1.0189,0.9296,0.802,0.802,0.7681,0.7175,2.4568,2.4592,2.4592,2.4592,2.4592,2.4592,2.4592,2.4592,2.4395,2.389,2.3581,2.3139,2.2632,2.2323,2.2189,2.2372,2.2372,2.2632,2.3336,2.3842,2.4284,2.4592,2.4592,2.4446,2.4129,2.4142,2.391,2.3593,2.3552,2.3407,2.3278,2.3278,2.2984,2.2372,2.2372,2.2001,2.1384,2.119,2.1034,2.0833,2.0683,2.0601,2.0601,2.0601,2.0601,2.0601,2.0601,2.0601,2.0601,2.0428,2.0081,1.9683,1.956,1.9161,1.882,1.882,1.8841,1.8816,1.8841,1.882,1.882,1.882,1.882,1.882,1.882,1.882,1.882,1.882,1.8674,1.8565,1.8531,1.8321,1.8091,1.7956,0.0,0.0,0.0,1.7188,1.7168,1.7236,1.7378,1.7473,1.7473,1.75,1.7521,1.7521,1.7521,1.7575,1.7684,1.7533,1.736,1.708,1.7044,1.6926,1.6816,1.6034,1.5696,1.5696,1.5424,1.5258,1.5258,1.5141,1.4536,1.3642,1.303,1.2084,1.0966,1.0528,0.9634,0.8573,0.8573,0.802,0.7175,0.7175,0.7175,0.7175,2.4592,2.4592,2.4592,2.4592,2.4592,2.4592,2.4592,2.4592,2.4592,2.4529,2.3447,2.2632,2.2632,2.1421,2.092,2.1618,2.1689,2.1928,2.2632,2.2703,2.3273,2.4529,2.4592,2.4511,2.4316,2.4145,2.3975,2.3788,2.3617,2.3234,2.269,2.269,2.2327,2.1661,2.1661,2.1661,2.1555,2.1242,2.1108,2.1071,2.0743,2.0601,2.0601,2.0601,2.0601,2.0601,2.0601,2.0601,2.0486,1.9965,1.9741,1.9625,1.9045,1.882,1.882,1.882,1.8871,1.8938,1.8854,1.882,1.882,1.882,1.882,1.882,1.882,1.882,1.882,1.882,1.88,1.8708,1.8552,1.8409,1.8213,1.7914,0.0,0.0,1.7385,1.7168,1.71,1.7372,1.7487,1.7575,1.7575,1.7758,1.7881,1.7881,1.7881,1.7881,1.7902,1.7349,1.6305,1.4647,1.6151,1.6754,1.6151,1.503,1.442,1.442,1.3303,1.2752,1.2752,1.2186,1.1857,1.1746,1.1137,1.0245,0.9195,0.9135,0.8405,0.7342,0.7342,0.7286,0.7175,0.7175,0.7175,0.7175,2.4592,2.4592,2.4458,2.4024,2.3953,2.3953,2.3953,2.3645,2.3384,2.3384,2.2569,2.1816,2.1358,2.085,2.061,2.0913,2.092,2.1245,2.1928,2.1992,2.2569,2.389,2.4395,2.4511,2.427,2.4145,2.3975,2.3804,2.3193,2.2819,2.2561,2.2145,2.16,2.0986,2.0986,2.0751,2.0419,2.0049,1.9922,1.988,1.9571,1.9502,1.9502,1.9502,1.9502,1.9502,1.9502,1.9502,1.9458,1.9219,1.9161,1.9103,1.8878,1.882,1.8841,1.8929,1.8938,1.8993,1.9027,1.904,1.904,1.904,1.904,1.9006,1.8918,1.8905,1.8884,1.8841,1.882,1.88,1.8694,1.8552,1.8409,1.8301,0.0,1.7629,1.7684,1.7521,1.7439,1.7494,1.7684,1.762,1.7242,1.7274,1.7197,1.6816,1.6089,1.5696,1.5696,1.4747,1.4081,1.3753,1.3698,1.3531,1.3303,1.2469,1.2084,1.2084,1.1587,1.136,1.136,1.1137,1.0639,0.9973,0.9746,0.8967,0.7905,0.7905,0.7625,0.7175,0.7175,0.7175,0.7286,0.802,0.7849,0.7286,2.4331,2.4284,2.4087,2.3384,2.3273,2.3273,2.3273,2.2878,2.2569,2.2569,2.1999,2.1421,2.0913,2.061,2.0476,2.0476,2.0737,2.1047,2.1555,2.1999,2.2632,2.3581,2.3842,2.3999,2.4036,2.3673,2.3359,2.3193,2.2578,2.2206,2.1956,2.1471,2.0926,2.0333,2.0333,2.0083,1.9705,1.9325,1.9203,1.9183,1.8884,1.882,1.882,1.882,1.882,1.882,1.882,1.882,1.882,1.882,1.882,1.882,1.882,1.882,1.8854,1.8938,1.9027,1.9094,1.9237,1.9305,1.9325,1.9217,1.9203,1.9183,1.9081,1.9061,1.9006,1.8871,1.883,1.8875,1.8841,1.864,1.8474,1.8474,1.8233,1.8002,1.8002,1.7761,1.7522,1.7522,1.7491,1.7278,1.6888,1.6832,1.6491,1.5656,1.482,1.4235,1.4026,1.2525,1.1917,1.2525,1.1026,1.0245,1.0245,1.0189,1.0141,1.0141,0.9802,0.9579,0.9579,0.9579,0.9184,0.8461,0.8461,0.7961,0.7175,0.7175,0.7175,0.7175,0.7175,0.7454,0.7793,0.8293,0.8122,0.7849,2.3669,2.3581,2.3384,2.2696,2.2569,2.2569,2.2569,2.2569,2.2569,2.2569,2.1999,2.1618,2.1618,2.092,2.0539,2.0539,2.1181,2.1618,2.1618,2.2878,2.3581,2.3581,2.2941,2.2818,2.3403,2.2547,2.2003,2.1892,2.1675,2.1236,2.063,2.063,2.0272,1.9725,1.9725,1.9725,1.9705,1.9325,1.9203,1.9183,1.8884,1.882,1.882,1.882,1.882,1.882,1.882,1.882,1.882,1.882,1.882,1.882,1.882,1.882,1.8854,1.8952,1.9094,1.9237,1.9393,1.9535,1.959,1.9291,1.9203,1.9203,1.9203,1.9203,1.9169,1.9027,1.8993,1.8938,1.8796,1.864,1.8474,1.8474,1.8409,1.8321,1.8321,1.7754,1.7401,1.7401,1.684,1.6505,1.6505,1.6505,1.5934,1.4617,1.4488,1.4159,1.3415,1.1081,1.0077,1.0695,0.8405,0.7175,0.7175,0.8405,0.8967,0.8967,0.7793,0.7175,0.7175,0.7175,0.7175,0.7175,0.7175,0.7175,0.7175,0.7175,0.7175,0.7175,0.7175,0.7905,0.88,0.7625,0.7961,0.88,2.2767,2.2818,2.2696,2.1999,2.1928,2.1928,2.1928,2.1492,2.1294,2.1816,2.1245,2.085,2.085,2.1111,2.1245,2.1245,2.1928,2.2323,2.2323,2.2696,2.2878,2.2878,2.3139,2.3062,2.2659,2.2291,2.2003,2.1892,2.1249,2.0819,2.0569,2.0144,1.9847,1.9725,1.9725,1.9725,1.9705,1.9325,1.9203,1.9183,1.8884,1.882,1.882,1.882,1.882,1.882,1.882,1.882,1.882,1.882,1.882,1.882,1.882,1.882,1.8816,1.9061,1.9169,1.9257,1.9522,1.9624,1.9705,1.9556,1.9522,1.9501,1.9393,1.9359,1.9291,1.904,1.8993,1.8938,1.8796,1.8728,1.8694,1.8694,1.8565,1.8299,1.7848,1.7586,1.7231,1.684,1.6619,1.6328,1.5936,1.588,1.5515,1.4675,1.3007,1.1848,1.1532,0.924,0.879,1.0639,0.8405,0.7007,0.6561,0.7342,0.7737,0.7737,0.7398,0.7175,0.7175,0.678,0.6561,0.6561,0.6113,0.6444,0.7175,0.7175,0.7175,0.7175,0.6724,0.6274,0.5882,0.6388,0.5994,0.5327,2.1988,2.2042,2.1919,2.1294,2.1181,2.1181,2.1181,2.0786,2.0673,2.1111,2.0786,2.0476,2.0476,2.0913,2.1308,2.1555,2.2435,2.3139,2.3384,2.3139,2.2878,2.2632,2.2643,2.239,2.1867,2.1457,2.116,2.1009,2.0497,2.0272,2.0272,1.9847,1.9725,1.9725,1.9725,1.9684,1.9556,1.9305,1.9169,1.9094,1.8909,1.882,1.882,1.882,1.882,1.882,1.882,1.882,1.882,1.882,1.882,1.882,1.882,1.882,1.8816,1.9047,1.9115,1.9169,1.9413,1.9488,1.9488,1.9488,1.9576,1.9644,1.9535,1.9522,1.9434,1.9128,1.9081,1.9006,1.8854,1.882,1.882,1.882,1.8456,1.8101,1.7704,1.7224,1.6703,1.6365,1.609,1.5739,1.54,1.4929,1.4083,1.2625,1.0643,0.9662,1.0029,0.8011,0.7737,0.9634,0.7616,0.6337,0.5945,0.6281,0.65,0.65,0.65,0.6612,0.6836,0.5945,0.5719,0.5945,0.5831,0.6057,0.65,0.7007,0.6895,0.6444,0.5826,0.5265,0.4877,0.5157,0.4821,0.4429,2.122,2.1188,2.1062,2.0555,2.0476,2.0476,2.0476,2.0476,2.0476,2.0476,2.0476,2.0476,2.0476,2.0539,2.0913,2.1618,2.2941,2.389,2.4458,2.3953,2.3273,2.2569,2.1713,2.1179,2.103,2.0264,1.98,1.9725,1.9725,1.9725,1.9725,1.9725,1.9725,1.9725,1.9725,1.9576,1.9413,1.9271,1.9115,1.8972,1.883,1.882,1.882,1.882,1.882,1.882,1.882,1.882,1.882,1.882,1.882,1.882,1.882,1.882,1.8854,1.8938,1.8993,1.9027,1.9169,1.9203,1.9203,1.9203,1.9413,1.9684,1.9684,1.9684,1.9596,1.9237,1.9123,1.9035,1.8751,1.8639,1.8639,1.8639,1.8123,1.7704,1.7646,1.6663,1.5965,1.5901,1.5382,1.4979,1.4857,1.3742,1.1968,0.931,0.8046,0.7813,0.8806,0.7175,0.678,0.7955,0.6333,0.5383,0.5327,0.5327,0.5327,0.5383,0.5383,0.5663,0.6113,0.4933,0.4765,0.5327,0.5771,0.5771,0.5551,0.6556,0.6333,0.5271,0.4597,0.4597,0.4873,0.3758,0.4035,0.4759,2.0196,2.0346,2.0462,2.0363,2.0408,2.0476,2.0476,2.0476,2.0476,2.0476,2.0476,2.0476,2.0476,2.1047,2.1618,2.2323,2.3581,2.4221,2.3842,2.3708,2.3075,2.1865,2.1361,2.0872,2.0354,2.0066,1.98,1.9725,1.9725,1.9725,1.9725,1.9725,1.9725,1.9725,1.9725,1.9576,1.9413,1.9271,1.9115,1.8972,1.883,1.882,1.882,1.882,1.882,1.882,1.882,1.882,1.882,1.882,1.882,1.882,1.882,1.882,1.8854,1.8938,1.8993,1.9027,1.9169,1.9203,1.9203,1.9203,1.9257,1.9305,1.9305,1.9305,1.9257,1.9081,1.868,1.8268,1.8033,1.7658,1.7303,1.7303,1.7181,1.696,1.6483,1.6139,1.5784,1.526,1.5096,1.4623,1.3684,1.2461,1.0805,0.8683,0.8257,0.7914,0.7625,0.6333,0.6162,0.7337,0.6106,0.5157,0.4712,0.4712,0.4938,0.5383,0.5383,0.5215,0.4877,0.4152,0.4147,0.4653,0.3811,0.4485,0.6057,0.5383,0.4933,0.4597,0.3531,0.258,0.185,0.1572,0.1347,0.1121,1.9916,2.0064,2.0241,2.0315,2.0388,2.0476,2.0476,2.0476,2.0476,2.0476,2.0476,2.0476,2.0476,2.085,2.1358,2.2062,2.3075,2.351,2.3139,2.283,2.2286,2.1511,2.0915,2.043,1.9997,1.9854,1.9793,1.9725,1.9725,1.9725,1.9725,1.9725,1.9725,1.9725,1.9725,1.9535,1.9305,1.9237,1.9081,1.8929,1.8854,1.882,1.882,1.882,1.882,1.882,1.882,1.882,1.882,1.882,1.882,1.882,1.882,1.882,1.8841,1.8909,1.8884,1.8905,1.8972,1.8993,1.8993,1.8993,1.8751,1.868,1.9103,1.8959,1.8754,1.8601,1.8098,1.7583,1.7393,1.6599,1.5965,1.5965,1.526,1.456,1.4204,1.3966,1.3626,1.328,1.3221,1.2627,1.111,1.0311,0.9076,0.7133,0.6984,0.6759,0.6337,0.5495,0.5271,0.5882,0.5045,0.4264,0.3646,0.3646,0.3646,0.3702,0.3983,0.4091,0.4035,0.2861,0.2804,0.3587,0.2973,0.3421,0.4541,0.4203,0.3755,0.3141,0.2187,0.129,0.0449,0.0449,0.0281,0.0,1.982,1.9976,2.0139,2.0275,2.0374,2.0476,2.0476,2.0476,2.0476,2.0476,2.0476,2.0476,2.0476,2.061,2.092,2.1555,2.2196,2.2569,2.2435,2.1928,2.1435,2.1153,2.0492,2.0031,1.9875,1.9793,1.9725,1.9725,1.9725,1.9725,1.9725,1.9725,1.9725,1.9725,1.9684,1.9468,1.9203,1.9183,1.9006,1.882,1.882,1.882,1.882,1.882,1.882,1.882,1.882,1.882,1.882,1.882,1.882,1.882,1.882,1.882,1.882,1.882,1.882,1.882,1.882,1.882,1.882,1.882,1.8298,1.7994,1.8772,1.8477,1.7971,1.7615,1.7055,1.6503,1.6157,1.5143,1.4385,1.4385,1.3032,1.2038,1.2038,1.1633,1.129,1.129,1.0993,1.0231,0.8644,0.8171,0.7186,0.5466,0.5363,0.526,0.5107,0.4544,0.4208,0.4208,0.3589,0.3029,0.2523,0.2523,0.2299,0.1796,0.2187,0.2636,0.3085,0.1572,0.1516,0.2523,0.2411,0.2523,0.2748,0.3029,0.2523,0.157,0.0954,0.0449,0.0,0.0,0.0,0.0,1.9739,1.9908,2.0098,2.0139,2.03,2.0476,2.0476,2.0476,2.0476,2.0476,2.0476,2.0476,2.0476,2.1047,2.1492,2.1618,2.2196,2.2372,2.1752,2.1618,2.1238,2.0462,2.0193,2.0031,1.9875,1.9793,1.9725,1.9725,1.9725,1.9725,1.9725,1.9725,1.9725,1.9664,1.9522,1.9359,1.9203,1.9081,1.8918,1.882,1.882,1.882,1.882,1.882,1.882,1.882,1.882,1.882,1.882,1.882,1.882,1.882,1.882,1.882,1.882,1.882,1.882,1.882,1.882,1.882,1.882,1.882,1.8298,1.7839,1.793,1.7528,1.677,1.5632,1.4931,1.4161,1.3032,1.2272,1.1808,1.1808,1.1583,1.1407,1.1407,1.1348,1.129,1.129,0.9879,0.8765,0.8527,0.6955,0.5625,0.4775,0.4734,0.4471,0.3871,0.3253,0.2917,0.2917,0.2358,0.2021,0.1909,0.1909,0.1909,0.1796,0.1347,0.1178,0.1235,0.101,0.1291,0.1906,0.1347,0.1738,0.2636,0.1684,0.1178,0.0954,0.0337,0.0056,0.0,0.0,0.0,0.0,1.9657,1.9888,2.0098,2.0098,2.0349,2.0476,2.0476,2.0476,2.0476,2.0476,2.0476,2.0476,2.0476,2.0786,2.0984,2.0984,2.1245,2.1294,2.0984,2.0915,2.0671,2.0207,2.0051,1.9908,1.9814,1.9759,1.9725,1.9725,1.9725,1.9725,1.9725,1.9725,1.9725,1.9664,1.9501,1.9345,1.9183,1.9047,1.8905,1.882,1.882,1.882,1.882,1.882,1.882,1.882,1.882,1.882,1.882,1.882,1.882,1.882,1.882,1.882,1.882,1.882,1.882,1.882,1.882,1.882,1.8704,1.8342,1.7239,1.6064,1.5365,1.4443,1.3923,1.4385,1.3445,1.2335,1.1808,1.0876,1.0231,1.0231,0.9652,0.9058,0.8706,0.8644,0.8527,0.8239,0.7414,0.6817,0.6434,0.5571,0.4606,0.3599,0.3512,0.3265,0.2638,0.2358,0.2189,0.2189,0.1965,0.1628,0.1291,0.1291,0.1122,0.0786,0.0505,0.0561,0.0898,0.0561,0.073,0.1291,0.0673,0.0898,0.1628,0.073,0.0393,0.0393,0.0112,0.0,0.0,0.0,0.0,0.0]},{"header":{"parameterUnit":"m.s-1","parameterCategory":1,"la1":30.6,"la2":28.766,"lo1":-90.7593,"lo2":-88.6598,"dx":0.0162,"dy":0.0183,"nx":116,"ny":114,"refTime":"2023-01-20T18:00:00:Z","depth":0,"parameterNumber":3,"parameterNumberName":"V-component_of_WINDS"},"data":[0.0,0.0,0.0,0.0,0.0,0.0,0.0,0.0,0.0,0.0,0.0,0.0,0.0,0.0,0.0,0.0,0.0,0.0,0.0,0.0,0.0,0.0,0.0,0.0,0.0,0.0,0.0,0.0,0.0,0.0,0.0,0.0,0.0,0.0,0.0,0.0,0.0,0.0,0.0,0.0,0.0,0.0,0.0,0.0,0.0,0.0,0.0,0.0,0.0,0.0,0.0,0.0,0.0,0.0,0.0,0.0,0.0,0.0,0.0,0.0,0.0,0.0,0.0,0.0,0.0,0.0,0.0,0.0,0.0,0.0,0.0,0.0,0.0,0.0,0.0,0.0,0.0,0.0,0.0,0.0,0.0,0.0,0.0,0.0,0.0,0.0,0.0,0.0,0.0,0.0,0.0,0.0,0.0,0.0,0.0,0.0,0.0,0.0,0.0,0.0,0.0,0.0,0.0,0.0,0.0,0.0,0.0,0.0,0.0,0.0,0.0,0.0,0.0,0.0,0.0,0.0,0.0,0.0,0.0,0.0,0.0,0.0,0.0,0.0,0.0,0.0,0.0,0.0,0.0,0.0,0.0,0.0,0.0,0.0,0.0,0.0,0.0,0.0,0.0,0.0,0.0,0.0,0.0,0.0,0.0,0.0,0.0,0.0,0.0,0.0,0.0,0.0,0.0,0.0,0.0,0.0,0.0,0.0,0.0,0.0,0.0,0.0,0.0,0.0,0.0,0.0,0.0,0.0,0.0,0.0,0.0,0.0,0.0,0.0,0.0,0.0,0.0,0.0,0.0,0.0,0.0,0.0,0.0,0.0,0.0,0.0,0.0,0.0,0.0,0.0,0.0,0.0,0.0,0.0,0.0,0.0,0.0,0.0,0.0,0.0,0.0,0.0,0.0,0.0,0.0,0.0,0.0,0.0,0.0,0.0,0.0,0.0,0.0,0.0,0.0,0.0,0.0,0.0,0.0,0.0,0.0,0.0,0.0,0.0,0.0,0.0,0.0,0.0,0.0,0.0,0.0,0.0,0.0,0.0,0.0,0.0,0.0,0.0,0.0,0.0,0.0,0.0,0.0,0.0,0.0,0.0,0.0,0.0,0.0,0.0,0.0,0.0,0.0,0.0,0.0,0.0,0.0,0.0,0.0,0.0,0.0,0.0,0.0,0.0,0.0,0.0,0.0,0.0,0.0,0.0,0.0,0.0,0.0,0.0,0.0,0.0,0.0,0.0,0.0,0.0,0.0,0.0,0.0,0.0,0.0,0.0,0.0,0.0,0.0,0.0,0.0,0.0,0.0,0.0,0.0,0.0,0.0,0.0,0.0,0.0,0.0,0.0,0.0,0.0,0.0,0.0,0.0,0.0,0.0,0.0,0.0,0.0,0.0,0.0,0.0,0.0,0.0,0.0,0.0,0.0,0.0,0.0,0.0,0.0,0.0,0.0,0.0,0.0,0.0,0.0,0.0,0.0,0.0,0.0,0.0,0.0,0.0,0.0,0.0,0.0,0.0,0.0,0.0,0.0,0.0,0.0,0.0,0.0,0.0,0.0,0.0,0.0,0.0,0.0,0.0,0.0,0.0,0.0,0.0,0.0,0.0,0.0,0.0,0.0,0.0,0.0,0.0,0.0,0.0,0.0,0.0,0.0,0.0,0.0,0.0,0.0,0.0,0.0,0.0,0.0,0.0,0.0,0.0,0.0,0.0,0.0,0.0,0.0,0.0,0.0,0.0,0.0,0.0,0.0,0.0,0.0,0.0,0.0,0.0,0.0,0.0,0.0,0.0,0.0,0.0,0.0,0.0,0.0,0.0,0.0,0.0,0.0,0.0,0.0,0.0,0.0,0.0,0.0,0.0,0.0,0.0,0.0,0.0,0.0,0.0,0.0,0.0,0.0,0.0,0.0,0.0,0.0,0.0,0.0,0.0,0.0,0.0,0.0,0.0,0.0,0.0,0.0,0.0,0.0,0.0,0.0,0.0,0.0,0.0,0.0,0.0,0.0,0.0,0.0,0.0,0.0,0.0,0.0,0.0,0.0,0.0,0.0,0.0,0.0,0.0,0.0,0.0,0.0,0.0,0.0,0.0,0.0,0.0,0.0,0.0,0.0,0.0,0.0,0.0,0.0,0.0,0.0,0.0,0.0,0.0,0.0,0.0,0.0,0.0,0.0,0.0,0.0,0.0,0.0,0.0,0.0,0.0,0.0,0.0,0.0,0.0,0.0,0.0,0.0,0.0,0.0,0.0,0.0,0.0,0.0,0.0,0.0,0.0,0.0,0.0,0.0,0.0,0.0,0.0,0.0,0.0,0.0,0.0,0.0,0.0,0.0,0.0,0.0,0.0,0.0,0.0,0.0,0.0,0.0,0.0,0.0,0.0,0.0,0.0,0.0,0.0,0.0,0.0,0.0,0.0,0.0,0.0,0.0,0.0,0.0,0.0,0.0,0.0,0.0,0.0,0.0,0.0,0.0,0.0,0.0,0.0,0.0,0.0,0.0,0.0,0.0,0.0,0.0,0.0,0.0,0.0,0.0,0.0,0.0,0.0,0.0,0.0,0.0,0.0,0.0,0.0,0.0,0.0,0.0,0.0,0.0,0.0,0.0,0.0,0.0,0.0,0.0,0.0,0.0,0.0,0.0,0.0,0.0,0.0,0.0,0.0,0.0,0.0,0.0,0.0,0.0,0.0,0.0,0.0,0.0,0.0,0.0,0.0,0.0,0.0,0.0,0.0,0.0,0.0,0.0,0.0,0.0,0.0,0.0,0.0,0.0,0.0,0.0,0.0,0.0,0.0,0.0,0.0,0.0,0.0,0.0,0.0,0.0,0.0,0.0,0.0,0.0,0.0,0.0,0.0,0.0,0.0,0.0,0.0,0.0,0.0,0.0,0.0,0.0,0.0,0.0,0.0,0.0,0.0,0.0,0.0,0.0,0.0,0.0,0.0,0.0,0.0,0.0,0.0,0.0,0.0,0.0,0.0,0.0,0.0,0.0,0.0,0.0,0.0,0.0,0.0,0.0,0.0,0.0,0.0,0.0,0.0,0.0,0.0,0.0,0.0,0.0,0.0,0.0,0.0,0.0,0.0,0.0,0.0,0.0,0.0,0.0,0.0,0.0,0.0,0.0,0.0,0.0,0.0,0.0,0.0,0.0,0.0,0.0,0.0,0.0,0.0,0.0,0.0,0.0,0.0,0.0,0.0,0.0,0.0,0.0,0.0,0.0,0.0,0.0,0.0,0.0,0.0,0.0,0.0,0.0,0.0,0.0,0.0,0.0,0.0,0.0,0.0,0.0,0.0,0.0,0.0,0.0,0.0,0.0,0.0,0.0,0.0,0.0,0.0,0.0,0.0,0.0,0.0,0.0,0.0,0.0,0.0,0.0,0.0,0.0,0.0,0.0,0.0,0.0,0.0,0.0,0.0,0.0,0.0,0.0,0.0,0.0,0.0,0.0,0.0,0.0,0.0,0.0,0.0,0.0,0.0,0.0,0.0,0.0,0.0,0.0,0.0,0.0,0.0,0.0,0.0,0.0,0.0,0.0,0.0,0.0,0.0,0.0,0.0,0.0,0.0,0.0,0.0,0.0,0.0,0.0,0.0,0.0,0.0,0.0,0.0,0.0,0.0,0.0,0.0,0.0,0.0,0.0,0.0,0.0,0.0,0.0,0.0,0.0,0.0,0.0,0.0,0.0,0.0,0.0,0.0,0.0,0.0,0.0,0.0,0.0,0.0,0.0,0.0,0.0,0.0,0.0,0.0,0.0,0.0,0.0,0.0,0.0,0.0,0.0,0.0,0.0,0.0,0.0,0.0,0.0,0.0,0.0,0.0,0.0,0.0,0.0,0.0,0.0,0.0,0.0,0.0,0.0,0.0,0.0,0.0,0.0,0.0,0.0,0.0,0.0,0.0,0.0,0.0,0.0,0.0,0.0,0.0,0.0,0.0,0.0,0.0,0.0,0.0,0.0,0.0,0.0,0.0,0.0,0.0,0.0,0.0,0.0,0.0,0.0,0.0,0.0,0.0,0.0,0.0,0.0,0.0,0.0,0.0,0.0,0.0,0.0,0.0,0.0,0.0,0.0,0.0,0.0,0.0,0.0,0.0,0.0,0.0,0.0,0.0,0.0,0.0,0.0,0.0,0.0,0.0,0.0,0.0,0.0,0.0,0.0,0.0,0.0,0.0,0.0,0.0,0.0,0.0,0.0,0.0,0.0,0.0,0.0,0.0,0.0,0.0,0.0,0.0,0.0,0.0,0.0,0.0,0.0,0.0,0.0,0.0,0.0,0.0,0.0,0.0,0.0,0.0,0.0,0.0,0.0,0.0,0.0,0.0,0.0,0.0,0.0,0.0,0.0,0.0,0.0,0.0,0.0,0.0,0.0,0.0,0.0,0.0,0.0,0.0,0.0,0.0,0.0,0.0,0.0,0.0,0.0,0.0,0.0,0.0,0.0,0.0,0.0,0.0,0.0,0.0,0.0,0.0,0.0,0.0,0.0,0.0,0.0,0.0,0.0,0.0,0.0,0.0,0.0,0.0,0.0,0.0,0.0,0.0,0.0,0.0,0.0,0.0,0.0,0.0,0.0,0.0,0.0,0.0,0.0,0.0,0.0,0.0,0.0,0.0,0.0,0.0,0.0,0.0,0.0,0.0,0.0,0.0,0.0,0.0,0.0,0.0,0.0,0.0,0.0,0.0,0.0,0.0,0.0,0.0,0.0,0.0,0.0,0.0,0.0,0.0,0.0,0.0,0.0,0.0,0.0,0.0,0.0,0.0,0.0,0.0,0.0,0.0,0.0,0.0,0.0,0.0,0.0,0.0,0.0,0.0,0.0,0.0,0.0,0.0,0.0,0.0,0.0,0.0,0.0,0.0,0.0,0.0,0.0,0.0,0.0,0.0,0.0,0.0,0.0,0.0,0.0,0.0,0.0,0.0,0.0,0.0,0.0,0.0,0.0,0.0,0.0,0.0,0.0,0.0,0.0,0.0,0.0,0.0,0.0,0.0,0.0,0.0,0.0,0.0,0.0,0.0,0.0,0.0,0.0,0.0,0.0,0.0,0.0,0.0,0.0,0.0,0.0,0.0,0.0,0.0,0.0,0.0,0.0,0.0,0.0,0.0,0.0,0.0,0.0,0.0,0.0,0.0,0.0,0.0,0.0,0.0,0.0,0.0,0.0,0.0,0.0,0.0,0.0,0.0,0.0,0.0,0.0,0.0,0.0,0.0,0.0,0.0,0.0,0.0,0.0,0.0,0.0,0.0,0.0,0.0,0.0,0.0,0.0,0.0,0.0,0.0,0.0,0.0,0.0,0.0,0.0,0.0,0.0,0.0,0.0,0.0,0.0,0.0,0.0,0.0,0.0,0.0,0.0,0.0,0.0,0.0,0.0,0.0,0.0,0.0,0.0,0.0,0.0,0.0,0.0,0.0,0.0,0.0,0.0,0.0,0.0,0.0,0.0,0.0,0.0,0.0,0.0,0.0,0.0,0.0,0.0,0.0,0.0,0.0,0.0,0.0,0.0,0.0,0.0,0.0,0.0,0.0,0.0,0.0,0.0,0.0,0.0,0.0,0.0,0.0,0.0,0.0,0.0,0.0,0.0,0.0,0.0,0.0,0.0,0.0,0.0,0.0,0.0,0.0,0.0,0.0,0.0,0.0,0.0,0.0,0.0,0.0,0.0,0.0,0.0,0.0,0.0,0.0,0.0,0.0,0.0,0.0,0.0,0.0,0.0,0.0,0.0,0.0,0.0,0.0,0.0,0.0,0.0,0.0,0.0,0.0,0.0,0.0,0.0,0.0,0.0,0.0,0.0,0.0,0.0,0.0,0.0,0.0,0.0,0.0,0.0,0.0,0.0,0.0,0.0,0.0,0.0,0.0,0.0,0.0,0.0,0.0,0.0,0.0,0.0,0.0,0.0,0.0,0.0,0.0,0.0,0.0,0.0,0.0,0.0,0.0,0.0,0.0,0.0,0.0,0.0,0.0,0.0,0.0,0.0,0.0,0.0,0.0,0.0,0.0,0.0,0.0,0.0,0.0,0.0,0.0,0.0,0.0,0.0,0.0,0.0,0.0,0.0,0.0,0.0,0.0,0.0,0.0,0.0,4.606,0.0,0.0,0.0,0.0,0.0,0.0,0.0,0.0,0.0,0.0,0.0,0.0,0.0,0.0,0.0,0.0,0.0,0.0,0.0,0.0,0.0,0.0,0.0,0.0,0.0,0.0,0.0,0.0,0.0,0.0,0.0,0.0,0.0,0.0,0.0,0.0,0.0,0.0,0.0,5.2727,5.2484,5.3344,5.2018,5.1153,5.063,0.0,0.0,0.0,0.0,0.0,0.0,0.0,0.0,0.0,0.0,0.0,0.0,0.0,0.0,0.0,0.0,0.0,0.0,0.0,0.0,0.0,0.0,0.0,0.0,0.0,0.0,0.0,0.0,0.0,0.0,0.0,0.0,0.0,0.0,0.0,0.0,0.0,0.0,0.0,0.0,0.0,0.0,0.0,0.0,0.0,0.0,0.0,0.0,0.0,0.0,0.0,0.0,0.0,0.0,0.0,0.0,0.0,0.0,0.0,0.0,0.0,0.0,0.0,0.0,0.0,0.0,0.0,0.0,0.0,0.0,0.0,4.7337,0.0,0.0,0.0,0.0,0.0,0.0,0.0,0.0,0.0,0.0,0.0,0.0,0.0,0.0,0.0,0.0,0.0,0.0,0.0,0.0,0.0,0.0,0.0,0.0,0.0,0.0,0.0,0.0,0.0,0.0,0.0,0.0,0.0,0.0,0.0,0.0,0.0,0.0,5.3997,5.3375,5.3316,5.33,5.2788,5.1793,5.1014,0.0,0.0,0.0,0.0,0.0,0.0,0.0,0.0,0.0,0.0,0.0,0.0,0.0,0.0,0.0,0.0,0.0,0.0,0.0,0.0,0.0,0.0,0.0,0.0,0.0,0.0,0.0,0.0,0.0,0.0,0.0,0.0,0.0,0.0,0.0,0.0,0.0,0.0,0.0,0.0,0.0,0.0,0.0,0.0,0.0,0.0,0.0,0.0,0.0,0.0,0.0,0.0,0.0,0.0,0.0,0.0,0.0,0.0,0.0,0.0,0.0,0.0,0.0,0.0,0.0,5.5681,5.5142,5.4962,5.492,5.2214,5.0412,4.9361,0.0,0.0,0.0,0.0,0.0,0.0,0.0,0.0,0.0,0.0,0.0,0.0,0.0,0.0,0.0,0.0,0.0,0.0,0.0,0.0,0.0,0.0,0.0,0.0,0.0,0.0,0.0,0.0,0.0,0.0,0.0,0.0,0.0,0.0,5.4942,5.4955,5.6721,5.5878,5.5044,5.4132,5.4136,5.4072,5.3891,5.3479,0.0,0.0,0.0,0.0,0.0,0.0,0.0,0.0,0.0,0.0,0.0,0.0,0.0,0.0,0.0,0.0,0.0,0.0,0.0,0.0,0.0,0.0,0.0,0.0,0.0,0.0,0.0,0.0,0.0,0.0,0.0,0.0,0.0,0.0,0.0,0.0,0.0,0.0,0.0,0.0,0.0,0.0,0.0,4.9613,4.968,0.0,0.0,0.0,0.0,0.0,0.0,0.0,0.0,0.0,0.0,0.0,0.0,0.0,0.0,5.6964,5.7636,5.8133,5.8364,5.8762,5.8907,5.8872,5.8619,5.811,5.7342,5.6906,0.0,5.2648,5.1151,0.0,0.0,0.0,0.0,0.0,0.0,0.0,0.0,0.0,0.0,0.0,0.0,0.0,0.0,0.0,0.0,0.0,0.0,0.0,0.0,0.0,0.0,0.0,0.0,0.0,0.0,0.0,0.0,0.0,0.0,0.0,0.0,5.7261,5.5836,5.5587,5.6546,5.7036,5.7025,5.6541,5.6364,5.6379,5.6541,5.6408,5.532,5.3626,5.3745,0.0,0.0,0.0,0.0,0.0,0.0,0.0,0.0,0.0,0.0,0.0,0.0,0.0,0.0,0.0,0.0,0.0,0.0,0.0,0.0,0.0,0.0,0.0,0.0,0.0,0.0,0.0,0.0,0.0,0.0,0.0,0.0,0.0,0.0,0.0,0.0,0.0,0.0,0.0,4.9549,5.014,5.1177,5.1126,5.1461,0.0,0.0,0.0,0.0,0.0,0.0,0.0,0.0,0.0,5.7382,5.8204,5.9275,6.0698,6.1172,6.1759,6.2367,6.271,6.295,6.302,6.305,6.2332,6.104,6.106,5.9864,5.7651,5.4324,5.2722,5.2232,0.0,0.0,0.0,0.0,0.0,0.0,0.0,0.0,0.0,0.0,0.0,0.0,0.0,0.0,0.0,0.0,0.0,0.0,0.0,0.0,0.0,5.4707,0.0,0.0,0.0,0.0,0.0,0.0,0.0,5.7845,5.7679,5.679,5.6357,5.6439,5.7973,5.8704,5.8689,5.8678,5.8764,5.9023,5.881,5.7111,5.4429,5.4845,5.4857,0.0,0.0,0.0,0.0,0.0,0.0,0.0,0.0,0.0,0.0,0.0,0.0,0.0,0.0,0.0,0.0,0.0,0.0,0.0,0.0,0.0,0.0,0.0,0.0,0.0,0.0,0.0,0.0,0.0,0.0,0.0,0.0,0.0,0.0,0.0,0.0,0.0,0.0,5.0273,5.1145,5.2847,5.288,5.3404,0.0,0.0,0.0,0.0,0.0,0.0,5.7424,5.8998,6.0129,6.0723,6.1839,6.3005,6.419,6.4707,6.5345,6.6131,6.6472,6.6754,6.7012,6.6912,6.611,6.4822,6.4643,6.3809,6.2266,5.7791,5.5605,5.4971,5.3447,5.2486,0.0,5.2469,5.234,5.2178,0.0,0.0,0.0,0.0,0.0,0.0,0.0,0.0,0.0,0.0,0.0,0.0,0.0,0.0,5.3948,5.4028,5.44,5.5349,0.0,0.0,0.0,5.886,5.8093,5.7547,5.7412,5.7601,5.7495,5.7056,5.8915,5.9815,5.9851,6.0585,6.0956,6.0936,6.0172,5.9106,5.791,5.7231,5.6335,5.5337,0.0,0.0,0.0,0.0,0.0,0.0,0.0,0.0,0.0,0.0,0.0,0.0,0.0,0.0,0.0,0.0,0.0,0.0,0.0,0.0,0.0,0.0,0.0,0.0,0.0,0.0,0.0,0.0,0.0,0.0,0.0,0.0,0.0,0.0,0.0,0.0,0.0,0.0,0.0,5.4618,5.5662,0.0,0.0,0.0,0.0,5.8776,5.9505,6.0554,6.1975,6.2164,6.3193,6.5311,6.5446,6.6044,6.725,6.8306,6.8917,6.9197,6.989,7.0224,7.0235,6.9349,6.8637,6.8127,6.7412,6.6653,6.5639,6.1439,5.8799,5.7305,5.6741,5.5839,5.4932,5.5125,5.5727,5.6404,0.0,0.0,0.0,0.0,0.0,0.0,0.0,0.0,0.0,0.0,0.0,0.0,0.0,5.4581,5.4373,5.464,5.4665,5.5129,5.6183,0.0,0.0,5.7935,5.7741,5.7873,5.85,5.9534,6.016,6.046,6.1584,6.2164,6.2164,6.2449,6.2571,6.2556,6.2271,6.1803,6.1054,5.8593,5.7177,5.6571,5.6082,5.5584,0.0,0.0,0.0,0.0,0.0,0.0,0.0,0.0,0.0,0.0,0.0,0.0,0.0,0.0,0.0,0.0,0.0,0.0,0.0,0.0,0.0,0.0,0.0,0.0,0.0,0.0,0.0,0.0,0.0,0.0,0.0,0.0,0.0,0.0,0.0,0.0,0.0,5.8027,5.835,0.0,0.0,6.1166,6.1666,6.255,6.3734,6.485,6.5865,6.688,6.7781,6.8593,6.9045,6.9657,7.0388,7.094,7.1333,7.1587,7.1962,7.2096,7.1955,7.1758,7.1314,7.0701,7.0455,6.9648,6.8394,6.6778,6.4269,6.1318,6.0183,5.9343,5.8799,5.9003,5.9257,5.9536,0.0,0.0,0.0,0.0,0.0,0.0,0.0,0.0,0.0,0.0,0.0,5.5763,5.5773,5.5303,5.5161,5.5609,5.5298,5.5579,5.6716,0.0,0.0,5.8099,5.839,5.8934,5.9877,6.1292,6.2376,6.3092,6.4106,6.4606,6.4642,6.4892,6.4999,6.4963,6.4749,6.4369,6.3752,6.1007,5.9137,5.8017,5.7235,5.6544,5.5904,0.0,0.0,0.0,0.0,0.0,0.0,0.0,0.0,0.0,0.0,0.0,0.0,0.0,0.0,0.0,0.0,0.0,0.0,0.0,0.0,0.0,0.0,0.0,0.0,0.0,0.0,0.0,0.0,0.0,0.0,0.0,0.0,0.0,0.0,0.0,5.8493,6.1231,6.1889,6.274,6.4353,6.5005,6.5759,6.68,6.7996,6.9113,7.0128,7.1142,7.1785,7.2056,7.2621,7.3161,7.3672,7.3976,7.4278,7.458,7.4762,7.4762,7.4556,7.4454,7.4168,7.3732,7.3133,7.2426,7.1639,7.0827,6.892,6.634,6.4206,6.3009,6.2512,6.264,6.2538,6.2336,0.0,0.0,0.0,0.0,0.0,0.0,0.0,0.0,0.0,0.0,5.6976,5.7087,5.678,5.6265,5.6212,5.6873,5.6258,5.6645,5.8721,5.7424,0.0,5.9552,6.0101,6.0761,6.1588,6.285,6.3912,6.4753,6.6303,6.7069,6.714,6.7854,6.8175,6.8104,6.739,6.6701,6.599,6.455,6.2352,5.9757,5.8904,5.8071,5.7219,0.0,0.0,0.0,0.0,0.0,0.0,0.0,0.0,0.0,0.0,0.0,0.0,0.0,0.0,0.0,0.0,0.0,0.0,0.0,0.0,0.0,0.0,0.0,0.0,0.0,0.0,0.0,0.0,0.0,0.0,0.0,0.0,0.0,5.8805,6.0406,6.2457,6.4243,6.6345,6.7981,6.876,6.9936,7.0888,7.1436,7.2157,7.3206,7.4661,7.4762,7.51,7.5835,7.613,7.6493,7.7034,7.7455,7.7829,7.8108,7.8361,7.8337,7.8059,7.7338,7.7086,7.7152,7.5456,7.4998,7.5299,7.3334,7.2507,7.2146,6.8663,6.6734,6.5902,6.5913,6.5447,6.4843,0.0,0.0,0.0,0.0,0.0,0.0,0.0,0.0,0.0,0.0,5.7352,5.738,5.7882,5.7306,5.7228,5.7994,5.7852,5.7854,5.8156,0.0,0.0,6.0287,6.1428,6.2563,6.3699,6.5244,6.666,6.8,6.8463,6.898,6.9551,6.9765,6.9618,6.9196,6.8981,6.8541,6.7932,6.7506,6.6329,6.4457,6.1233,5.9521,5.8787,0.0,0.0,0.0,0.0,0.0,0.0,0.0,0.0,0.0,0.0,0.0,0.0,0.0,0.0,0.0,0.0,0.0,0.0,0.0,0.0,0.0,0.0,0.0,0.0,0.0,0.0,0.0,0.0,0.0,0.0,0.0,0.0,6.408,6.2968,6.4547,6.6796,6.9198,7.0526,7.1943,7.3604,7.3909,7.4537,7.5844,7.6252,7.6956,7.8099,7.8676,7.905,7.9254,7.9523,7.9712,7.9878,8.0024,8.0126,8.0185,8.0258,7.9985,7.9367,7.9162,7.8777,7.8279,7.7798,7.7334,7.6905,7.581,7.5048,7.4219,7.0524,6.892,6.864,6.8081,6.7998,6.8141,0.0,0.0,0.0,0.0,0.0,0.0,0.0,0.0,0.0,0.0,5.7777,5.7851,5.827,5.7828,5.8017,5.9252,5.9065,5.8968,5.919,0.0,6.0696,6.1456,6.311,6.4654,6.6053,6.7624,6.9087,7.03,7.0621,7.1048,7.1599,7.1599,7.1451,7.117,7.117,7.0875,7.0266,7.0136,6.9226,6.7698,6.5035,6.2786,6.0822,5.9611,5.9066,5.8905,5.8606,5.8339,5.8051,5.7518,0.0,0.0,0.0,0.0,0.0,0.0,0.0,0.0,0.0,0.0,0.0,0.0,0.0,0.0,0.0,0.0,0.0,0.0,0.0,0.0,0.0,0.0,0.0,0.0,6.6396,6.8633,6.8819,6.9598,7.1062,7.3615,7.4878,7.61,7.7491,7.7776,7.8345,7.9447,7.9644,8.0124,8.0988,8.1465,8.1703,8.1703,8.1942,8.209,8.209,8.2188,8.2237,8.2237,8.2237,8.1983,8.144,8.144,8.1029,0.0,7.9847,7.9371,7.8783,7.7819,7.7248,0.0,0.0,0.0,0.0,0.0,7.0361,7.0469,0.0,0.0,0.0,0.0,0.0,0.0,0.0,0.0,0.0,0.0,0.0,5.8285,5.8241,5.8012,5.8605,6.0449,6.007,6.0204,0.0,6.1725,6.2269,6.309,6.5115,6.6939,6.8404,7.0011,7.1261,7.2154,7.2833,7.3314,7.365,7.365,7.3718,7.3835,7.3744,7.3377,7.2772,7.2382,7.1402,6.9992,6.9416,6.6812,6.3171,6.1363,6.0843,6.0923,6.0156,5.959,5.9106,5.8918,0.0,0.0,0.0,0.0,0.0,0.0,0.0,0.0,0.0,0.0,0.0,0.0,0.0,0.0,0.0,0.0,0.0,0.0,0.0,0.0,0.0,0.0,0.0,0.0,7.0746,7.3804,7.5383,7.5254,7.569,7.7418,7.8993,8.0224,8.0815,8.1455,8.2056,8.2667,8.266,8.2943,8.372,0.0,0.0,0.0,0.0,8.4155,8.4155,8.4412,8.4476,8.4373,8.4373,8.4171,8.3777,8.3777,8.3365,8.2619,8.1738,8.1163,8.0763,7.9572,7.9137,7.8878,7.555,7.4117,7.3912,7.3051,7.2606,0.0,0.0,0.0,0.0,0.0,0.0,0.0,0.0,0.0,0.0,5.8148,5.7801,5.781,5.8439,5.8267,5.8812,6.0598,6.1419,6.2411,6.3798,6.3366,6.3846,6.5544,6.784,6.9532,7.043,7.201,7.3555,7.4991,7.5135,7.5871,7.7128,7.7128,7.6894,7.6421,7.5961,7.5323,7.4543,7.399,7.3441,7.282,7.1732,6.8992,6.5458,6.4269,6.3482,6.2918,6.2128,6.1759,6.146,6.0121,5.9418,5.8925,5.7511,0.0,0.0,0.0,0.0,0.0,0.0,0.0,0.0,0.0,0.0,0.0,0.0,0.0,0.0,0.0,0.0,0.0,0.0,0.0,0.0,7.0277,7.4035,7.7396,7.9508,8.1459,8.2083,8.0466,8.1841,8.3333,8.4447,8.4529,8.4978,8.6281,8.5969,8.6157,8.7178,8.7212,0.0,8.7212,8.7504,8.7632,8.7632,8.7683,8.7398,8.6742,0.0,0.0,8.4875,8.4875,8.4461,8.3679,8.3492,8.3059,8.2397,8.1698,8.0871,7.9736,7.7227,7.5626,7.4703,7.4718,7.4796,7.4891,0.0,0.0,0.0,0.0,0.0,0.0,0.0,0.0,0.0,0.0,5.8044,5.8226,5.8551,5.846,5.8942,6.0269,6.1691,6.2933,6.3943,6.4766,6.5714,6.6839,6.9162,7.0996,7.2166,7.3765,7.5168,7.6355,7.675,7.7415,7.8243,7.835,7.8292,7.8103,7.7855,7.7572,7.7271,7.655,7.5871,7.5155,7.4158,7.2011,6.9239,6.7338,6.6019,6.5024,6.4129,6.3681,6.33,6.1876,6.1033,6.0382,5.9434,5.8454,5.7784,0.0,0.0,0.0,0.0,0.0,0.0,0.0,0.0,0.0,0.0,0.0,0.0,0.0,0.0,6.5759,0.0,0.0,7.1645,7.4329,7.742,8.0299,8.2593,8.4786,8.5634,8.4215,8.5224,8.6396,8.7423,8.7404,8.7567,8.8178,8.7959,8.7977,8.839,8.839,8.839,8.839,8.8554,8.8605,8.8605,8.8605,8.8475,8.8187,8.8187,8.7883,8.7305,8.6889,8.63,8.5537,8.5132,8.4543,8.3781,8.3159,8.2083,8.0712,7.9554,7.8252,7.7011,7.7155,7.6798,7.6188,0.0,0.0,0.0,0.0,0.0,0.0,0.0,0.0,0.0,0.0,5.8299,5.8555,5.8456,5.8419,5.8906,0.0,6.1628,6.292,6.388,6.5932,6.7346,6.7858,7.031,7.2257,7.3541,7.5287,7.6549,7.7252,7.8081,7.8674,7.9015,7.9171,7.9344,7.9517,7.95,7.9592,7.967,7.8766,7.7913,7.7075,7.6224,7.4742,7.2798,7.0475,6.8687,6.725,6.6141,6.5538,6.5048,6.3776,6.2671,6.1793,6.1427,6.0295,5.9229,5.9861,5.9217,0.0,0.0,0.0,0.0,0.0,0.0,0.0,0.0,0.0,6.7477,6.6725,6.8204,6.9854,7.0645,7.2821,7.5415,7.8202,8.0732,8.3078,8.5182,8.7141,8.8297,8.8106,8.8439,8.8959,8.9617,8.9826,8.9876,8.9738,8.9877,8.9879,8.9648,8.9648,8.9579,8.9415,8.9415,8.9372,8.9199,8.9199,8.9232,8.9287,8.9287,8.9318,8.9369,8.8742,8.8011,8.7245,8.6316,8.5609,8.5029,8.4286,8.3194,8.1985,8.1985,8.1043,7.9661,7.9443,7.8524,7.7382,0.0,0.0,0.0,0.0,0.0,0.0,0.0,0.0,0.0,0.0,0.0,0.0,0.0,0.0,0.0,6.119,6.1812,6.3137,6.571,6.6938,6.8022,6.9155,7.2278,7.4061,7.4099,7.6386,7.7879,7.8505,7.9494,8.0361,8.1086,8.1223,8.1289,8.127,8.091,8.0662,8.0491,7.9239,7.8587,7.8212,7.7286,7.5833,7.415,7.372,7.2042,6.9689,6.8156,6.7572,6.7267,6.5457,6.4113,6.3035,6.2033,6.0905,6.0078,6.0686,0.0,6.1364,0.0,0.0,0.0,6.7777,6.761,6.7802,0.0,0.0,7.0698,7.2795,7.3441,7.3936,7.485,7.6905,7.9016,8.0757,8.367,8.6242,8.7641,9.001,9.1576,9.1552,9.0621,9.0167,9.0682,9.1391,9.1964,9.2346,9.3042,9.3425,9.3399,9.3399,9.306,9.2339,9.2339,9.1991,9.1356,9.1356,9.1008,9.0303,9.0303,8.998,8.9404,8.9299,8.8847,8.8011,8.6525,8.5983,8.6079,8.5345,8.4656,8.4067,8.4067,8.312,8.1647,8.0749,8.0023,7.9458,0.0,0.0,0.0,0.0,0.0,0.0,0.0,0.0,0.0,0.0,0.0,0.0,0.0,0.0,0.0,6.1069,6.1694,6.3075,6.556,6.7343,6.8668,6.9471,7.2635,7.4384,7.4321,7.6688,7.8257,7.8991,7.9895,8.0781,8.1683,8.1852,8.1985,8.2064,8.196,8.1955,8.1891,8.0428,7.9681,7.936,7.8032,7.638,7.4671,7.4632,7.3072,7.0668,6.9131,6.7751,0.0,0.0,6.4323,6.3134,6.2605,6.1857,6.135,6.2062,6.2291,0.0,6.4833,0.0,0.0,0.0,7.1177,7.1344,7.4367,7.5012,7.521,7.5981,7.7157,7.8069,7.825,8.0239,8.24,0.0,8.6386,8.8716,9.0586,9.1974,9.2896,9.3357,9.3112,9.2744,9.2504,9.3205,9.3675,9.3735,9.4023,9.4146,9.4025,9.3999,9.386,9.3512,9.3512,9.3338,9.3024,9.2546,9.224,9.2079,9.1625,9.1341,9.1176,9.0721,8.9811,8.8621,8.7992,8.7269,8.6487,8.6195,8.5805,8.5402,8.4943,8.4518,8.3989,8.2425,8.1388,8.0808,0.0,0.0,0.0,0.0,0.0,0.0,0.0,0.0,0.0,0.0,0.0,0.0,0.0,0.0,5.9054,6.0852,6.153,6.282,6.5017,6.715,6.8655,6.9417,7.232,7.4065,7.4457,7.6631,7.811,7.888,7.9765,8.0575,8.1293,8.1521,8.1681,8.1807,8.2016,8.2153,8.2163,8.08,8.0133,7.9816,7.8131,7.6493,7.5,7.4478,7.2825,7.0592,6.9457,6.7884,0.0,0.0,6.4329,6.3197,6.3094,6.271,6.2467,6.313,6.3663,6.4679,6.7598,0.0,0.0,7.3746,7.4411,7.4939,7.6697,7.8171,7.9123,7.8948,8.0308,8.1424,8.1078,8.3074,8.5202,8.6587,8.8554,9.0698,9.2782,9.3459,9.3959,9.4655,9.5067,9.5016,9.4303,9.4759,9.5034,9.4856,9.5005,9.5068,9.4861,9.4861,9.4756,9.4547,9.4512,9.4442,9.4233,9.3649,9.3367,9.33,9.2775,9.2515,9.2477,9.167,9.0687,8.9598,8.9177,8.844,8.7524,8.7313,8.6986,8.6685,8.6061,8.5778,8.5538,8.4225,8.3049,8.2063,0.0,0.0,0.0,0.0,0.0,0.0,0.0,0.0,0.0,0.0,0.0,0.0,0.0,0.0,5.9303,6.0874,6.1316,6.2401,6.4481,6.6161,6.7665,6.9064,7.1341,7.3215,7.4641,7.6308,7.742,7.8025,7.9153,7.9716,7.9769,8.0097,8.025,8.0265,8.0467,8.0578,8.0519,7.984,7.9454,7.9185,7.7361,7.6144,7.5193,7.3451,7.1356,6.9334,6.9003,0.0,0.0,0.0,6.435,6.356,6.3448,6.3275,0.0,6.3506,6.5373,0.0,0.0,0.0,7.3132,7.5388,7.6982,7.8441,7.9987,8.0994,8.1784,8.2326,8.3073,8.3566,8.3345,8.5231,8.7087,8.7907,8.9998,9.2068,9.3638,9.4543,9.5154,9.5434,9.6175,9.6437,0.0,9.5848,9.5857,9.5857,9.6594,9.7016,9.7016,9.7016,9.6665,9.5892,9.5857,9.5506,9.4794,9.4759,9.4348,9.3611,9.3576,9.3155,9.2477,9.167,9.1248,9.1143,8.9633,8.9225,8.9558,8.8744,8.8291,8.8014,8.8014,8.7072,8.5763,8.6136,8.5047,8.3361,0.0,0.0,0.0,0.0,0.0,0.0,0.0,0.0,0.0,0.0,0.0,0.0,0.0,0.0,0.0,0.0,6.1127,6.2215,6.3907,6.6052,6.7689,6.8593,7.0935,7.2731,7.3762,7.4721,7.5904,7.7186,7.8049,7.8772,7.9468,8.0295,8.072,8.0796,8.0875,8.0591,8.0046,7.9281,7.8447,7.7547,7.6573,7.524,7.3758,7.3098,7.1031,6.8413,0.0,0.0,0.0,0.0,0.0,0.0,6.3189,0.0,0.0,6.5986,0.0,0.0,0.0,0.0,7.595,7.8959,7.9931,8.0605,8.245,8.3484,8.4065,8.43,8.4746,8.5021,8.4826,8.6297,8.7946,8.9151,9.1158,9.3164,9.4907,9.5867,9.6335,9.6297,9.7014,0.0,0.0,0.0,0.0,9.6716,9.7269,9.7496,9.7112,9.7086,9.6981,9.67,9.67,9.6585,9.6339,9.6131,9.5918,9.5636,9.494,9.4184,9.3439,9.3155,9.2821,9.2484,9.195,9.131,9.0595,9.0344,8.9992,8.9631,8.8963,8.8566,8.8232,8.7319,8.6557,8.5844,0.0,0.0,0.0,0.0,0.0,0.0,0.0,0.0,0.0,0.0,0.0,0.0,0.0,0.0,0.0,0.0,0.0,6.212,6.3329,6.5411,6.6898,6.7587,6.9645,7.1291,7.2368,7.3185,7.4437,7.6162,7.6696,7.7446,7.84,7.9106,7.9448,7.9539,7.9512,7.9225,7.8715,7.8191,7.7702,7.711,7.5794,7.4536,7.3328,7.2216,7.0014,0.0,0.0,0.0,0.0,0.0,0.0,0.0,0.0,0.0,0.0,0.0,0.0,0.0,0.0,7.6751,7.8668,8.136,8.2334,8.2901,8.4206,8.4861,8.5189,8.5189,8.4937,8.479,8.4932,8.6214,8.7837,8.9597,9.1872,9.4129,9.6074,9.6985,9.7458,9.7491,9.7914,0.0,0.0,0.0,0.0,9.7833,9.8077,9.8193,9.7945,9.7919,9.7814,9.7533,9.7679,9.7641,9.7394,9.7382,9.7237,9.6977,9.5711,9.4839,9.4316,9.4122,9.3864,9.3519,9.3285,9.282,9.2124,9.1604,9.1273,9.107,9.0153,8.98,8.9667,8.8648,8.7884,8.7211,0.0,0.0,0.0,0.0,0.0,0.0,0.0,0.0,0.0,0.0,0.0,0.0,0.0,0.0,0.0,0.0,0.0,0.0,6.2868,6.4316,6.5418,6.6127,6.7537,6.9038,7.0611,7.1652,7.3004,7.4696,7.4997,7.5634,7.6501,7.6485,7.6476,7.6514,7.646,7.6472,7.6514,7.6476,7.6922,7.7417,7.4839,7.3846,7.3656,7.0761,0.0,0.0,0.0,0.0,0.0,0.0,0.0,0.0,0.0,0.0,0.0,0.0,0.0,7.4375,7.6679,7.9032,8.1177,8.2667,8.4094,8.517,8.5225,8.5188,8.5152,8.5115,8.3876,8.3074,0.0,0.0,8.6972,8.9315,9.226,9.5024,9.7137,9.7889,9.8418,0.0,0.0,0.0,0.0,0.0,0.0,9.9303,0.0,9.9233,9.9438,9.9473,9.9183,9.8497,9.8879,9.8742,9.8023,9.8466,9.8337,9.7574,9.6061,9.5311,9.5204,9.4679,9.441,9.4383,9.3776,9.378,9.4068,9.2582,9.2169,9.2356,9.159,9.0788,9.0077,9.004,8.9037,8.7614,0.0,0.0,0.0,0.0,0.0,0.0,0.0,0.0,0.0,0.0,0.0,0.0,0.0,0.0,0.0,0.0,0.0,0.0,6.3006,6.4513,6.5495,6.5688,6.6679,6.7668,6.8705,6.9025,6.9746,7.082,7.154,7.2029,7.2249,7.3002,7.3676,7.4319,7.4272,7.4255,7.4285,7.367,7.3047,7.2402,0.0,7.0273,6.9239,0.0,0.0,0.0,0.0,0.0,0.0,0.0,0.0,0.0,0.0,6.9486,7.0036,0.0,0.0,7.6922,7.9349,8.1216,8.289,8.464,8.4774,8.4741,8.5465,8.517,8.4567,8.398,8.3541,8.3087,0.0,0.0,0.0,8.9443,9.2872,0.0,9.7731,9.8465,0.0,9.8718,0.0,10.0205,10.0385,10.1192,0.0,0.0,10.151,10.0884,10.0306,10.0693,10.0907,10.078,10.0399,9.9981,9.9861,9.9775,9.9495,9.9049,9.8649,9.7815,9.6654,9.6535,9.624,9.5858,9.5701,9.5443,9.5111,9.4728,9.3907,9.2884,9.2514,9.1872,9.1031,9.0446,8.9971,8.9514,0.0,0.0,0.0,0.0,0.0,0.0,0.0,0.0,0.0,0.0,0.0,0.0,0.0,0.0,0.0,0.0,0.0,0.0,0.0,6.4059,6.496,6.496,6.5786,6.6425,6.6875,6.7447,6.8334,6.9653,6.9891,7.0412,7.1189,7.135,7.1654,7.2148,7.2101,7.212,7.21,7.1672,0.0,0.0,0.0,0.0,0.0,0.0,0.0,0.0,0.0,0.0,0.0,0.0,0.0,6.8568,7.1468,7.2275,7.2789,7.5689,0.0,7.9454,8.1929,8.3388,8.4584,8.5987,8.5642,8.4931,8.4776,8.4132,8.3104,8.1599,8.1305,0.0,0.0,0.0,0.0,0.0,0.0,0.0,9.8259,9.9215,9.9789,0.0,10.0616,0.0,10.1683,10.2578,10.3412,0.0,10.3093,10.2417,10.209,10.2405,10.2371,10.2201,10.1993,10.1587,10.1199,10.0703,10.0287,10.0104,9.9797,9.8995,9.7734,9.7471,9.7044,9.6394,0.0,9.6332,9.6025,9.5639,9.4978,9.406,9.3251,9.2628,9.2115,9.1272,9.0722,9.0356,0.0,0.0,0.0,0.0,0.0,0.0,0.0,0.0,0.0,0.0,0.0,0.0,0.0,0.0,0.0,0.0,0.0,0.0,0.0,0.0,6.4294,6.4294,6.496,6.5325,6.5305,6.6332,6.7694,6.9319,6.8837,6.9393,7.0914,7.0121,6.9767,0.0,0.0,0.0,0.0,0.0,0.0,0.0,0.0,0.0,0.0,0.0,0.0,0.0,0.0,0.0,0.0,0.0,7.1872,7.1284,7.3597,7.4882,7.6041,7.8516,8.0388,8.2076,8.4205,8.5416,8.6261,8.6831,8.6297,8.5196,8.3601,8.2553,8.1195,7.8772,0.0,7.8442,7.8442,8.2238,8.6001,8.7905,0.0,9.7507,9.8729,10.0011,10.0787,10.0996,10.169,10.2496,10.3095,10.4123,10.4808,10.4903,10.4287,10.4008,10.4192,10.418,10.3891,10.3204,10.3597,10.3276,10.218,10.1392,10.0991,10.0881,10.0209,9.9479,9.8619,9.8054,9.7365,9.658,0.0,0.0,9.6649,9.5951,9.5602,9.5345,9.3969,9.3308,9.3015,9.2244,9.1473,9.0776,0.0,0.0,0.0,0.0,0.0,0.0,0.0,0.0,0.0,0.0,0.0,0.0,0.0,0.0,0.0,0.0,0.0,0.0,0.0,0.0,0.0,6.4294,6.4444,6.4469,6.4339,6.4964,0.0,0.0,0.0,0.0,6.6506,6.6299,6.6526,0.0,0.0,0.0,0.0,0.0,0.0,0.0,0.0,0.0,0.0,0.0,0.0,0.0,0.0,0.0,0.0,7.2716,7.4184,7.5359,7.7194,7.8295,7.9433,8.184,8.3728,8.5049,8.549,8.6664,8.7655,8.7124,8.5894,8.4389,8.2774,8.1269,0.0,0.0,0.0,7.7546,7.7546,8.1493,8.5901,8.9295,9.3573,9.715,0.0,0.0,10.06,0.0,0.0,0.0,0.0,0.0,0.0,0.0,0.0,0.0,10.5008,10.5419,10.5378,10.4695,10.4796,10.4112,10.2582,10.2399,10.1996,10.1393,10.1209,10.0806,9.9963,9.9176,9.8388,9.7601,0.0,0.0,9.6685,9.6539,9.6098,9.5455,9.5198,9.4263,9.3088,9.2941,9.2317,9.1583,0.0,0.0,0.0,0.0,0.0,0.0,0.0,0.0,0.0,0.0,0.0,0.0,0.0,0.0,0.0,0.0,0.0,0.0,0.0,0.0,0.0,0.0,0.0,0.0,0.0,0.0,0.0,0.0,0.0,0.0,0.0,0.0,0.0,0.0,0.0,0.0,0.0,0.0,0.0,0.0,0.0,0.0,0.0,0.0,0.0,0.0,0.0,0.0,0.0,0.0,7.5506,7.9507,8.0718,8.1379,8.2296,8.5583,8.6481,8.6518,8.6921,8.7325,8.7399,8.6591,8.5159,8.3434,8.1415,0.0,0.0,0.0,7.5491,7.5931,7.5506,7.9764,0.0,8.5793,8.9806,9.3542,9.5899,0.0,0.0,0.0,0.0,0.0,0.0,0.0,0.0,0.0,0.0,0.0,10.5794,10.6099,10.6087,10.5789,10.529,10.4483,10.3293,10.2889,10.2301,10.1514,10.1514,10.111,10.0283,9.9475,9.8668,9.786,0.0,0.0,9.6685,9.6685,9.6465,9.6098,9.5639,9.4777,9.3675,9.3235,9.2537,9.1803,0.0,0.0,0.0,0.0,0.0,0.0,0.0,0.0,0.0,0.0,0.0,0.0,0.0,0.0,0.0,0.0,0.0,0.0,0.0,0.0,0.0,0.0,0.0,0.0,0.0,0.0,0.0,0.0,0.0,0.0,0.0,0.0,0.0,0.0,0.0,0.0,0.0,0.0,0.0,0.0,0.0,0.0,0.0,0.0,0.0,0.0,0.0,0.0,0.0,0.0,7.5506,8.0645,8.215,8.3564,8.5216,8.7858,8.8225,8.7802,8.7912,8.7619,8.7031,8.604,8.4609,8.2774,8.0367,7.8369,0.0,0.0,7.4184,7.4551,7.4258,7.8148,8.1746,0.0,8.6444,8.9987,9.2464,9.3822,0.0,0.0,0.0,0.0,0.0,0.0,0.0,0.0,0.0,0.0,0.0,10.6376,10.6376,10.6376,10.5715,10.4908,10.388,10.3293,10.2485,10.1514,10.1514,10.122,10.0503,9.9548,9.8778,9.808,0.0,0.0,0.0,9.6685,9.6705,9.6706,9.6082,9.5348,9.4577,9.3768,9.2923,9.2151,0.0,0.0,0.0,0.0,0.0,0.0,0.0,0.0,0.0,0.0,0.0,0.0,0.0,0.0,0.0,0.0,0.0,0.0,0.0,0.0,0.0,0.0,0.0,0.0,0.0,0.0,0.0,0.0,0.0,0.0,0.0,0.0,0.0,0.0,0.0,0.0,0.0,0.0,0.0,0.0,0.0,0.0,0.0,0.0,0.0,0.0,0.0,0.0,0.0,0.0,0.0,7.5153,7.8935,8.4132,8.8482,8.6664,0.0,0.0,8.7675,8.7582,8.7729,8.6204,8.4609,8.2774,8.0367,0.0,0.0,7.4037,7.3758,7.4221,7.5616,7.7561,8.0351,8.4772,8.7068,8.916,9.1583,9.3932,9.5492,0.0,0.0,0.0,0.0,0.0,0.0,0.0,0.0,0.0,0.0,10.6376,10.6376,10.6376,10.6302,10.5495,10.388,10.3806,10.2999,10.1514,10.1514,10.1514,10.131,9.9805,9.9071,9.8924,0.0,0.0,0.0,9.6685,9.68,9.697,9.6896,9.6492,9.5827,9.496,9.4129,9.3317,0.0,0.0,0.0,0.0,0.0,0.0,0.0,0.0,0.0,0.0,0.0,0.0,0.0,0.0,0.0,0.0,0.0,0.0,0.0,0.0,0.0,0.0,0.0,0.0,0.0,0.0,0.0,0.0,0.0,0.0,0.0,0.0,0.0,0.0,0.0,0.0,0.0,0.0,0.0,0.0,0.0,0.0,0.0,0.0,0.0,0.0,0.0,0.0,0.0,0.0,0.0,0.0,7.5359,8.0167,0.0,0.0,8.6371,8.6885,8.6407,8.6151,8.5747,8.4646,8.3141,8.1599,8.0147,0.0,7.5322,7.5175,7.4001,7.3487,7.5102,7.6313,7.8038,8.0975,8.2406,8.4315,8.7692,8.9454,9.1473,0.0,0.0,0.0,0.0,0.0,0.0,0.0,0.0,0.0,0.0,10.6376,10.6376,10.6376,10.6376,10.5789,10.4614,10.41,10.3293,10.2191,10.1677,10.1514,10.1514,10.0319,9.9608,0.0,0.0,0.0,0.0,9.7007,9.7026,9.7007,9.7138,9.6732,9.6066,9.5734,9.4736,9.3572,0.0,0.0,0.0,0.0,0.0,0.0,0.0,0.0,0.0,0.0,0.0,0.0,0.0,0.0,0.0,0.0,0.0,0.0,0.0,0.0,0.0,0.0,0.0,0.0,0.0,0.0,0.0,0.0,0.0,0.0,0.0,0.0,0.0,0.0,0.0,0.0,0.0,0.0,0.0,0.0,0.0,0.0,0.0,0.0,0.0,0.0,0.0,0.0,0.0,0.0,0.0,0.0,7.2349,7.5652,8.0681,0.0,8.4278,8.4682,8.5013,8.4682,8.4058,8.3251,8.2003,8.0718,0.0,0.0,7.5711,7.6019,7.4551,7.3634,7.5014,7.5726,7.6644,7.8332,7.947,8.1305,8.4609,8.6187,8.8463,0.0,0.0,0.0,0.0,0.0,0.0,0.0,0.0,0.0,0.0,10.6497,10.6497,10.6397,10.6376,10.6009,10.5107,10.432,10.3497,10.2807,10.1998,10.1597,10.1694,10.0791,10.0115,0.0,0.0,0.0,0.0,9.7211,9.7248,9.7193,9.7321,9.7079,9.6597,9.6338,9.5505,9.4432,0.0,0.0,0.0,0.0,0.0,0.0,0.0,0.0,0.0,0.0,0.0,0.0,0.0,0.0,0.0,0.0,0.0,0.0,0.0,0.0,0.0,0.0,0.0,0.0,0.0,0.0,0.0,0.0,0.0,0.0,0.0,0.0,0.0,0.0,0.0,0.0,0.0,0.0,0.0,0.0,0.0,0.0,0.0,0.0,0.0,0.0,0.0,0.0,0.0,0.0,0.0,0.0,0.0,7.1284,7.356,7.8458,8.2113,8.4425,8.3638,8.3418,8.3197,8.2406,8.1599,8.0571,0.0,0.0,7.7069,7.6276,7.5469,7.5124,7.5946,7.6093,7.6644,7.8332,7.9947,8.1562,8.3197,8.5473,8.7601,0.0,0.0,0.0,0.0,0.0,0.0,0.0,0.0,0.0,0.0,0.0,10.6606,10.6397,10.6376,10.6009,10.5107,10.432,10.3578,10.3008,10.2198,10.191,10.2104,10.1311,0.0,0.0,0.0,0.0,0.0,9.7211,9.7412,9.7591,9.7591,9.7697,9.778,9.6909,9.6574,9.6331,0.0,0.0,0.0,0.0,0.0,0.0,0.0,0.0,0.0,0.0,0.0,0.0,0.0,0.0,0.0,0.0,0.0,0.0,0.0,0.0,0.0,0.0,0.0,0.0,0.0,0.0,0.0,0.0,0.0,0.0,0.0,0.0,0.0,0.0,0.0,0.0,0.0,0.0,0.0,0.0,0.0,0.0,0.0,0.0,0.0,0.0,0.0,0.0,0.0,0.0,0.0,0.0,0.0,0.0,0.0,7.3546,7.6665,0.0,8.0021,8.0938,8.1452,8.0094,7.9543,7.9066,7.7949,0.0,7.5601,7.5307,7.4206,7.3656,7.5028,7.527,7.6019,7.8222,7.947,8.0938,0.0,0.0,0.0,0.0,0.0,0.0,0.0,0.0,0.0,0.0,0.0,0.0,0.0,0.0,10.6705,10.6606,10.6677,10.639,10.5579,10.4805,10.3997,10.3208,10.2376,10.2009,10.2104,10.1809,0.0,0.0,0.0,0.0,0.0,9.7646,9.7681,9.7609,9.777,9.784,9.7855,9.7595,9.7112,9.6517,0.0,0.0,0.0,0.0,0.0,0.0,0.0,0.0,0.0,0.0,0.0,0.0,0.0,0.0,0.0,0.0,0.0,0.0,0.0,0.0,0.0,0.0,0.0,0.0,0.0,0.0,0.0,0.0,0.0,0.0,0.0,0.0,0.0,0.0,0.0,0.0,0.0,0.0,0.0,0.0,0.0,0.0,0.0,0.0,0.0,0.0,0.0,0.0,0.0,0.0,0.0,0.0,0.0,0.0,0.0,0.0,7.3068,0.0,0.0,7.8369,7.9344,7.8369,7.8112,0.0,0.0,7.6078,7.527,7.494,7.4096,7.3802,7.5102,7.5344,7.5983,7.7818,7.9323,8.1085,0.0,0.0,0.0,0.0,0.0,0.0,0.0,0.0,0.0,0.0,0.0,0.0,0.0,0.0,10.6918,10.6918,10.7015,10.6612,10.578,10.5004,10.4194,10.3402,10.2588,10.2313,10.2295,0.0,0.0,0.0,0.0,0.0,0.0,9.7822,9.7822,9.7734,9.7857,9.7892,9.7892,9.7892,9.7557,9.7037,0.0,0.0,0.0,0.0,0.0,0.0,0.0,0.0,0.0,0.0,0.0,0.0,0.0,0.0,0.0,0.0,0.0,0.0,0.0,0.0,0.0,0.0,0.0,0.0,0.0,0.0,0.0,0.0,6.4735,6.4857,6.5567,0.0,0.0,0.0,0.0,0.0,0.0,0.0,0.0,0.0,0.0,0.0,0.0,0.0,0.0,0.0,0.0,0.0,0.0,0.0,0.0,0.0,0.0,0.0,0.0,0.0,0.0,0.0,0.0,0.0,0.0,0.0,0.0,0.0,0.0,7.5946,0.0,7.4903,7.4757,7.505,7.5873,7.6019,7.635,7.7326,7.9417,0.0,0.0,8.8353,0.0,0.0,0.0,0.0,0.0,0.0,0.0,0.0,0.0,0.0,0.0,0.0,0.0,10.7298,10.7121,10.6615,10.5802,10.5006,10.4291,10.35,10.2815,10.2501,10.2721,0.0,0.0,0.0,0.0,0.0,0.0,9.7822,9.7892,9.7892,9.7892,9.7892,9.7892,9.7892,9.7892,9.778,0.0,0.0,0.0,0.0,0.0,0.0,0.0,0.0,0.0,0.0,0.0,0.0,0.0,0.0,0.0,0.0,0.0,0.0,0.0,0.0,0.0,0.0,0.0,0.0,0.0,0.0,0.0,6.4904,6.5186,6.5643,6.6271,6.6375,0.0,0.0,0.0,0.0,0.0,0.0,0.0,0.0,0.0,0.0,0.0,0.0,0.0,0.0,0.0,0.0,0.0,0.0,0.0,0.0,0.0,0.0,0.0,0.0,0.0,0.0,0.0,0.0,0.0,0.0,0.0,0.0,0.0,7.4258,7.4037,7.323,7.356,7.4221,7.5014,7.516,7.6093,7.8772,7.9706,0.0,0.0,0.0,0.0,0.0,0.0,0.0,0.0,0.0,0.0,0.0,0.0,0.0,0.0,0.0,0.0,10.7492,10.751,10.6804,10.5413,10.519,10.43,10.2908,10.2722,10.2704,10.2721,0.0,0.0,0.0,0.0,0.0,9.784,9.7874,9.7892,9.7892,9.7892,9.7892,9.7892,9.7892,9.7892,9.7855,0.0,0.0,0.0,0.0,0.0,0.0,0.0,0.0,0.0,0.0,0.0,0.0,0.0,0.0,0.0,0.0,0.0,0.0,0.0,0.0,0.0,0.0,0.0,0.0,0.0,0.0,0.0,0.0,0.0,6.67,0.0,0.0,0.0,0.0,0.0,0.0,0.0,0.0,0.0,0.0,0.0,0.0,0.0,0.0,0.0,0.0,0.0,0.0,0.0,7.1564,7.1321,7.0513,0.0,0.0,0.0,0.0,0.0,0.0,0.0,0.0,0.0,0.0,7.4001,7.4683,7.3891,7.3413,7.3046,7.2606,7.2863,7.3523,7.4683,7.5197,7.6276,7.8862,8.0807,0.0,0.0,0.0,0.0,0.0,0.0,0.0,0.0,0.0,0.0,0.0,0.0,0.0,0.0,0.0,0.0,0.0,10.7198,10.6511,10.521,10.521,10.4393,10.2721,10.2721,10.2721,10.2721,0.0,0.0,0.0,0.0,0.0,9.7892,9.7892,9.7892,9.7892,9.7892,9.7892,9.7892,9.7892,9.7892,9.7892,0.0,0.0,0.0,0.0,0.0,0.0,0.0,0.0,0.0,0.0,0.0,0.0,0.0,0.0,0.0,0.0,0.0,0.0,0.0,0.0,0.0,0.0,0.0,0.0,0.0,0.0,0.0,0.0,0.0,0.0,0.0,0.0,0.0,0.0,0.0,0.0,0.0,0.0,0.0,0.0,0.0,0.0,0.0,0.0,0.0,0.0,0.0,0.0,0.0,7.2312,7.1967,7.1197,7.0513,0.0,0.0,0.0,0.0,0.0,0.0,7.2753,7.378,7.3413,7.4037,7.4515,7.3707,7.3083,7.2642,7.2532,7.2789,7.3523,7.4977,7.6019,0.0,0.0,0.0,0.0,0.0,0.0,0.0,0.0,0.0,0.0,0.0,0.0,0.0,0.0,0.0,0.0,0.0,0.0,0.0,0.0,10.6902,10.6084,10.5191,10.508,10.4189,10.2721,10.2813,10.2794,10.2812,10.2792,0.0,0.0,0.0,0.0,9.7978,9.7978,9.7944,9.7892,9.7892,9.7892,9.7892,9.7892,9.7892,9.7909,0.0,0.0,0.0,0.0,0.0,0.0,0.0,0.0,0.0,0.0,0.0,0.0,0.0,0.0,0.0,0.0,0.0,0.0,0.0,0.0,0.0,0.0,0.0,0.0,0.0,0.0,0.0,0.0,0.0,0.0,7.114,7.1142,7.0523,0.0,0.0,0.0,0.0,0.0,0.0,0.0,0.0,0.0,0.0,0.0,0.0,0.0,0.0,0.0,0.0,7.2679,7.1967,7.127,7.116,0.0,0.0,0.0,0.0,0.0,7.2679,7.4001,7.4243,7.2188,7.2789,7.367,7.2863,7.312,7.3303,7.2642,7.4147,7.5836,7.6775,7.8185,8.0204,0.0,0.0,0.0,0.0,0.0,0.0,0.0,0.0,0.0,0.0,0.0,0.0,0.0,0.0,0.0,0.0,0.0,0.0,0.0,0.0,10.6604,10.4992,10.4497,10.3687,10.2721,10.3007,10.3202,10.3202,10.3509,10.2706,0.0,0.0,9.9995,9.8221,9.8221,9.8091,9.7892,9.7892,9.7892,9.7892,9.7892,9.7892,9.7944,0.0,0.0,0.0,0.0,0.0,0.0,0.0,0.0,0.0,0.0,0.0,0.0,0.0,0.0,0.0,0.0,0.0,0.0,0.0,0.0,0.0,0.0,0.0,0.0,0.0,0.0,0.0,0.0,0.0,7.2853,7.3956,7.2788,7.1189,6.9276,0.0,0.0,0.0,0.0,0.0,0.0,0.0,0.0,0.0,0.0,0.0,0.0,0.0,0.0,0.0,0.0,7.2261,7.1857,7.1454,0.0,0.0,0.0,0.0,0.0,7.2596,7.3398,7.3656,7.3854,7.5198,7.6147,7.4984,7.5344,7.5794,7.5338,7.6132,7.7405,7.9133,0.0,8.259,8.7105,0.0,0.0,0.0,0.0,0.0,0.0,0.0,0.0,0.0,0.0,0.0,0.0,0.0,0.0,0.0,0.0,0.0,0.0,0.0,0.0,10.5009,10.4316,10.3696,10.3285,10.3493,10.3614,10.3614,10.3704,10.2906,0.0,0.0,10.0312,9.8557,9.8557,9.8514,9.8406,9.8406,9.8406,9.8406,9.8406,9.8406,9.8385,0.0,0.0,0.0,0.0,0.0,0.0,0.0,0.0,0.0,0.0,0.0,0.0,0.0,0.0,0.0,0.0,0.0,0.0,0.0,0.0,0.0,0.0,0.0,0.0,0.0,0.0,7.0652,7.1505,7.4551,7.6307,7.6713,7.4034,7.166,0.0,0.0,0.0,0.0,0.0,0.0,0.0,0.0,0.0,0.0,0.0,0.0,0.0,0.0,0.0,0.0,0.0,0.0,0.0,0.0,0.0,0.0,7.1761,7.125,7.1019,7.2777,7.319,7.3618,7.5676,7.7022,7.79,7.7909,7.8278,7.8743,7.9167,7.9572,8.0339,0.0,8.312,0.0,9.0497,0.0,0.0,0.0,0.0,0.0,0.0,0.0,0.0,0.0,0.0,0.0,0.0,0.0,0.0,0.0,0.0,0.0,0.0,0.0,0.0,10.4989,10.4311,10.4022,10.3807,10.3904,10.3899,10.3899,10.3979,10.3107,10.1489,10.1489,10.0518,9.8915,9.8915,9.8869,9.8807,9.8807,9.8807,9.8807,9.8807,9.8807,9.8807,0.0,0.0,0.0,0.0,0.0,0.0,0.0,0.0,0.0,0.0,0.0,0.0,0.0,0.0,0.0,0.0,0.0,0.0,0.0,0.0,0.0,0.0,0.0,0.0,0.0,7.2779,7.4257,7.5652,7.8201,7.9222,7.8721,7.4801,7.2502,7.1518,0.0,0.0,0.0,0.0,0.0,0.0,0.0,0.0,0.0,0.0,0.0,0.0,0.0,0.0,0.0,0.0,0.0,0.0,0.0,0.0,7.2451,7.2556,7.25,7.2708,7.4447,7.4918,7.5139,7.6148,7.5772,7.6328,8.0787,8.1424,8.1613,8.3684,0.0,0.0,0.0,8.712,9.0101,0.0,0.0,0.0,0.0,0.0,0.0,0.0,0.0,0.0,0.0,0.0,0.0,0.0,0.0,0.0,0.0,0.0,0.0,0.0,0.0,0.0,10.4818,10.4818,10.4395,10.3824,10.4104,10.4297,10.4312,10.4611,10.3795,10.219,10.219,10.1088,9.928,9.928,9.9065,9.8807,9.8807,9.8807,9.8807,9.8807,9.8807,9.8838,0.0,0.0,0.0,0.0,0.0,0.0,0.0,0.0,0.0,0.0,0.0,0.0,0.0,0.0,0.0,0.0,0.0,0.0,0.0,0.0,0.0,0.0,0.0,7.1139,7.182,7.5295,7.7917,7.9458,8.0293,8.0118,7.8914,7.4667,0.0,0.0,0.0,0.0,0.0,0.0,0.0,0.0,0.0,0.0,0.0,0.0,0.0,0.0,0.0,0.0,0.0,0.0,7.336,7.3539,7.3403,7.31,7.2954,7.3573,7.3227,7.2888,7.4185,7.4748,7.5448,7.7286,7.7537,7.8112,8.1076,8.3218,8.507,8.6832,8.8545,0.0,0.0,0.0,0.0,0.0,0.0,0.0,0.0,0.0,0.0,0.0,0.0,0.0,0.0,0.0,0.0,0.0,0.0,0.0,0.0,0.0,0.0,0.0,0.0,0.0,0.0,10.4799,10.4684,10.4411,10.462,10.4588,10.4603,10.4188,10.3397,10.2298,10.1805,10.0789,9.9631,9.9631,9.9523,9.9424,9.9424,9.9424,9.9424,9.9424,9.9424,9.9438,0.0,0.0,0.0,0.0,0.0,0.0,0.0,0.0,0.0,0.0,0.0,0.0,0.0,0.0,0.0,0.0,0.0,0.0,0.0,0.0,0.0,0.0,0.0,7.1377,7.2349,7.6889,7.9838,8.1101,8.1237,8.0373,7.8559,0.0,0.0,0.0,0.0,0.0,0.0,0.0,0.0,0.0,0.0,0.0,0.0,0.0,0.0,0.0,0.0,0.0,0.0,0.0,7.4343,7.45,7.4392,7.391,7.3503,7.4195,7.3651,7.3005,7.4021,7.4301,7.494,7.7361,7.8844,8.0308,8.2496,8.5276,8.8153,9.0824,9.2338,9.3278,0.0,0.0,0.0,0.0,0.0,0.0,0.0,0.0,0.0,0.0,0.0,0.0,0.0,0.0,0.0,0.0,0.0,0.0,0.0,0.0,0.0,0.0,0.0,0.0,0.0,10.4799,10.4799,10.4799,10.4496,10.4382,10.4382,10.3904,10.298,10.1881,10.1312,10.0592,9.9796,9.9796,9.9796,9.9796,9.9796,9.9796,9.9796,9.9796,9.9796,9.9796,0.0,0.0,0.0,0.0,0.0,0.0,0.0,0.0,0.0,0.0,0.0,0.0,0.0,0.0,0.0,0.0,0.0,0.0,0.0,0.0,0.0,0.0,0.0,7.1651,7.3311,7.7324,7.9679,8.0243,8.1055,8.0221,7.771,7.5189,0.0,0.0,0.0,0.0,0.0,0.0,0.0,0.0,0.0,0.0,0.0,0.0,0.0,0.0,0.0,0.0,0.0,0.0,7.5205,7.5248,7.5369,7.4857,7.4256,7.4394,7.377,7.3245,7.4158,7.3828,7.3801,7.6068,7.9224,8.2577,8.5678,8.7808,9.0674,9.5958,9.7193,9.7893,9.9685,0.0,0.0,0.0,0.0,0.0,0.0,0.0,0.0,0.0,0.0,0.0,0.0,0.0,0.0,0.0,0.0,0.0,0.0,0.0,0.0,0.0,0.0,0.0,0.0,10.4799,10.4799,10.4814,10.4003,10.36,10.36,10.36,10.2677,10.1085,10.1085,10.0592,9.9796,9.9796,9.9796,9.9796,9.9796,9.9796,9.9796,9.9796,9.9796,9.9796,0.0,0.0,0.0,0.0,0.0,0.0,0.0,0.0,0.0,0.0,0.0,0.0,0.0,0.0,0.0,0.0,0.0,0.0,0.0,0.0,0.0,0.0,0.0,0.0,0.0,0.0,7.6067,8.1489,8.0444,7.8683,0.0,0.0,0.0,7.1876,0.0,0.0,0.0,0.0,0.0,0.0,0.0,0.0,0.0,0.0,0.0,0.0,0.0,0.0,0.0,0.0,0.0,0.0,7.6987,7.676,7.642,7.5826,7.5267,7.4774,7.4481,7.554,7.7158,7.9,8.31,8.7524,9.0766,9.247,9.4733,9.9344,10.0713,10.1002,0.0,0.0,0.0,0.0,0.0,0.0,0.0,0.0,0.0,0.0,0.0,0.0,0.0,0.0,0.0,0.0,0.0,0.0,0.0,0.0,0.0,0.0,0.0,0.0,0.0,0.0,10.4496,10.4017,10.37,10.36,10.36,10.2411,10.1578,10.1085,10.0516,10.0024,9.9796,9.9796,9.9796,9.9796,9.9796,9.9796,9.9796,9.9796,9.9796,9.9796,0.0,0.0,0.0,0.0,0.0,0.0,0.0,0.0,0.0,0.0,0.0,0.0,0.0,0.0,0.0,0.0,0.0,0.0,0.0,0.0,0.0,0.0,0.0,0.0,0.0,7.0436,7.3729,0.0,0.0,0.0,0.0,0.0,0.0,7.3397,0.0,7.5395,0.0,0.0,0.0,0.0,0.0,0.0,0.0,0.0,0.0,0.0,0.0,0.0,0.0,0.0,0.0,0.0,7.8179,7.7967,7.7567,7.7042,7.623,7.5627,7.6124,7.7159,7.8805,8.1795,8.6476,9.1646,9.6598,9.7605,0.0,0.0,10.3206,10.35,0.0,0.0,0.0,0.0,0.0,0.0,0.0,0.0,0.0,0.0,0.0,0.0,0.0,0.0,0.0,0.0,0.0,0.0,0.0,0.0,0.0,0.0,0.0,0.0,0.0,0.0,0.0,10.36,10.2904,10.2601,10.2615,10.1578,10.0895,10.0592,9.9986,9.9796,9.9796,9.9796,9.9796,9.9796,9.9796,9.9796,9.9796,9.9796,9.9796,9.9796,0.0,0.0,0.0,0.0,0.0,0.0,0.0,0.0,0.0,0.0,0.0,0.0,0.0,0.0,0.0,0.0,0.0,0.0,0.0,0.0,0.0,0.0,0.0,0.0,0.0,0.0,0.0,0.0,0.0,0.0,0.0,0.0,7.6589,7.6197,0.0,7.8641,0.0,0.0,0.0,0.0,0.0,0.0,0.0,0.0,0.0,0.0,0.0,0.0,0.0,0.0,0.0,0.0,7.9041,7.874,7.8226,7.8001,7.6925,7.6349,7.869,7.8902,7.9679,8.469,8.9704,9.532,10.2282,10.2606,10.2112,10.4607,0.0,0.0,0.0,0.0,0.0,0.0,0.0,0.0,0.0,0.0,0.0,0.0,0.0,0.0,0.0,0.0,0.0,0.0,0.0,0.0,0.0,0.0,0.0,0.0,0.0,0.0,0.0,0.0,0.0,0.0,10.1881,10.1085,10.1009,10.1009,10.0516,9.9796,9.9796,9.9796,9.9796,9.9796,9.9796,9.9796,9.9796,9.9796,9.9796,9.9796,9.9796,9.9796,0.0,0.0,0.0,0.0,0.0,0.0,0.0,0.0,0.0,0.0,0.0,0.0,0.0,0.0,0.0,0.0,0.0,0.0,0.0,0.0,0.0,0.0,0.0,0.0,0.0,0.0,0.0,0.0,0.0,0.0,0.0,0.0,0.0,7.6427,0.0,7.8887,0.0,0.0,0.0,0.0,0.0,0.0,0.0,0.0,0.0,0.0,0.0,0.0,0.0,0.0,0.0,0.0,7.9642,8.0172,8.0662,7.8714,7.8647,7.9504,8.0744,8.2071,8.4293,8.9297,9.4956,10.0185,10.3817,10.4809,10.5113,10.5397,10.6706,0.0,0.0,0.0,0.0,0.0,0.0,0.0,0.0,0.0,0.0,0.0,0.0,0.0,0.0,0.0,0.0,0.0,0.0,0.0,0.0,0.0,0.0,0.0,0.0,0.0,10.4799,10.4003,10.3297,0.0,10.1616,10.0706,10.0099,10.0099,9.9986,9.9796,9.9796,9.9796,9.9796,9.9796,9.9796,9.9796,9.9796,9.9796,9.9796,9.9796,9.9796,9.9796,0.0,0.0,0.0,0.0,0.0,0.0,0.0,0.0,0.0,0.0,0.0,0.0,0.0,0.0,0.0,0.0,0.0,0.0,0.0,0.0,0.0,0.0,0.0,0.0,0.0,0.0,0.0,0.0,0.0,0.0,0.0,0.0,0.0,7.8188,0.0,8.0,0.0,0.0,0.0,0.0,0.0,0.0,0.0,0.0,0.0,0.0,0.0,0.0,0.0,0.0,0.0,0.0,0.0,0.0,8.0542,7.9347,7.9517,8.0469,8.2127,8.3885,8.6843,9.3488,9.8162,10.1691,10.4193,10.5785,10.6613,10.6398,0.0,0.0,0.0,0.0,0.0,0.0,0.0,0.0,0.0,0.0,0.0,0.0,0.0,0.0,0.0,0.0,0.0,0.0,0.0,0.0,0.0,0.0,0.0,0.0,0.0,0.0,10.4193,10.3397,10.2601,10.1691,10.0895,10.0213,9.9796,9.9796,9.9796,9.9796,9.9796,9.9796,9.9796,9.9796,9.9796,9.9796,9.9796,9.9796,9.9796,9.9796,9.9796,9.9796,0.0,0.0,0.0,0.0,0.0,0.0,0.0,0.0,0.0,0.0,0.0,0.0,0.0,0.0,0.0,0.0,0.0,0.0,0.0,0.0,0.0,0.0,0.0,0.0,0.0,0.0,0.0,0.0,0.0,0.0,0.0,0.0,0.0,7.9983,0.0,0.0,0.0,0.0,0.0,0.0,0.0,0.0,0.0,0.0,0.0,0.0,0.0,0.0,0.0,0.0,0.0,0.0,0.0,0.0,7.97,7.9814,8.0054,8.0883,8.3358,8.5772,8.9335,9.6575,9.9758,10.1691,10.4093,10.6012,10.7286,10.7286,0.0,0.0,0.0,0.0,0.0,0.0,0.0,0.0,0.0,0.0,0.0,0.0,0.0,0.0,0.0,0.0,0.0,0.0,0.0,0.0,0.0,0.0,0.0,0.0,0.0,10.4321,10.36,10.2601,10.1805,10.1085,10.0213,9.9796,9.9796,9.9796,9.9796,9.9796,9.9796,9.9796,9.9796,9.9796,9.9796,9.9796,9.9796,9.9796,9.9796,9.9796,9.9796,9.9796,0.0,0.0,0.0,0.0,0.0,0.0,0.0,0.0,0.0,0.0,0.0,0.0,0.0,0.0,0.0,0.0,0.0,0.0,0.0,0.0,0.0,0.0,0.0,0.0,0.0,0.0,0.0,0.0,0.0,0.0,0.0,0.0,0.0,7.9726,0.0,0.0,0.0,0.0,0.0,0.0,0.0,0.0,0.0,0.0,0.0,0.0,0.0,0.0,0.0,0.0,0.0,0.0,0.0,0.0,0.0,7.97,8.0765,8.26,8.509,8.9601,9.4262,9.684,9.9303,10.1578,10.3411,10.5595,10.7286,0.0,0.0,0.0,0.0,0.0,0.0,0.0,0.0,0.0,0.0,0.0,0.0,0.0,0.0,0.0,0.0,0.0,0.0,0.0,0.0,0.0,0.0,0.0,10.4799,10.4799,10.4079,0.0,10.36,10.1995,10.1199,10.1085,10.0213,9.9796,9.9796,9.9796,9.9796,9.9796,9.9796,9.9796,9.9796,9.9796,9.9796,9.9796,9.9796,9.9796,9.9796,9.9796,9.9796,9.9796,0.0,0.0,0.0,0.0,0.0,0.0,0.0,0.0,0.0,0.0,0.0,0.0,0.0,0.0,0.0,0.0,0.0,0.0,0.0,0.0,0.0,0.0,0.0,0.0,0.0,0.0,0.0,0.0,0.0,0.0,0.0,7.8927,8.0097,0.0,0.0,0.0,0.0,0.0,0.0,0.0,0.0,0.0,0.0,0.0,0.0,0.0,0.0,0.0,0.0,0.0,0.0,0.0,0.0,0.0,0.0,0.0,8.0014,8.1547,8.5119,8.9676,9.3921,9.6069,9.8887,10.1388,10.2601,10.4799,10.6808,0.0,0.0,0.0,0.0,0.0,0.0,0.0,0.0,0.0,0.0,0.0,0.0,0.0,0.0,0.0,0.0,0.0,0.0,0.0,0.0,0.0,10.4799,10.4799,10.461,10.4079,10.379,0.0,10.2184,10.1502,10.0895,10.0403,9.9986,9.9796,9.9796,9.9796,9.9796,9.9796,9.9796,9.9796,9.9796,9.9796,9.9796,9.9796,9.9796,9.9796,9.9796,9.9796,9.9796,9.9796,0.0,0.0,0.0,0.0,0.0,0.0,0.0,0.0,0.0,0.0,0.0,0.0,0.0,0.0,0.0,0.0,0.0,0.0,0.0,0.0,0.0,0.0,0.0,0.0,0.0,0.0,0.0,0.0,0.0,0.0,7.8865,8.0693,8.2585,0.0,8.1771,0.0,0.0,0.0,0.0,0.0,0.0,0.0,0.0,0.0,0.0,0.0,0.0,0.0,0.0,0.0,0.0,0.0,0.0,0.0,0.0,0.0,0.0,8.0469,8.44,8.8047,9.1496,9.4679,9.7977,10.0782,10.1995,0.0,10.6277,0.0,0.0,0.0,0.0,0.0,0.0,0.0,0.0,0.0,0.0,0.0,0.0,0.0,0.0,0.0,0.0,0.0,0.0,0.0,0.0,0.0,10.4799,10.461,10.4193,10.36,10.3221,10.2387,10.1085,10.0895,10.0403,9.9796,9.9796,9.9796,9.9796,9.9796,9.9796,9.9796,9.9796,9.9796,9.9796,9.9796,9.9796,9.9796,9.9796,9.9796,9.9796,9.9796,9.9796,9.9796,0.0,0.0,0.0,0.0,0.0,0.0,0.0,0.0,0.0,0.0,0.0,0.0,0.0,0.0,0.0,0.0,0.0,0.0,0.0,0.0,0.0,0.0,0.0,0.0,0.0,0.0,0.0,0.0,0.0,0.0,8.1445,8.39,8.6605,8.9211,8.44,8.2439,8.2559,0.0,0.0,0.0,0.0,0.0,0.0,0.0,0.0,0.0,0.0,0.0,0.0,0.0,0.0,0.0,0.0,0.0,0.0,0.0,0.0,0.0,8.3043,8.5052,8.7592,9.2519,9.6233,9.9379,10.1805,0.0,0.0,0.0,0.0,0.0,0.0,0.0,0.0,0.0,0.0,0.0,0.0,0.0,0.0,0.0,0.0,0.0,0.0,0.0,0.0,0.0,0.0,0.0,10.4799,10.4093,10.3586,10.36,10.2108,10.1199,10.1085,10.0289,9.9834,9.9796,9.9796,9.9796,9.9796,9.9796,9.9796,9.9796,9.9796,9.9796,9.9796,9.9796,9.9796,9.9796,9.9796,9.9796,9.9796,9.9796,9.9796,9.9796,0.0,0.0,0.0,0.0,0.0,0.0,0.0,0.0,0.0,0.0,0.0,0.0,0.0,6.8935,6.9155,0.0,0.0,0.0,0.0,0.0,0.0,0.0,0.0,0.0,0.0,0.0,7.2531,7.4166,7.5578,7.7726,8.0574,8.3282,8.5485,8.7096,8.4945,8.405,8.396,8.0934,0.0,0.0,0.0,0.0,0.0,0.0,0.0,0.0,0.0,0.0,0.0,0.0,0.0,0.0,0.0,0.0,0.0,0.0,7.9634,8.0845,8.1755,8.3991,8.6784,8.9676,9.3732,9.7357,9.8773,10.2298,0.0,0.0,0.0,0.0,0.0,0.0,0.0,0.0,0.0,0.0,0.0,0.0,0.0,0.0,0.0,0.0,0.0,0.0,0.0,0.0,0.0,0.0,10.4003,10.3207,10.2487,10.1995,10.1388,10.082,10.0289,9.9948,9.9796,9.9796,9.9796,9.9796,9.9796,9.9266,9.9038,9.9,9.8432,9.8811,9.9796,9.9796,9.9796,9.9796,9.9796,9.9796,9.9796,9.9796,9.9796,9.9796,0.0,0.0,0.0,0.0,0.0,0.0,0.0,0.0,0.0,0.0,0.0,0.0,0.0,0.0,6.9889,0.0,0.0,0.0,0.0,0.0,0.0,0.0,0.0,0.0,0.0,7.2196,7.2865,7.4203,7.5578,7.751,7.9981,8.2687,8.4775,8.6226,8.4832,8.4786,0.0,0.0,0.0,8.083,0.0,0.0,7.8791,0.0,0.0,0.0,0.0,0.0,0.0,0.0,0.0,0.0,0.0,0.0,0.0,0.0,0.0,0.0,8.0618,8.2513,8.5242,8.8615,9.1761,9.4831,9.7901,0.0,0.0,0.0,0.0,0.0,0.0,0.0,0.0,0.0,0.0,0.0,0.0,0.0,0.0,0.0,0.0,0.0,0.0,0.0,0.0,0.0,0.0,0.0,10.3221,10.2411,10.1502,10.0706,10.0706,10.0403,9.9796,9.9796,9.9796,9.9796,9.9796,9.9796,9.9758,9.8962,9.8621,9.8545,9.766,9.7926,9.8962,9.8962,9.8962,9.8962,9.8962,9.8962,9.8962,9.8962,9.8962,9.9,0.0,0.0,0.0,0.0,0.0,0.0,0.0,0.0,0.0,0.0,0.0,0.0,0.0,0.0,0.0,0.0,0.0,0.0,0.0,0.0,0.0,0.0,0.0,0.0,0.0,7.2233,7.2642,7.3423,7.5875,7.8045,7.9994,0.0,8.4886,8.7211,8.4196,8.4469,8.7075,0.0,8.3864,8.4089,0.0,7.9527,8.0908,0.0,0.0,0.0,8.5733,8.653,0.0,0.0,0.0,0.0,0.0,0.0,0.0,0.0,0.0,0.0,0.0,0.0,0.0,8.9184,0.0,0.0,9.9038,0.0,0.0,0.0,0.0,0.0,0.0,0.0,0.0,0.0,0.0,0.0,0.0,0.0,0.0,0.0,0.0,0.0,0.0,0.0,0.0,0.0,0.0,10.2298,10.2298,10.1502,10.0706,9.9834,9.9796,9.9796,9.9796,9.9796,9.9796,9.9796,9.9796,9.9796,9.9758,9.8924,9.8545,9.847,9.7585,9.7244,9.7244,9.7281,9.7281,9.7281,9.7281,9.7281,9.7281,9.7281,9.7281,9.7433,0.0,0.0,0.0,0.0,0.0,0.0,0.0,0.0,0.0,0.0,0.0,0.0,7.1725,7.2349,7.2994,0.0,0.0,0.0,0.0,0.0,0.0,0.0,0.0,0.0,7.3051,7.3051,7.346,7.4277,7.554,7.7068,7.88,0.0,0.0,0.0,8.3704,8.3813,8.3802,8.1575,0.0,0.0,8.1021,8.162,0.0,0.0,0.0,0.0,0.0,8.7009,0.0,0.0,8.4326,8.3524,0.0,0.0,0.0,0.0,0.0,0.0,7.9833,0.0,0.0,0.0,0.0,0.0,0.0,0.0,0.0,0.0,0.0,0.0,0.0,0.0,0.0,0.0,0.0,0.0,0.0,0.0,0.0,0.0,0.0,0.0,0.0,0.0,0.0,0.0,10.1805,10.1388,10.1388,10.0592,10.0024,9.9796,9.9796,9.9796,9.9796,9.9796,9.9796,9.9796,9.9796,9.9493,9.8887,9.8053,9.7319,9.6751,9.5854,9.5475,9.5589,9.6802,9.7281,9.7281,9.7281,9.7281,9.7281,9.7281,9.7281,9.7333,0.0,0.0,0.0,0.0,0.0,0.0,0.0,0.0,0.0,0.0,0.0,0.0,7.3817,7.5028,0.0,0.0,0.0,0.0,0.0,0.0,0.0,0.0,7.3313,7.3013,7.3385,7.3385,7.3794,7.4612,7.5429,7.6507,7.7844,0.0,0.0,0.0,0.0,0.0,0.0,0.0,0.0,0.0,8.2496,0.0,0.0,8.7544,8.8501,0.0,0.0,0.0,8.8923,8.7286,8.5424,0.0,0.0,0.0,0.0,0.0,0.0,0.0,0.0,0.0,0.0,0.0,0.0,0.0,8.8198,9.0775,0.0,0.0,0.0,0.0,0.0,0.0,0.0,0.0,0.0,0.0,0.0,0.0,0.0,0.0,0.0,0.0,0.0,0.0,0.0,0.0,10.082,10.0592,10.0592,10.0099,9.9796,9.9796,9.9796,9.9796,9.9796,9.9796,9.9796,9.9796,9.9796,9.9379,9.8583,9.7765,9.6918,9.6135,9.5325,9.4971,9.5047,9.6084,9.6426,9.6271,9.6336,9.6349,9.6362,9.6414,9.6439,9.649,0.0,0.0,0.0,0.0,0.0,0.0,0.0,0.0,0.0,0.0,7.345,7.5065,7.6497,7.7907,0.0,0.0,0.0,0.0,0.0,0.0,0.0,7.542,7.4732,7.4131,7.3683,7.3757,7.4166,7.4872,7.5689,7.6507,7.7398,0.0,0.0,0.0,0.0,0.0,0.0,0.0,0.0,8.3146,8.4065,8.6213,0.0,0.0,9.2746,0.0,9.4427,9.3694,9.2064,8.9563,8.6682,0.0,0.0,0.0,0.0,0.0,8.0656,0.0,0.0,0.0,0.0,0.0,0.0,0.0,8.8653,8.8577,8.8767,0.0,0.0,0.0,0.0,0.0,0.0,0.0,0.0,0.0,0.0,0.0,0.0,0.0,0.0,0.0,0.0,0.0,9.9683,9.9683,9.9758,9.9796,9.9796,9.9796,9.9796,9.9796,9.9796,9.9796,9.9796,9.9796,9.9796,9.9823,9.9823,9.9368,9.8485,9.7806,9.7034,9.6135,9.5485,9.5191,9.5215,9.5345,9.5191,9.4883,9.5008,9.507,9.5082,9.5179,9.5215,9.5317,0.0,0.0,0.0,0.0,0.0,0.0,0.0,0.0,0.0,0.0,7.8133,7.969,8.0021,0.0,0.0,0.0,0.0,0.0,0.0,0.0,7.6641,7.5625,7.5417,7.5314,7.5341,7.6024,7.6432,7.6618,7.7435,7.8216,7.9033,0.0,0.0,0.0,0.0,0.0,0.0,0.0,0.0,8.2366,8.4105,0.0,9.0662,9.1155,9.2304,9.3631,9.3783,9.3631,9.2949,0.0,8.8691,8.7289,0.0,0.0,0.0,0.0,0.0,0.0,0.0,0.0,0.0,0.0,0.0,0.0,8.3043,8.4749,8.686,0.0,0.0,0.0,0.0,0.0,0.0,0.0,0.0,0.0,0.0,0.0,0.0,0.0,0.0,0.0,0.0,0.0,9.8849,9.8849,9.9417,9.9796,9.9796,9.9796,9.9796,9.9796,9.9796,9.9796,9.9796,9.9796,9.985,9.997,9.997,9.9225,9.7883,9.7717,9.6817,9.5421,9.5255,9.5251,9.5356,9.5379,9.5345,9.5298,9.5414,9.5498,9.5486,9.5379,9.5345,9.5383,0.0,0.0,0.0,0.0,0.0,0.0,0.0,0.0,0.0,7.7766,8.0541,8.2169,8.1764,0.0,0.0,0.0,0.0,0.0,0.0,0.0,0.0,7.7696,7.752,7.7307,7.7064,7.7473,7.7919,7.829,7.8699,7.933,8.0111,0.0,0.0,0.0,0.0,0.0,0.0,0.0,8.3653,8.4233,8.6301,0.0,9.123,9.2481,9.4262,9.6044,9.5589,9.4907,9.3934,9.2254,9.0624,0.0,0.0,8.7137,8.581,0.0,8.3612,8.346,0.0,0.0,0.0,8.2892,0.0,0.0,0.0,8.3347,8.4484,8.5318,0.0,0.0,0.0,0.0,0.0,0.0,0.0,0.0,0.0,0.0,0.0,0.0,0.0,0.0,0.0,0.0,9.7712,9.8545,9.9341,9.9796,9.9796,9.9796,9.9796,9.9796,9.9796,9.9823,9.9904,9.9904,9.997,10.0113,10.0113,9.9277,9.7703,9.7825,9.6969,9.5429,9.5504,9.5593,9.5659,9.5713,9.5744,9.5734,9.567,9.5648,9.5648,9.5648,9.5659,9.5659,0.0,0.0,0.0,0.0,0.0,0.0,0.0,0.0,7.9192,7.9554,8.2281,8.4046,8.3556,0.0,0.0,0.0,0.0,0.0,0.0,0.0,0.0,0.0,7.9809,7.94,0.0,7.895,7.933,7.9999,8.0019,8.0428,8.1188,0.0,0.0,0.0,0.0,0.0,8.1333,0.0,0.0,8.6583,0.0,9.0474,9.1155,9.3959,9.6233,9.7825,9.7636,9.6575,9.5096,9.3972,0.0,9.0851,9.0851,8.9714,0.0,0.0,0.0,0.0,0.0,0.0,0.0,0.0,0.0,8.3699,0.0,0.0,0.0,8.3055,0.0,0.0,0.0,0.0,0.0,0.0,0.0,0.0,0.0,0.0,0.0,0.0,0.0,0.0,0.0,0.0,9.6196,9.8204,9.8811,9.9303,9.9758,9.9796,9.981,9.9837,9.9837,9.9904,10.0011,10.0011,10.0088,10.0215,10.0215,9.9402,9.7813,9.8051,9.7248,9.5686,9.5828,9.592,9.5941,9.6068,9.6107,9.6107,9.59,9.5828,9.5839,9.591,9.5941,9.5931,6.77,6.77,0.0,0.0,0.0,0.0,0.0,0.0,8.128,8.2928,8.4928,8.6523,0.0,0.0,0.0,0.0,0.0,0.0,8.3511,0.0,0.0,0.0,0.0,0.0,8.0783,8.1317,8.1634,8.1709,8.1965,8.2375,8.2898,0.0,0.0,0.0,8.1941,0.0,0.0,0.0,8.5433,0.0,9.1546,9.185,0.0,9.4401,9.5665,9.5513,9.7674,9.7825,9.6688,0.0,9.3896,9.3745,0.0,9.0775,0.0,0.0,0.0,0.0,0.0,0.0,0.0,0.0,8.6947,0.0,0.0,0.0,8.3055,8.1679,0.0,0.0,0.0,0.0,0.0,0.0,0.0,0.0,0.0,0.0,0.0,0.0,0.0,0.0,0.0,0.0,0.0,9.7206,9.6865,9.7471,9.9683,9.9796,9.985,9.9983,9.9983,10.0011,10.0203,10.0203,10.0189,10.0389,10.0389,9.9632,9.8244,9.8266,9.7423,9.587,9.59,9.5961,9.6078,9.6098,9.6155,9.6269,9.6241,9.6232,9.6222,9.6107,9.6078,9.6068,6.7824,6.77,0.0,0.0,0.0,0.0,0.0,0.0,8.4366,8.5095,8.6973,0.0,0.0,0.0,0.0,0.0,0.0,8.5479,0.0,0.0,0.0,0.0,0.0,0.0,0.0,0.0,0.0,8.3923,8.3816,8.418,8.4835,0.0,0.0,0.0,8.2848,0.0,8.3479,0.0,8.7458,0.0,0.0,0.0,0.0,9.6309,9.7598,9.7901,9.9493,9.9493,9.8508,0.0,9.6082,0.0,0.0,0.0,0.0,0.0,0.0,0.0,0.0,0.0,0.0,0.0,0.0,0.0,0.0,0.0,8.3131,0.0,0.0,0.0,0.0,0.0,0.0,0.0,0.0,0.0,0.0,0.0,0.0,0.0,0.0,0.0,0.0,0.0,0.0,0.0,0.0,9.6006,9.7547,9.8663,9.945,9.9972,10.0088,10.0203,10.029,10.0401,10.051,10.0589,10.0708,9.9917,9.8406,9.8469,9.7562,9.6,9.6098,9.6146,9.6222,9.6222,9.6251,9.6288,9.6288,9.6288,9.6279,9.6241,9.6222,9.6222,6.862,0.0,0.0,0.0,0.0,0.0,0.0,0.0,0.0,0.0,0.0,0.0,8.8363,8.8377,0.0,0.0,0.0,8.7964,0.0,0.0,8.6837,0.0,0.0,0.0,0.0,0.0,0.0,8.5316,8.5143,8.5152,8.5395,0.0,0.0,0.0,0.0,8.4551,8.4757,0.0,0.0,9.2898,9.4187,9.5854,9.7611,9.8318,9.9531,10.0895,10.1312,10.0895,9.9986,9.8962,9.7814,0.0,9.5981,0.0,0.0,0.0,0.0,0.0,8.9184,0.0,0.0,0.0,0.0,0.0,0.0,0.0,0.0,0.0,0.0,0.0,0.0,0.0,0.0,0.0,0.0,0.0,0.0,0.0,0.0,0.0,0.0,0.0,0.0,0.0,0.0,0.0,9.2746,0.0,9.5717,9.7489,9.8871,9.9733,9.991,10.0198,10.051,10.06,10.0791,10.0919,10.1006,10.0101,9.8521,9.8592,9.7721,9.6146,9.6251,9.6288,9.6288,9.6288,9.6288,9.6288,9.6288,9.6288,9.6288,9.6288,9.6288,9.6288,7.041,6.9782,0.0,0.0,0.0,0.0,0.0,0.0,0.0,0.0,0.0,0.0,0.0,0.0,0.0,0.0,0.0,9.1555,9.1358,0.0,8.8911,0.0,0.0,0.0,0.0,0.0,0.0,0.0,8.5587,8.498,8.3676,8.3876,0.0,0.0,8.5217,8.6714,8.8267,9.1523,9.4554,9.7319,9.9796,10.2298,10.4003,0.0,10.0592,10.3411,10.2601,0.0,0.0,9.9152,9.8639,0.0,0.0,0.0,0.0,0.0,0.0,0.0,0.0,0.0,0.0,0.0,0.0,0.0,0.0,0.0,8.6568,0.0,0.0,0.0,0.0,0.0,0.0,0.0,0.0,0.0,0.0,0.0,0.0,0.0,0.0,0.0,0.0,0.0,0.0,8.9638,8.9942,0.0,9.4831,9.6629,9.8047,9.9169,9.935,9.9847,10.0814,10.0897,10.1,10.1,10.1,10.022,9.8584,9.8584,9.776,9.6279,9.6279,9.6288,9.6288,9.6288,9.6288,9.6288,9.6288,9.6288,9.6288,9.6288,9.6288,9.6288,0.0,0.0,0.0,0.0,0.0,0.0,0.0,8.4577,0.0,0.0,0.0,0.0,0.0,0.0,9.398,0.0,0.0,9.3354,9.3275,9.1633,0.0,0.0,0.0,8.8152,0.0,0.0,0.0,0.0,0.0,8.615,8.5501,8.4319,8.3984,0.0,0.0,8.7308,0.0,0.0,0.0,0.0,0.0,10.348,10.4005,0.0,0.0,10.3702,10.3398,10.32,0.0,10.1114,10.0494,10.0202,9.8098,9.7097,9.6528,9.5552,9.4642,0.0,0.0,0.0,9.5703,9.0662,0.0,0.0,0.0,0.0,0.0,0.0,0.0,0.0,0.0,0.0,0.0,0.0,0.0,0.0,0.0,0.0,0.0,0.0,0.0,0.0,0.0,0.0,0.0,8.6481,8.7049,8.8637,0.0,9.3916,9.6203,9.8383,9.9171,9.9994,10.0908,10.1102,10.1078,10.1078,10.1188,10.0316,9.874,9.874,9.7827,9.6288,9.6288,9.6288,9.6288,9.6288,9.6288,9.6288,9.6288,9.6288,9.6288,9.6288,9.6288,9.6288,7.6926,0.0,0.0,0.0,0.0,0.0,0.0,0.0,0.0,0.0,9.1622,0.0,9.4278,0.0,9.5791,0.0,9.5906,9.5601,9.5601,9.4155,0.0,9.3601,9.2055,0.0,0.0,0.0,0.0,0.0,0.0,8.6959,8.572,8.4483,8.4111,8.4614,0.0,8.8756,9.0595,9.5196,9.8298,0.0,0.0,10.4389,0.0,0.0,10.4815,0.0,0.0,10.4208,10.3793,10.2816,10.2004,10.1192,9.972,9.83,9.7097,9.6652,9.5779,9.4907,9.4907,9.6271,0.0,0.0,9.2519,0.0,0.0,0.0,0.0,0.0,0.0,0.0,0.0,0.0,0.0,0.0,0.0,0.0,0.0,0.0,0.0,0.0,0.0,0.0,0.0,0.0,8.3619,8.3536,8.4943,8.6503,0.0,0.0,9.4742,9.7183,9.8539,9.9807,10.1113,10.1216,10.119,10.119,10.1288,10.0404,9.8788,9.8788,9.7904,9.6288,9.6288,9.6288,9.6288,9.6288,9.6288,9.6288,9.6288,9.6288,9.6288,9.6288,9.6288,9.6288,0.0,0.0,0.0,0.0,7.9903,0.0,0.0,0.0,8.899,0.0,9.3019,9.5205,9.5794,9.7268,9.8262,9.8338,9.8288,0.0,9.8288,9.7265,0.0,0.0,9.5969,9.5424,9.5675,0.0,0.0,0.0,0.0,0.0,8.4568,8.4455,8.4268,8.4198,8.8391,0.0,9.2307,9.8299,10.1512,10.2798,10.4697,10.5408,10.519,10.5396,0.0,10.4988,10.5199,10.4682,10.4086,10.4009,10.2982,10.1509,10.0493,9.958,9.8743,9.7802,9.7446,9.7357,9.7357,9.6827,9.5841,9.4111,0.0,0.0,0.0,0.0,9.3138,0.0,0.0,0.0,0.0,0.0,0.0,0.0,0.0,0.0,0.0,0.0,0.0,0.0,0.0,0.0,0.0,8.213,8.1203,8.1132,8.3492,8.5029,0.0,0.0,0.0,9.5678,9.7546,9.9386,10.1188,10.1317,10.1279,10.1279,10.1289,10.0404,9.8788,9.875,9.7827,9.6288,9.6288,9.6288,9.6288,9.6288,9.6288,9.6288,9.6288,9.6288,9.6288,9.6288,9.6288,9.6288,8.1289,8.1671,8.2155,0.0,8.2515,8.3909,0.0,0.0,0.0,0.0,9.4598,9.6106,9.9003,9.9593,10.0383,10.1788,10.1112,0.0,0.0,0.0,0.0,9.9484,9.7929,9.6898,9.6592,9.5403,0.0,9.2192,0.0,0.0,8.7335,8.5335,8.4368,8.4494,8.8677,9.1188,9.2582,9.8637,10.2494,10.4786,10.5409,10.5587,0.0,0.0,10.5485,10.5382,10.5421,10.5384,10.5205,10.4518,10.3983,10.3501,10.2499,10.1586,10.0709,10.0376,9.9308,9.828,9.828,9.8545,9.8166,9.5223,9.4793,9.4376,0.0,0.0,0.0,0.0,0.0,0.0,0.0,0.0,0.0,0.0,0.0,0.0,0.0,0.0,0.0,0.0,0.0,0.0,8.1652,8.084,8.0542,8.1203,8.1294,0.0,0.0,0.0,0.0,9.4873,9.7314,9.9449,10.1288,10.1308,10.1279,10.1279,10.0712,9.9827,9.8788,9.8134,9.7288,9.6288,9.6288,9.6288,9.6288,9.6288,9.6288,9.6288,9.6288,9.6288,9.6288,9.6288,9.6288,9.6288,8.2486,0.0,0.0,8.5043,0.0,0.0,8.8398,0.0,0.0,9.5666,9.6822,0.0,10.0912,10.1411,10.2177,10.3487,10.3108,0.0,0.0,0.0,0.0,10.2089,10.0684,9.9794,9.9649,9.8499,0.0,9.5005,0.0,0.0,8.8416,8.5822,8.4613,8.4802,8.8595,9.1054,9.2721,9.9187,10.3311,10.5498,10.5586,0.0,0.0,10.5687,10.5713,10.5612,10.5612,10.5611,10.5597,10.51,10.4694,10.4212,10.368,10.2881,10.2118,10.199,10.0999,9.9869,9.9869,9.9868,9.9359,9.7134,9.6879,9.6499,9.3883,9.4035,9.43,0.0,0.0,0.0,0.0,0.0,0.0,0.0,0.0,0.0,0.0,0.0,0.0,0.0,0.0,0.0,8.1073,8.0065,7.9626,8.0182,0.0,0.0,0.0,0.0,0.0,9.3026,9.5953,9.8375,10.0212,10.0212,10.0212,10.0212,9.975,9.9067,9.8211,9.7711,9.7057,9.6288,9.6288,9.6288,9.6288,9.6288,9.6288,9.6288,9.6288,9.6288,9.6288,9.6288,9.6288,9.6288,0.0,0.0,0.0,0.0,0.0,0.0,0.0,9.2353,0.0,9.7104,0.0,10.1086,10.2299,10.319,10.3905,10.471,0.0,10.5115,10.5803,10.5091,10.4722,10.4885,10.3782,10.3312,10.3508,10.2484,0.0,0.0,0.0,0.0,8.908,8.6239,8.4965,8.5192,8.8388,0.0,0.0,9.967,10.33,0.0,10.5395,10.5482,10.5482,10.5686,10.5711,10.5711,10.5711,10.5711,10.5711,10.5711,10.5103,10.4405,10.4405,10.3706,10.2994,10.2994,10.241,10.1585,10.1509,10.09,9.996,9.9048,9.8716,9.8193,9.6639,9.6271,9.5993,9.5134,9.3833,0.0,0.0,0.0,0.0,0.0,0.0,0.0,0.0,0.0,0.0,0.0,0.0,0.0,0.0,0.0,0.0,0.0,0.0,0.0,0.0,0.0,0.0,0.0,9.4388,0.0,9.8942,0.0,9.8981,9.8981,9.8865,9.8327,9.7519,9.7403,9.698,9.6288,9.6288,9.6288,9.6288,9.6288,9.6288,9.6288,9.6288,9.6288,9.6288,9.6288,9.6288,9.6288,0.0,0.0,0.0,0.0,0.0,9.1577,9.2896,9.4808,9.6998,9.9614,10.1405,0.0,10.4808,10.5701,10.6516,10.7393,10.7406,0.0,0.0,0.0,0.0,10.7393,10.6411,10.5688,10.5291,10.4202,10.2792,0.0,0.0,0.0,9.1871,8.7129,8.523,8.5988,8.8653,0.0,9.6718,9.8795,0.0,10.2511,10.3982,10.4616,10.4692,10.5406,10.5711,10.5711,10.5711,10.5711,10.5711,10.5711,10.5585,10.5419,10.5419,10.4798,10.3998,10.3998,10.3312,10.2398,10.1712,10.1382,10.0913,9.9353,9.8871,9.8489,9.7502,9.7184,9.6865,9.6044,9.5717,9.4743,9.2033,0.0,0.0,0.0,0.0,0.0,0.0,0.0,0.0,0.0,0.0,0.0,0.0,0.0,0.0,0.0,0.0,0.0,0.0,0.0,0.0,0.0,0.0,0.0,0.0,0.0,0.0,9.9875,9.9144,9.8327,9.748,9.6826,9.6442,9.6288,9.6288,9.6288,9.6288,9.6288,9.6288,9.6288,9.6288,9.6288,9.6288,9.6288,9.6288,9.6288,0.0,0.0,0.0,0.0,0.0,0.0,0.0,9.7606,0.0,10.1115,10.3006,10.4685,10.6196,10.7011,10.7801,10.8602,10.8717,10.8882,10.9312,10.8893,10.869,10.8717,10.7799,0.0,10.6285,0.0,10.4392,10.2495,0.0,0.0,9.2533,9.0008,8.7852,8.6216,8.8789,9.2541,0.0,0.0,0.0,10.1901,10.3676,10.4386,10.4501,10.5418,10.5711,10.5711,10.5711,10.5711,10.5711,10.5711,10.5711,10.5711,10.5711,10.5407,10.5014,10.5014,10.429,10.34,10.26,10.1978,10.1318,10.001,9.9619,9.9328,9.8453,9.825,9.7933,9.7098,9.6274,9.4865,9.2032,9.0235,0.0,0.0,0.0,0.0,0.0,0.0,0.0,0.0,0.0,0.0,0.0,0.0,0.0,0.0,0.0,0.0,0.0,0.0,0.0,0.0,0.0,0.0,0.0,0.0,0.0,9.9413,9.8981,9.8596,9.8173,9.7788,9.7596,9.7557,9.7134,9.6903,9.6903,9.648,9.6288,9.6288,9.6288,9.6288,9.6288,9.6288,9.6288,9.6288,0.0,9.2121,0.0,0.0,9.4608,0.0,9.7095,9.9987,10.2209,10.2209,10.4492,10.6388,10.7087,10.8093,10.8895,10.9504,10.9786,11.0219,11.0802,11.0283,11.0003,11.0003,10.9098,10.822,10.7405,10.719,10.588,0.0,0.0,0.0,0.0,0.0,0.0,0.0,0.0,0.0,0.0,0.0,9.9014,10.1416,10.3395,10.4119,10.431,10.5303,10.5711,10.5711,10.5711,10.5711,10.5711,10.5711,10.5711,10.5711,10.5711,10.5711,10.5711,10.5711,10.5189,10.4501,10.3699,10.2798,10.1797,10.0907,10.0505,10.0113,9.9428,9.9289,9.901,9.8134,9.6788,9.5096,9.2923,9.2525,0.0,0.0,0.0,0.0,0.0,0.0,0.0,0.0,0.0,0.0,0.0,0.0,0.0,0.0,0.0,0.0,8.2188,8.4983,0.0,0.0,0.0,0.0,9.748,0.0,9.9067,0.0,9.9067,9.8981,9.8788,9.8788,9.8788,9.875,9.8057,9.7788,9.7711,9.7096,9.6826,9.6826,9.6826,9.6826,9.6826,9.6826,9.6826,9.6788,0.0,0.0,0.0,0.0,0.0,0.0,0.0,10.1297,10.3099,10.3099,10.5903,10.8004,10.8093,10.9506,11.05,11.0602,11.1302,11.1799,11.1901,11.1786,11.1799,11.1799,11.0907,10.999,10.9188,10.8386,10.7189,0.0,0.0,0.0,0.0,0.0,0.0,0.0,0.0,0.0,0.0,9.6447,9.7891,9.9828,10.2285,10.3278,10.352,10.5112,10.5711,10.5711,10.5711,10.5711,10.5711,10.5711,10.5711,10.5711,10.5711,10.5711,10.5711,10.5711,10.5597,10.5418,10.4501,10.3699,10.2884,10.1994,10.1096,10.0389,10.0313,10.0189,9.9847,9.9048,9.822,9.7157,9.5527,9.5243,9.4664,0.0,0.0,0.0,0.0,0.0,0.0,0.0,0.0,0.0,0.0,0.0,0.0,0.0,0.0,8.0605,8.2192,8.3362,0.0,8.8718,0.0,9.4903,9.748,9.9144,0.0,9.999,9.999,9.9567,9.8788,9.8788,9.8788,9.8788,9.8711,9.8673,9.8673,9.8596,9.8557,9.8557,9.8557,9.8557,9.8557,9.8557,9.8557,9.8442,0.0,0.0,0.0,0.0,0.0,0.0,0.0,10.3013,10.4692,10.4692,10.6717,10.8398,10.8895,11.05,11.1493,11.1493,11.2219,11.2716,11.2716,11.2716,11.2487,11.199,11.1684,11.0806,10.9417,10.8589,10.7405,0.0,0.0,0.0,0.0,0.0,0.0,0.0,0.0,9.4628,9.557,9.6448,9.8113,10.0298,10.2411,10.352,10.4081,10.5189,10.5711,10.5711,10.5711,10.5711,10.5711,10.5711,10.5711,10.5711,10.5711,10.5711,10.5711,10.5711,10.5711,10.5482,10.4616,10.4195,10.3584,10.2197,10.1588,10.1209,10.0598,10.0486,10.0297,9.9992,9.9353,9.8468,9.7407,9.7238,9.6986,0.0,0.0,0.0,0.0,0.0,0.0,0.0,0.0,0.0,0.0,0.0,0.0,0.0,0.0,0.0,8.2247,8.2631,0.0,8.8564,0.0,9.4441,9.748,9.9712,10.0789,10.0789,10.0789,10.0596,10.0289,10.0289,9.9981,9.9567,9.9567,9.9298,9.8788,9.8788,9.8788,9.8788,9.8788,9.8788,9.8788,9.8788,9.8788,9.875,10.1211,0.0,9.9779,0.0,10.0905,10.1197,10.2796,10.468,10.622,10.6705,10.8016,10.9201,10.9697,11.1111,11.2092,11.2307,11.311,11.362,11.349,11.3492,11.3289,11.2792,11.2296,0.0,11.0194,10.9086,10.7902,10.6399,10.4807,0.0,0.0,0.0,0.0,0.0,9.6036,9.6601,9.7471,9.812,9.9534,10.1483,10.3011,10.389,10.4501,10.5418,10.5711,10.5711,10.5711,10.5711,10.5711,10.5711,10.5711,10.5711,10.5711,10.5711,10.5711,10.5711,10.5711,10.5609,10.4909,10.4616,10.4119,10.2884,10.25,10.2091,10.1494,10.1212,10.1006,10.07,10.0188,9.9632,9.8829,9.8697,9.8544,0.0,0.0,0.0,0.0,0.0,0.0,0.0,0.0,8.5749,8.3785,0.0,0.0,0.0,0.0,0.0,0.0,0.0,0.0,0.0,0.0,0.0,0.0,0.0,10.1279,10.1279,10.1279,10.1279,10.1279,10.1279,10.1019,10.0491,10.0491,10.0096,9.9558,9.9558,9.9558,9.9558,9.9558,9.9558,9.9558,9.9558,9.9558,9.9481,10.3214,10.3087,10.3087,10.3214,10.3813,10.4616,10.5482,10.6412,10.7481,10.9112,11.0118,11.0704,11.0691,11.1493,11.232,11.2884,11.3897,11.4382,11.4194,11.4407,11.4487,0.0,0.0,11.199,11.199,11.0309,10.8997,10.8207,0.0,0.0,10.0411,0.0,9.8824,10.0299,10.0507,10.1012,10.1815,10.1815,10.24,10.3202,10.4081,10.4386,10.4501,10.5418,10.5711,10.5711,10.5711,10.5711,10.5711,10.5711,10.5711,10.5711,10.5711,10.5711,10.5711,10.5711,10.5711,10.5711,10.5711,10.5112,10.4386,10.4386,10.3794,10.329,10.32,10.2582,10.1793,10.1016,10.0886,10.0693,9.985,9.9686,9.9149,9.7472,0.0,0.0,0.0,0.0,0.0,0.0,8.6812,8.4593,8.3678,0.0,0.0,0.0,0.0,0.0,0.0,0.0,0.0,8.8603,9.2796,0.0,9.875,10.0519,10.1279,10.1279,10.1279,10.1279,10.1279,10.1279,10.1279,10.1279,10.1279,10.1279,10.1289,10.1289,10.1289,10.1289,10.1289,10.1289,10.1289,10.1289,10.1289,10.1212,10.6603,10.6603,10.6603,10.6603,10.6794,10.7099,10.7405,10.8093,10.901,11.0118,11.0997,11.199,11.3188,11.348,11.3811,0.0,11.4791,11.5301,0.0,11.5287,11.5085,11.4512,11.3977,11.3174,11.199,11.0882,10.9889,10.8997,0.0,0.0,0.0,10.0583,10.0583,10.0621,10.1815,10.2514,10.2782,10.2782,10.3278,10.4004,10.431,10.4807,10.5303,10.5597,10.5711,10.5711,10.5711,10.5711,10.5711,10.5711,10.5711,10.5711,10.5711,10.5711,10.5711,10.5711,10.5711,10.5711,10.5711,10.5495,10.5213,10.4685,10.4388,10.4013,10.3485,10.3185,10.2786,10.1904,10.1811,10.1597,10.0914,10.0694,10.0187,9.8567,0.0,0.0,0.0,0.0,0.0,0.0,0.0,8.517,0.0,8.337,0.0,0.0,0.0,0.0,0.0,0.0,0.0,0.0,9.2796,0.0,9.8788,10.0519,10.1279,10.1279,10.1279,10.1279,10.1279,10.1279,10.1279,10.1279,10.1279,10.1279,10.1279,10.1279,10.1279,10.1279,10.1279,10.1279,10.1279,10.1279,10.1279,10.1289,10.8207,10.8207,10.8207,10.8207,10.8207,10.8284,10.8589,10.9392,11.0194,11.1111,11.2181,11.3289,11.441,11.4779,0.0,11.4903,11.5402,0.0,11.5615,11.5708,11.5505,11.5008,11.4716,11.39,11.2487,0.0,0.0,10.9379,10.7507,10.5189,10.2502,10.3087,10.2896,10.2094,10.3202,10.3813,10.4119,10.4119,10.4386,10.4921,10.4921,10.5189,10.5711,10.5711,10.5711,10.5711,10.5711,10.5711,10.5711,10.5711,10.5711,10.5711,10.5711,10.5711,10.5711,10.5711,10.5711,10.5686,10.5785,10.5797,10.5718,10.5185,10.5216,10.5004,10.4199,10.4018,10.3711,10.2511,10.2285,10.2107,10.141,10.119,10.072,9.9087,0.0,0.0,0.0,0.0,0.0,0.0,0.0,0.0,0.0,8.5025,0.0,0.0,0.0,0.0,0.0,0.0,0.0,9.0488,9.4057,0.0,9.9712,10.0789,10.1279,10.1279,10.1279,10.1279,10.1279,10.1279,10.1279,10.1279,10.1279,10.1279,10.1279,10.1279,10.1279,10.1289,10.1404,10.1385,10.1385,10.1385,10.1404,10.1413,10.8513,10.8513,0.0,0.0,10.8513,0.0,10.9379,11.0194,11.1111,11.199,11.348,11.4512,11.4601,11.5314,11.5604,11.5505,0.0,0.0,0.0,11.5615,11.5696,11.5696,11.5008,0.0,11.3276,11.2487,11.1188,10.9379,10.8704,10.7481,10.5915,10.5915,10.5418,10.4692,10.4616,10.4998,10.58,10.5711,10.5711,10.5711,10.5711,10.5711,10.5711,10.5711,10.5711,10.5711,10.5711,10.5711,10.5711,10.5711,10.5711,10.5686,10.5686,10.5698,10.5698,10.5698,10.5698,10.5684,10.5904,10.5901,10.5886,10.6012,10.6085,10.6018,10.5298,10.5019,10.4509,10.2906,10.2604,10.2404,10.1597,10.1279,10.0789,9.9058,9.8788,9.7596,9.4181,0.0,0.0,0.0,0.0,0.0,0.0,8.7555,8.794,0.0,0.0,0.0,0.0,0.0,0.0,9.3672,9.6249,9.8788,10.1279,10.1279,10.1279,10.1279,10.1279,10.1279,10.1279,10.1279,10.1279,10.1279,10.1279,10.1279,10.1279,10.1279,10.1289,10.1299,10.1519,10.1489,10.1516,10.1606,10.1611,10.1607,0.0,0.0,11.1111,11.1111,11.1111,11.0882,11.05,11.1111,11.199,11.2792,11.3786,11.4703,11.5314,11.5582,11.5683,11.5694,11.5721,11.5721,11.5681,11.5721,11.5696,11.5696,11.5505,11.5008,11.4206,11.3404,11.1799,10.9379,10.9188,10.8589,10.7596,10.7596,10.752,10.729,10.6603,10.6412,10.6603,10.5991,10.5711,10.5711,10.5711,10.5711,10.5711,10.5711,10.5711,10.5711,10.5711,10.5711,10.5711,10.5711,10.5711,10.5698,10.5807,10.5919,10.5919,10.5919,10.5919,10.5904,10.5993,10.5989,10.6012,10.6085,10.6319,10.6287,10.6095,10.6095,10.571,10.471,10.401,10.3289,10.252,10.1702,10.0789,9.9058,9.8788,9.7596,9.4181,0.0,0.0,0.0,8.8449,8.8179,8.8372,8.894,8.994,0.0,0.0,0.0,0.0,0.0,9.3873,9.4681,9.7173,9.9404,10.1279,10.1279,10.1279,10.1279,10.1279,10.1279,10.1279,10.1279,10.1279,10.1279,10.1279,10.1279,10.1279,10.1279,10.1404,10.1481,10.1509,10.1615,10.1685,10.1702,10.1796,10.1909,11.241,11.2487,11.2487,11.2487,11.2487,11.241,11.1914,11.2601,11.3289,11.3709,11.4512,11.52,11.5696,11.5696,11.5696,11.5696,11.5696,11.5696,11.5696,11.5696,11.5696,11.5696,11.5696,11.5314,11.4487,11.3595,11.2092,11.0003,11.0003,10.9583,10.8691,10.8691,10.8589,10.8207,10.7711,10.729,10.6908,10.6412,10.5991,10.5711,10.5711,10.5711,10.5711,10.5711,10.5711,10.5711,10.5711,10.5711,10.5711,10.5711,10.5684,10.5783,10.5904,10.5886,10.5982,10.5989,10.6016,10.5993,10.6117,10.6101,10.6096,10.628,10.6315,10.6395,10.6395,10.6395,10.6213,10.529,10.4492,10.3597,10.2789,10.1904,10.0789,9.9058,9.8788,9.775,9.472,9.3595,0.0,9.1142,9.068,9.0565,9.0949,9.1364,9.2018,9.2979,0.0,0.0,9.4788,9.5326,9.5749,9.6134,9.8259,9.9981,10.1279,10.1279,10.1279,10.1279,10.1279,10.1279,10.1279,10.1279,10.1279,10.1289,10.1414,10.1395,10.1395,10.1404,10.1505,10.1599,10.168,10.1796,10.1906,10.2018,10.208,10.2119,11.3213,11.3404,11.3404,11.3404,11.3404,11.3404,11.32,11.39,11.4487,11.4487,11.5175,11.5685,11.5685,11.5711,11.5788,11.5685,11.5685,11.5723,11.5696,11.5696,11.5696,11.5696,11.5696,11.5391,11.4703,11.3709,11.241,11.0691,11.0691,11.0309,10.9608,10.9608,10.9201,10.8589,10.8398,10.8016,10.729,10.6985,10.6488,10.5915,10.5711,10.5711,10.5711,10.5711,10.5711,10.5711,10.5711,10.5711,10.5686,10.5698,10.5795,10.5889,10.5886,10.6005,10.6117,10.6188,10.6117,10.6101,10.6199,10.6182,10.628,10.6413,10.6395,10.6395,10.6395,10.6395,10.6213,10.5405,10.4597,10.3789,10.2981,10.2097,10.0904,9.9096,9.8596,9.7634,9.5335,0.0,9.3557,9.3672,9.321,9.321,9.4018,9.421,9.4326,9.4441,9.448,0.0,0.0,9.6788,9.7173,9.7865,9.9336,10.0481,10.1279,10.1279,10.1279,10.1279,10.1279,10.1279,10.1279,10.1299,10.1308,10.1308,10.149,10.1516,10.1514,10.1594,10.1699,10.1912,10.1909,10.1989,10.2207,10.23,10.2289,10.24,11.4091,11.4283,11.4283,11.4283,11.4283,11.4015,11.3276,11.39,11.4487,11.4487,11.5305,11.5906,11.5906,11.6009,11.5996,11.5881,11.5906,11.5777,11.5696,11.5696,11.5696,11.5696,11.5696,11.562,11.5505,11.4015,11.241,11.0691,11.0691,11.0614,11.05,11.05,11.0385,11.0309,10.9506,10.9112,10.8882,10.7481,10.6794,10.6679,10.5991,10.5711,10.5711,10.5711,10.5711,10.5711,10.5711,10.5711,10.5698,10.5818,10.5904,10.5886,10.6079,10.6194,10.6188,10.6305,10.6402,10.6315,10.6413,10.6413,10.6413,10.6395,10.6395,10.6395,10.6395,10.6395,10.6405,10.6203,10.5482,10.4723,10.3789,10.2981,10.1597,9.9173,9.7596,9.6288,0.0,0.0,9.2941,9.3633,9.4258,9.4951,9.5826,9.6519,9.7211,9.7942,9.8019,9.8134,9.8404,9.9096,9.9567,9.9683,9.9952,10.0481,10.1279,10.1279,10.1279,10.1279,10.1279,10.1279,10.1289,10.1414,10.149,10.1499,10.16,10.1616,10.1795,10.1803,10.1911,10.2106,10.2119,10.2198,10.2381,10.2508,10.2489,10.2599,11.5008,11.5085,11.5085,11.5085,11.5085,11.5008,11.4588,11.4894,11.5188,11.5191,11.56,11.5894,11.6008,11.6109,11.6121,11.6021,11.6008,11.5996,11.5816,11.5698,11.5696,11.5696,11.5696,11.5314,11.4397,11.3582,11.241,11.0691,11.0691,11.0691,11.0691,11.0691,11.0691,11.0805,11.041,11.0001,10.9488,10.8301,10.7497,10.7011,10.6196,10.5889,10.5889,10.5889,10.5889,10.5889,10.5889,10.5889,10.5901,10.5882,10.5989,10.6095,10.6205,10.6193,10.6294,10.6385,10.6395,10.6395,10.6395,10.6395,10.6395,10.6395,10.6395,10.6395,10.6395,10.6395,10.6395,10.6395,10.5713,10.4992,10.4597,10.3482,10.2097,10.0404,9.875,0.0,0.0,9.5672,9.5326,9.5711,9.6519,9.722,9.7596,9.798,9.8365,9.875,9.8788,9.8981,9.949,9.9875,10.0298,10.0712,10.0808,10.099,10.1404,10.1384,10.1489,10.1489,10.1489,10.1489,10.1489,10.1496,10.1615,10.1718,10.1685,10.1781,10.2011,10.2014,10.2203,10.2306,10.2306,10.2391,10.2617,10.2617,10.2603,10.2601,11.5582,11.5696,11.5696,11.5696,11.5696,11.5696,11.5696,11.5696,11.5698,11.5803,11.5906,11.5996,11.6095,11.6195,11.6181,11.6106,11.6106,11.6095,11.5996,11.5893,11.5801,11.5696,11.5696,11.5008,11.3518,11.3276,11.2487,11.0997,11.0806,11.0717,11.0704,11.0704,11.0805,11.089,11.089,11.0606,11.0011,10.9014,10.8209,10.7492,10.6407,10.5985,10.5985,10.5985,10.5985,10.5985,10.5985,10.5985,10.5985,10.6018,10.6085,10.6199,10.6182,10.6294,10.6395,10.6395,10.651,10.6713,10.651,10.6395,10.6395,10.6395,10.6395,10.6395,10.6395,10.6395,10.6395,10.6395,10.5905,10.529,10.5097,10.3905,10.2597,10.151,0.0,0.0,0.0,9.748,9.7365,9.775,9.8557,9.9096,9.9096,9.925,9.9365,9.9365,9.9365,9.9673,10.0289,10.0394,10.0702,10.1384,10.1509,10.1489,10.1507,10.1594,10.1607,10.1607,10.1688,10.1713,10.1713,10.1691,10.1819,10.1903,10.1983,10.21,10.2187,10.2311,10.2399,10.2493,10.2493,10.2617,10.2601,10.2601,10.2601,10.2601,11.5696,11.5696,11.5696,11.5696,11.5696,11.5696,11.5696,11.5696,11.5696,11.571,11.5894,11.6095,11.6095,11.6285,11.6416,11.6289,11.6315,11.6191,11.6095,11.6121,11.6009,11.571,11.5696,11.5314,11.4397,11.3595,11.2792,11.1914,11.1111,11.0793,11.0906,11.0906,11.0979,11.1111,11.1111,11.1111,11.0893,10.9282,10.8592,10.8401,10.6713,10.5985,10.5985,10.5985,10.5985,10.5985,10.5985,10.5985,10.6007,10.6107,10.6188,10.621,10.6315,10.6395,10.6395,10.6395,10.7021,10.7405,10.6587,10.6395,10.6395,10.6395,10.6395,10.6395,10.6395,10.6395,10.6395,10.6395,10.628,10.6097,10.5213,10.4405,10.3289,10.1597,0.0,0.0,9.8596,9.7365,9.698,9.8519,9.949,9.999,9.999,10.0712,10.1087,10.1087,10.1087,10.1087,10.1202,10.1298,10.1511,10.1803,10.1615,10.1478,10.1615,10.1708,10.1796,10.1796,10.1909,10.2018,10.2018,10.2009,10.2087,10.21,10.2207,10.2301,10.2518,10.2484,10.2507,10.2589,10.2589,10.2593,10.2601,10.2601,10.2601,10.2601,11.5696,11.5696,11.5685,11.5816,11.579,11.579,11.579,11.5894,11.5907,11.5907,11.6108,11.6291,11.6297,11.6389,11.6511,11.6378,11.6416,11.6397,11.6191,11.6179,11.6108,11.5803,11.5698,11.5314,11.4487,11.3595,11.2792,11.199,11.1201,11.0919,11.0892,11.1016,11.1123,11.1201,11.1201,11.1285,11.1187,10.9508,10.8816,10.8586,10.6895,10.6193,10.6193,10.6193,10.6193,10.6193,10.6193,10.6193,10.628,10.6284,10.6294,10.6305,10.6385,10.6395,10.651,10.701,10.7405,10.7713,10.7905,10.7982,10.7982,10.7982,10.7982,10.779,10.729,10.7213,10.7098,10.651,10.6395,10.628,10.602,10.5213,10.4405,10.3789,0.0,9.9981,10.0289,9.9365,9.8904,9.9529,10.0289,10.0895,10.1,10.1192,10.1404,10.1507,10.1585,10.1607,10.1607,10.171,10.1804,10.1888,10.1896,10.1918,10.1909,10.2014,10.21,10.21,10.2197,10.2183,10.2183,10.2207,10.23,10.2406,10.2389,10.2499,10.2586,10.2586,10.2607,10.2601,10.2601,10.2601,10.2593,10.2617,10.2591,10.2593,11.5711,11.5801,11.5802,11.5907,11.6009,11.6009,11.6009,11.6008,11.6108,11.6108,11.6217,11.6285,11.6378,11.6511,11.6495,11.6495,11.6489,11.6393,11.63,11.6217,11.6095,11.5906,11.5893,11.5382,11.4616,11.3814,11.2921,11.2118,11.1287,11.1004,11.1013,11.1108,11.1212,11.1402,11.1402,11.1407,11.1395,10.9598,10.8906,10.879,10.7098,10.6395,10.6395,10.6395,10.6395,10.6395,10.6395,10.6395,10.6395,10.6395,10.6395,10.6395,10.6395,10.6395,10.6587,10.7405,10.7905,10.829,10.9098,10.9483,10.9598,10.8983,10.8906,10.879,10.8213,10.8098,10.779,10.7021,10.679,10.6703,10.651,10.5713,10.5107,10.5107,10.3405,10.2097,10.2097,10.1703,10.1308,10.1308,10.1789,10.2222,10.2287,10.2296,10.2312,10.2088,10.2212,10.2098,10.1812,10.2007,10.2119,10.2007,10.2219,10.2301,10.2301,10.2306,10.2389,10.2389,10.2383,10.2404,10.2404,10.2404,10.2401,10.2503,10.2503,10.2582,10.2601,10.2601,10.2601,10.2601,10.2601,10.2581,10.2595,10.2516,10.2491,10.2591,11.5689,11.5906,11.5907,11.6083,11.6108,11.6108,11.6108,11.6108,11.6108,11.6108,11.6217,11.6289,11.6289,11.6416,11.6484,11.6484,11.6409,11.6289,11.6289,11.6008,11.5906,11.5906,11.5995,11.5701,11.4707,11.4002,11.3194,11.23,11.1506,11.1193,11.1307,11.1307,11.1413,11.1511,11.1511,11.1511,11.1395,10.9598,10.8906,10.879,10.7098,10.6395,10.6395,10.6395,10.6395,10.6395,10.6395,10.6395,10.6395,10.6395,10.6395,10.6395,10.6395,10.6395,10.6587,10.7482,10.829,10.9098,10.9983,11.0791,11.1098,10.9406,10.8906,10.8906,10.8906,10.8906,10.8713,10.7905,10.7713,10.7405,10.6597,10.5713,10.5107,10.5107,10.4405,10.3905,10.3905,10.4003,10.3984,10.3984,10.4115,10.4209,10.4209,10.4209,10.3902,10.3188,10.3088,10.2779,10.1894,10.2213,10.2317,10.2294,10.2507,10.2601,10.2601,10.2507,10.2499,10.2499,10.2595,10.2601,10.2601,10.2601,10.2601,10.2601,10.2601,10.2601,10.2601,10.2601,10.2601,10.2601,10.2601,10.2586,10.2513,10.2607,10.2582,10.2513,11.5114,11.5701,11.6083,11.6217,11.6191,11.6191,11.6191,11.6312,11.6309,11.6291,11.6397,11.6389,11.6389,11.6382,11.6397,11.6397,11.6191,11.6195,11.6195,11.6083,11.6008,11.6008,11.5996,11.5613,11.4896,11.4013,11.3194,11.23,11.1588,11.1312,11.1319,11.1396,11.1489,11.1511,11.1511,11.1511,11.1395,10.9598,10.8906,10.879,10.7098,10.6395,10.6395,10.6395,10.6395,10.6395,10.6395,10.6395,10.6395,10.6395,10.6395,10.6395,10.6395,10.6395,10.6713,10.8098,10.8713,10.9213,11.0714,11.1291,11.1395,11.0906,11.0714,11.0598,10.9983,10.979,10.9406,10.7982,10.7713,10.7405,10.6597,10.6213,10.602,10.602,10.529,10.4781,10.4898,10.4388,10.4012,10.4115,10.4191,10.4197,10.4297,10.4306,10.4203,10.4009,10.36,10.2992,10.2203,10.2396,10.2397,10.23,10.2507,10.2612,10.2681,10.2589,10.2599,10.2599,10.2585,10.2601,10.2601,10.2588,10.2681,10.2681,10.2709,10.261,10.2601,10.2601,10.2601,10.2601,10.2592,10.2582,10.2605,10.2614,10.2598,10.2713,11.4788,11.5414,11.5795,11.6309,11.6409,11.6409,11.6409,11.64,11.65,11.6382,11.64,11.6495,11.6495,11.6378,11.6386,11.63,11.6094,11.5996,11.5907,11.5996,11.6008,11.6095,11.5815,11.5188,11.4493,11.3696,11.2798,11.1991,11.161,11.1413,11.1413,11.1489,11.1511,11.1511,11.1511,11.128,11.0906,10.9483,10.8713,10.829,10.6895,10.6395,10.6395,10.6395,10.6395,10.6395,10.6395,10.6395,10.6395,10.6395,10.6395,10.6395,10.6395,10.6395,10.6713,10.8021,10.8406,10.8713,11.0098,11.0521,11.0521,11.0521,11.1021,11.1406,11.0791,11.0714,11.0214,10.8482,10.8213,10.779,10.6587,10.6395,10.6395,10.6395,10.6023,10.5687,10.5794,10.5399,10.5087,10.518,10.5301,10.5314,10.5404,10.5393,10.5194,10.471,10.3988,10.3299,10.24,10.25,10.2599,10.2399,10.2491,10.2695,10.2718,10.2698,10.2607,10.2607,10.2607,10.2599,10.2585,10.2718,10.2692,10.2718,10.2686,10.2712,10.2607,10.2612,10.262,10.261,10.2608,10.2599,10.2697,10.2683,10.2699,10.2717,11.4495,11.5018,11.5398,11.6204,11.6495,11.6495,11.6495,11.6495,11.6495,11.6495,11.6495,11.6495,11.6495,11.6484,11.6378,11.6289,11.5995,11.5803,11.5685,11.579,11.6009,11.6108,11.5397,11.4622,11.3815,11.3121,11.2291,11.1511,11.1511,11.1511,11.1511,11.1511,11.1511,11.1511,11.1511,11.1021,11.0098,10.929,10.8406,10.7598,10.679,10.6395,10.6395,10.6395,10.6395,10.6395,10.6395,10.6395,10.6395,10.6395,10.6395,10.6395,10.6395,10.6395,10.6587,10.7405,10.7713,10.7905,10.8713,10.8906,10.8906,10.8906,11.0098,11.128,11.128,11.128,11.078,10.9098,10.8801,10.8301,10.6685,10.6387,10.6387,10.6387,10.6516,10.6507,10.6517,10.6714,10.6821,10.6791,10.6907,10.7003,10.6981,10.709,10.6596,10.5096,10.4417,10.3612,10.2591,10.2601,10.2588,10.2504,10.2617,10.271,10.2713,10.2713,10.2713,10.271,10.271,10.2695,10.2709,10.2694,10.2702,10.2713,10.2611,10.2611,10.2701,10.2603,10.2617,10.2716,10.2709,10.2709,10.2619,10.2783,10.2694,10.2585,11.3093,11.4297,11.5308,11.5484,11.611,11.6495,11.6495,11.6495,11.6495,11.6495,11.6495,11.6495,11.6495,11.6393,11.6289,11.6195,11.5906,11.5814,11.5893,11.5881,11.6008,11.6203,11.4906,11.4003,11.3978,11.3077,11.2291,11.1511,11.1511,11.1511,11.1511,11.1511,11.1511,11.1511,11.1511,11.1021,11.0098,10.929,10.8406,10.7598,10.679,10.6395,10.6395,10.6395,10.6395,10.6395,10.6395,10.6395,10.6395,10.6395,10.6395,10.6395,10.6395,10.6395,10.6587,10.7405,10.7713,10.7905,10.8713,10.8906,10.8906,10.8906,10.9213,10.9483,10.9483,10.9483,10.9213,10.8213,10.8006,10.772,10.669,10.6594,10.6613,10.6613,10.6593,10.6707,10.6703,10.6795,10.6809,10.6885,10.6987,10.7013,10.7098,10.7286,10.672,10.5189,10.491,10.4192,10.2607,10.2617,10.2588,10.2511,10.2592,10.2683,10.2782,10.2782,10.2811,10.271,10.271,10.2719,10.2697,10.2807,10.269,10.2707,10.2703,10.2714,10.2712,10.271,10.2694,10.2709,10.2713,10.2819,10.2796,10.2917,10.2882,10.2806,11.2588,11.3791,11.4791,11.5215,11.5995,11.6495,11.6495,11.6495,11.6495,11.6495,11.6495,11.6495,11.6495,11.6389,11.6297,11.6205,11.6008,11.5881,11.5996,11.6097,11.6003,11.5713,11.4591,11.3686,11.3407,11.2599,11.1895,11.1511,11.1511,11.1511,11.1511,11.1511,11.1511,11.1511,11.1511,11.0791,10.9483,10.9098,10.8213,10.701,10.6587,10.6395,10.6395,10.6395,10.6395,10.6395,10.6395,10.6395,10.6395,10.6395,10.6395,10.6395,10.6395,10.6395,10.651,10.6895,10.7098,10.7213,10.7598,10.7713,10.7713,10.7713,10.7716,10.8006,10.8685,10.8909,10.8786,10.79,10.7788,10.7596,10.6796,10.6685,10.6821,10.6821,10.6885,10.6982,10.6991,10.6983,10.7105,10.7188,10.7195,10.7188,10.7395,10.7083,10.641,10.5305,10.4806,10.3999,10.2695,10.2704,10.2716,10.2605,10.2688,10.2802,10.2787,10.2787,10.2787,10.2785,10.2813,10.2692,10.2694,10.2812,10.2813,10.2711,10.2808,10.2794,10.2712,10.2687,10.2705,10.2803,10.2789,10.2804,10.2889,10.2889,10.289,10.289,11.2406,11.3291,11.4214,11.4984,11.5918,11.6495,11.6495,11.6495,11.6495,11.6495,11.6495,11.6495,11.6495,11.6511,11.6416,11.63,11.6219,11.6108,11.6094,11.6191,11.6005,11.5183,11.439,11.3599,11.2714,11.1895,11.1511,11.1511,11.1511,11.1511,11.1511,11.1511,11.1511,11.1511,11.128,11.0406,10.8906,10.879,10.779,10.6395,10.6395,10.6395,10.6395,10.6395,10.6395,10.6395,10.6395,10.6395,10.6395,10.6395,10.6395,10.6395,10.6395,10.6395,10.6395,10.6395,10.6395,10.6395,10.6395,10.6395,10.6395,10.6395,10.6486,10.6815,10.8188,10.8595,10.8482,10.7789,10.7681,10.7609,10.6911,10.6901,10.7006,10.7006,10.71,10.7217,10.7217,10.7301,10.7416,10.7416,10.7407,10.7483,10.7583,10.6797,10.6085,10.5405,10.4511,10.3616,10.2803,10.279,10.2804,10.2804,10.2789,10.2807,10.2781,10.2781,10.2787,10.2914,10.2789,10.2818,10.2805,10.2917,10.2918,10.2781,10.2784,10.2781,10.2815,10.2807,10.2781,10.28,10.2886,10.2889,10.289,10.289,10.289,10.289,11.1588,11.2906,11.3984,11.4214,11.5495,11.6495,11.6495,11.6495,11.6495,11.6495,11.6495,11.6495,11.6495,11.6393,11.6312,11.6289,11.6219,11.6106,11.6303,11.6289,11.6001,11.5308,11.4522,11.3599,11.2714,11.1895,11.1511,11.1511,11.1511,11.1511,11.1511,11.1511,11.1511,11.1522,11.0714,10.979,10.8906,10.8213,10.729,10.6395,10.6395,10.6395,10.6395,10.6395,10.6395,10.6395,10.6395,10.6395,10.6395,10.6395,10.6395,10.6395,10.6395,10.6395,10.6395,10.6395,10.6395,10.6395,10.6395,10.6395,10.6395,10.6395,10.6486,10.6603,10.6786,10.6892,10.7014,10.6989,10.7089,10.7115,10.71,10.719,10.7282,10.7282,10.7385,10.7404,10.7404,10.741,10.7416,10.7416,10.7516,10.7612,10.7592,10.7001,10.6218,10.5399,10.4502,10.3692,10.2818,10.28,10.281,10.281,10.2902,10.291,10.2912,10.2912,10.2912,10.2914,10.2882,10.2884,10.2883,10.2885,10.2882,10.2795,10.2882,10.2798,10.2818,10.2916,10.2884,10.2886,10.289,10.289,10.289,10.289,10.289,10.289,11.1483,11.2791,11.3984,11.3984,11.5407,11.6495,11.6495,11.6495,11.6495,11.6495,11.6495,11.6495,11.6495,11.64,11.6405,11.6405,11.6397,11.6309,11.6405,11.602,11.5389,11.4599,11.3714,11.2906,11.2011,11.1703,11.1511,11.1511,11.1511,11.1511,11.1511,11.1511,11.1511,11.1522,11.0598,10.9713,10.879,10.8021,10.7213,10.6395,10.6395,10.6395,10.6395,10.6395,10.6395,10.6395,10.6395,10.6395,10.6395,10.6395,10.6395,10.6395,10.6395,10.6395,10.6395,10.6395,10.6395,10.6395,10.6395,10.6395,10.6415,10.6399,10.6583,10.6688,10.6791,10.6998,10.7106,10.7006,10.7089,10.7222,10.7282,10.7419,10.7483,10.7483,10.7615,10.7588,10.7617,10.7583,10.7592,10.7693,10.7714,10.7597,10.7111,10.6299,10.5485,10.4704,10.3808,10.319,10.2896,10.2902,10.2906,10.2906,10.2911,10.2917,10.2882,10.2882,10.2884,10.2887,10.2889,10.2889,10.2886,10.2889,10.2888,10.2882,10.2888,10.2886,10.2917,10.2888,10.289,10.289,10.289,10.289,10.289,10.289,10.289,10.289]}]]